[[{"header":{"parameterUnit":"m.s-1","parameterCategory":1,"la1":30.6,"la2":29.2853,"lo1":-89.7004,"lo2":-87.6739,"dx":0.0162,"dy":0.0183,"nx":112,"ny":82,"refTime":"2022-11-28T18:00:00:Z","depth":0,"parameterNumber":2,"parameterNumberName":"U-component_of_WINDS"},"data":[0.0,0.0,0.0,0.0,0.0,0.0,0.0,0.0,0.0,0.0,0.0,0.0,0.0,0.0,0.0,0.0,0.0,0.0,0.0,0.0,0.0,0.0,0.0,0.0,0.0,0.0,0.0,0.0,0.0,0.0,0.0,0.0,0.0,0.0,0.0,0.0,0.0,0.0,0.0,0.0,0.0,0.0,0.0,0.0,0.0,0.0,0.0,0.0,0.0,0.0,0.0,0.0,0.0,0.0,0.0,0.0,0.0,0.0,0.0,0.0,0.0,0.0,0.0,0.0,0.0,0.0,0.0,0.0,0.0,0.0,0.0,0.0,0.0,0.0,0.0,0.0,0.0,0.0,0.0,0.0,0.0,0.0,0.0,0.0,0.0,0.0,0.0,0.0,0.0,0.0,1.1993,1.3333,1.4477,1.52,1.5378,1.3689,1.2736,1.2982,0.0,0.0,0.0,0.0,0.0,0.0,0.0,0.0,0.0,0.0,0.0,0.0,0.0,0.0,0.0,0.0,0.0,0.0,0.0,0.0,0.0,0.0,0.0,0.0,0.0,0.0,0.0,0.0,0.0,0.0,0.0,0.0,0.0,0.0,0.0,0.0,0.0,0.0,0.0,0.0,0.0,0.0,0.0,0.0,0.0,0.0,0.0,0.0,0.0,0.0,0.0,0.0,0.0,0.0,0.0,0.0,0.0,0.0,0.0,0.0,0.0,0.0,0.0,0.0,0.0,0.0,0.0,0.0,0.0,0.0,0.0,0.0,0.0,0.0,0.0,0.0,0.0,0.0,0.0,0.0,0.0,0.0,0.0,0.0,0.0,0.0,0.0,0.0,0.0,0.0,0.0,0.0,0.0,0.0,0.0,0.0,0.0,0.0,0.0,0.0,0.0,0.0,0.0,0.0,1.2564,1.4517,1.5297,1.5595,1.5418,1.4625,1.3574,1.2191,0.0,0.0,0.0,0.0,0.0,0.0,0.0,0.0,0.0,0.0,0.0,0.0,0.0,0.0,0.0,0.0,0.0,0.0,0.0,0.0,0.0,0.0,0.0,0.0,0.0,0.0,0.0,0.0,0.0,0.0,0.0,0.0,0.0,0.0,0.0,0.0,0.0,0.0,0.0,0.0,0.0,0.0,0.0,0.0,0.0,0.0,0.0,0.0,0.0,0.0,0.0,0.0,0.0,0.0,0.0,0.0,0.0,0.0,0.0,0.0,0.0,0.0,0.0,0.0,0.0,0.0,0.0,0.0,0.0,0.0,0.0,0.0,0.0,0.0,0.0,0.0,0.0,0.0,0.0,0.0,0.0,0.0,0.0,0.0,0.0,0.0,0.0,0.0,0.0,0.0,0.0,0.0,0.0,0.0,0.0,0.0,0.0,0.0,0.0,0.0,0.0,0.0,0.0,1.1992,1.2808,1.4155,1.3945,1.3679,1.3667,1.2513,1.1839,1.2007,0.9543,0.0,0.0,0.0,0.0,0.0,0.0,0.0,0.0,0.0,0.0,0.0,0.0,0.0,0.0,0.0,0.0,0.0,0.0,0.0,0.0,0.0,0.0,0.0,0.0,0.0,0.0,0.0,0.0,0.0,0.0,0.0,0.0,0.0,0.0,0.0,0.0,0.0,0.0,0.0,0.0,0.0,0.0,0.0,0.0,0.0,0.0,0.0,0.0,0.0,0.0,0.0,0.0,0.0,0.0,0.0,0.0,0.0,0.0,0.0,0.0,0.0,0.0,0.0,0.0,0.0,0.0,0.0,0.0,0.0,0.0,0.0,0.0,0.0,0.0,0.0,0.0,0.0,0.0,0.0,0.0,0.0,0.0,0.0,0.0,0.0,0.0,0.0,0.0,0.0,0.0,0.0,0.0,0.0,0.0,0.0,0.0,0.0,0.0,0.0,0.0,0.0,0.0,1.2328,1.2496,1.3156,1.2506,1.2078,1.2189,1.0838,1.0586,1.2005,0.9478,0.0,0.0,0.0,0.0,0.0,0.0,0.0,0.0,0.0,0.0,0.0,0.0,0.0,0.0,0.0,0.0,0.0,0.0,0.0,0.0,0.0,0.0,0.0,0.0,0.0,0.0,0.0,0.0,0.0,0.0,0.0,0.0,0.0,0.0,0.0,0.0,0.0,0.0,0.0,0.0,0.0,0.0,0.0,0.0,0.0,0.0,0.0,0.0,0.0,0.0,0.0,0.0,0.0,0.0,0.0,0.0,0.0,0.0,0.0,0.0,0.0,0.0,0.0,0.0,0.0,0.0,0.0,0.0,0.0,0.0,0.0,0.0,0.0,0.0,0.0,0.0,0.0,0.0,0.0,0.0,0.0,0.0,0.0,0.0,0.0,0.0,0.0,0.0,0.0,0.0,0.0,0.0,0.0,0.0,0.0,0.0,0.0,0.0,0.0,0.0,0.0,0.0,1.124,1.1378,1.1793,1.2164,1.2323,1.2209,1.167,1.1569,1.2059,1.0993,0.0,0.0,0.0,0.0,0.0,0.0,0.0,0.0,0.0,0.0,0.0,0.0,0.0,0.0,0.0,0.0,0.0,0.0,0.0,0.0,0.0,0.0,0.0,0.0,0.0,0.0,0.0,0.0,0.0,0.0,0.0,0.0,0.0,0.0,0.0,0.0,0.0,0.0,0.0,0.0,0.0,0.0,0.0,0.0,0.0,0.0,0.0,0.0,0.0,0.0,0.0,0.0,0.0,0.0,0.0,0.0,0.0,0.0,0.0,0.0,0.0,0.0,0.0,0.0,0.0,0.0,0.0,0.0,0.0,0.0,0.0,0.0,0.0,0.0,0.0,0.0,0.0,0.0,0.0,0.0,0.0,0.0,0.0,0.0,0.0,0.0,0.0,0.0,0.0,0.0,0.0,0.0,0.0,0.0,0.0,0.0,0.0,0.0,0.0,0.0,0.0,0.0,1.0684,1.0349,1.1015,1.0405,0.9969,1.0017,0.9595,0.9502,0.9939,0.0,0.0,0.0,0.0,0.0,0.0,0.0,0.0,0.0,0.0,0.0,0.0,0.0,0.0,0.0,0.0,0.0,0.0,0.0,0.0,0.0,0.0,0.0,0.0,0.0,0.0,0.0,0.0,0.0,0.0,0.0,0.0,0.0,0.0,0.0,0.0,0.0,0.0,0.0,0.0,0.0,0.0,0.0,0.0,0.0,0.0,0.0,0.0,0.0,0.0,0.0,0.0,0.0,0.0,0.0,0.0,0.0,0.0,0.0,0.0,0.0,0.0,0.0,0.0,0.0,0.0,0.0,0.0,0.0,0.0,0.0,0.0,0.0,0.0,0.0,0.0,0.0,0.0,0.0,0.0,0.0,0.0,0.0,0.0,0.0,0.0,0.0,0.0,0.0,0.0,0.0,0.0,0.0,0.0,0.0,0.0,0.0,0.0,0.0,0.0,0.0,0.0,1.1096,0.9993,0.937,1.0001,0.919,0.8648,0.8703,0.8317,0.8285,0.8732,0.0,0.0,0.0,0.0,0.0,0.0,0.0,0.0,0.0,0.0,0.0,0.0,0.0,0.0,0.0,0.0,0.0,0.0,0.0,0.0,0.0,0.0,0.0,0.0,0.0,0.0,0.0,0.0,0.0,0.0,0.0,0.0,0.0,0.0,0.0,0.0,0.0,0.0,0.0,0.0,0.0,0.0,0.0,0.0,0.0,0.0,0.0,0.0,0.0,0.0,0.0,0.0,0.0,0.0,0.0,0.0,0.0,0.0,0.0,0.0,0.0,0.0,0.0,0.0,0.0,0.0,0.0,0.0,0.0,0.0,0.0,0.0,0.0,0.0,0.0,0.0,0.0,0.0,0.0,0.0,0.0,0.0,0.0,0.0,0.0,0.0,0.0,0.0,0.0,0.0,0.0,0.0,0.0,0.0,0.0,0.0,0.0,0.0,0.0,0.0,0.0,0.0,1.0117,0.9084,0.841,0.8682,0.8825,0.8852,0.873,0.8471,0.8481,0.0,0.0,0.0,0.0,0.0,0.0,0.0,0.0,0.0,0.0,0.0,0.0,0.0,0.0,0.0,0.0,0.0,0.0,0.0,0.0,0.0,0.0,0.0,0.0,0.0,0.0,0.0,0.0,0.0,0.0,0.0,0.0,0.0,0.0,0.0,0.0,0.0,0.0,0.0,0.0,0.0,0.0,0.0,0.0,0.0,0.0,0.0,0.0,0.0,0.0,0.0,0.0,0.0,0.0,0.0,0.0,0.0,0.0,0.0,0.0,0.0,0.0,0.0,0.0,0.0,0.0,0.0,0.0,0.0,0.0,0.0,0.0,0.0,0.0,0.0,0.0,0.0,0.0,0.0,0.0,0.0,0.0,0.0,0.0,0.0,0.0,0.0,0.0,0.0,0.0,0.0,0.0,0.0,0.0,0.0,0.0,0.0,0.0,0.0,0.0,0.0,0.0,0.0,1.0365,0.9283,0.86,0.9009,0.9157,0.9232,0.9184,0.8811,0.8856,0.9486,0.0,0.0,0.0,0.0,0.0,0.0,0.0,0.0,0.0,0.0,0.0,0.0,0.0,0.0,0.0,0.0,0.0,0.0,0.0,0.0,0.0,0.0,0.0,0.0,0.0,0.0,0.0,0.0,0.0,0.0,0.0,0.0,0.0,0.0,0.0,0.0,0.0,0.0,0.0,0.0,0.0,0.0,0.0,0.0,0.0,0.0,0.0,0.0,0.0,0.0,0.0,0.0,0.0,0.0,0.0,0.0,0.0,0.0,0.0,0.0,0.0,0.0,0.0,0.0,0.0,0.0,0.0,0.0,0.0,0.0,0.0,0.0,0.0,0.0,0.0,0.0,0.0,0.0,0.0,0.0,0.0,0.0,0.0,0.0,0.0,0.0,0.0,0.0,0.0,0.0,0.0,0.0,0.0,0.0,0.0,0.0,0.0,0.0,0.0,0.0,0.0,0.0,1.0567,0.944,0.877,0.9226,0.9356,0.9437,0.9469,0.9062,0.8911,0.918,0.0,0.0,0.0,0.0,0.0,0.0,0.0,0.0,0.0,0.0,0.0,0.0,0.0,0.0,0.0,0.0,0.0,0.0,0.0,0.0,0.0,0.0,0.0,0.0,0.0,0.0,0.0,0.0,0.0,0.0,0.0,0.0,0.0,0.0,0.0,0.0,0.0,0.0,0.0,0.0,0.0,0.0,0.0,0.0,0.0,0.0,0.0,0.0,0.0,0.0,0.0,0.0,0.0,0.0,0.0,0.0,0.0,0.0,0.0,0.0,0.0,0.0,0.0,0.0,0.0,0.0,0.0,0.0,0.0,0.0,0.0,0.0,0.0,0.0,0.0,0.0,0.0,0.0,0.0,0.0,0.0,0.0,0.0,0.0,0.0,0.0,0.0,0.0,0.0,0.0,0.0,0.0,0.0,0.0,0.0,0.0,0.0,0.0,0.0,0.0,0.0,0.0,1.079,0.9628,0.8927,0.9374,0.9478,0.9517,0.9639,0.9224,0.8839,0.8564,0.0,0.0,0.0,0.0,0.0,0.0,0.0,0.0,0.0,0.0,0.0,0.0,0.0,0.0,0.0,0.0,0.0,0.0,0.0,0.0,0.0,0.0,0.0,0.0,0.0,0.0,0.0,0.0,0.0,0.0,0.0,0.0,0.0,0.0,0.0,0.0,0.0,0.0,0.0,0.0,0.0,0.0,0.0,0.0,0.0,0.0,0.0,0.0,0.0,0.0,0.0,0.0,0.0,0.0,0.0,0.0,0.0,0.0,0.0,0.0,1.4043,1.3104,0.0,0.0,0.0,0.0,0.0,0.0,0.0,0.0,0.0,0.0,0.0,0.0,0.0,0.0,0.0,0.0,0.0,0.0,0.0,0.0,0.0,0.0,0.0,0.0,0.0,0.0,0.0,0.0,0.0,0.0,0.0,0.0,0.0,0.0,0.0,0.0,0.0,0.0,0.0,0.0,1.1541,1.0169,0.926,0.968,0.9944,1.0053,0.9934,0.9623,0.9695,1.0317,0.8809,0.0,0.0,0.0,0.0,0.0,0.0,0.0,0.0,0.0,0.0,0.0,0.0,0.0,0.0,0.0,0.0,0.0,0.0,0.0,0.0,0.0,0.0,0.0,0.0,0.0,0.0,0.0,0.0,0.0,0.0,0.0,0.0,0.0,0.0,0.0,0.0,0.0,0.0,0.0,0.0,0.0,0.0,0.0,0.0,0.0,0.0,0.0,0.0,0.0,0.0,0.0,0.0,0.0,0.0,0.0,0.0,0.0,0.0,0.0,1.4496,1.3515,0.0,0.0,0.0,0.0,0.0,0.0,0.0,0.0,0.0,0.0,0.0,0.0,0.0,0.0,0.0,0.0,0.0,0.0,0.0,0.0,0.0,0.0,0.0,0.0,0.0,0.0,0.0,0.0,0.0,0.0,0.0,0.0,0.0,0.0,0.0,0.0,0.0,0.0,0.0,0.0,1.1938,1.0432,0.9464,0.9852,1.0141,1.0276,1.0231,0.9893,0.9874,1.026,0.9065,0.0,0.0,0.0,0.0,0.0,0.0,0.0,0.0,0.0,0.0,0.0,0.0,0.0,0.0,0.0,0.0,0.0,0.0,0.0,0.0,0.0,0.0,0.0,0.0,0.0,0.0,0.0,0.0,0.0,0.0,0.0,0.0,0.0,0.0,0.0,0.0,0.0,0.0,0.0,0.0,0.0,0.0,0.0,0.0,0.0,0.0,0.0,0.0,0.0,0.0,0.0,0.0,0.0,1.5803,1.6316,1.6443,1.6753,1.6531,1.5797,1.4774,1.3792,1.2981,1.3899,0.0,0.0,0.0,0.0,0.0,0.0,0.0,0.0,0.0,0.0,0.0,0.0,0.0,0.0,0.0,0.0,0.0,0.0,0.0,0.0,0.0,0.0,1.3347,1.3994,1.4341,1.4377,1.3683,0.0,0.0,0.0,0.0,0.0,0.0,0.0,0.0,0.0,0.0,0.0,1.1976,1.0527,0.9632,1.0049,1.0263,1.0424,1.0487,1.0148,0.9863,0.967,0.9171,0.8642,0.0,0.0,0.0,0.0,0.0,0.0,0.0,0.0,0.0,0.0,0.0,0.0,0.0,0.0,0.0,0.0,0.0,0.0,0.0,0.0,0.0,0.0,0.0,0.0,0.0,0.0,0.0,0.0,0.0,0.0,0.0,0.0,1.2326,1.3029,0.0,0.0,0.0,0.0,0.0,0.0,0.0,0.0,0.0,0.0,0.0,0.0,0.0,1.4939,1.5682,1.5139,1.5146,1.5714,1.5995,1.6397,1.6907,1.6959,1.7086,1.7164,1.581,0.0,1.4521,1.3712,0.0,0.0,0.0,0.0,0.0,0.0,0.0,0.0,0.0,0.0,0.0,0.0,0.0,0.0,0.0,0.0,0.0,0.0,0.0,0.0,0.0,0.0,1.4972,1.6046,1.6326,1.6102,1.5155,1.345,1.2063,1.1832,1.0777,1.0326,0.0,0.0,0.0,0.0,0.0,0.0,1.1453,1.0428,0.9937,1.0385,1.0568,1.0616,1.05,1.0439,1.0283,0.9981,0.9643,0.9257,0.8811,0.819,0.0,0.0,0.0,0.0,0.0,0.0,0.0,0.0,0.0,0.0,0.0,0.0,0.0,0.0,0.0,0.0,0.0,0.0,0.0,0.0,0.0,0.0,0.0,0.0,0.0,0.0,0.0,0.0,0.0,1.2819,1.3289,1.427,1.4293,1.4576,0.0,0.0,0.0,0.0,0.0,0.0,0.0,0.0,0.0,1.477,1.5332,1.5606,1.5567,1.5655,1.5822,1.6132,1.6527,1.6858,1.711,1.7267,1.7407,1.7507,1.6898,1.6476,1.6114,1.5127,1.4474,1.4066,0.0,0.0,0.0,0.0,1.2919,1.2933,1.3086,1.3026,1.2946,1.3086,0.0,0.0,0.0,0.0,0.0,0.0,0.0,1.4643,1.5501,1.6086,1.6369,1.6054,1.6115,1.5857,1.4437,1.282,1.1727,1.1935,1.1962,1.1915,1.1824,1.201,0.0,0.0,0.0,1.154,1.1492,1.0649,1.0181,1.046,1.0629,1.0697,1.0622,1.0541,1.0439,1.0304,0.9988,0.9663,0.9305,0.8791,0.827,0.0,0.0,0.0,0.0,0.0,0.0,0.0,0.0,0.0,0.0,0.0,0.0,0.0,0.0,0.0,0.0,0.0,0.0,0.0,0.0,0.0,0.0,0.0,0.0,0.0,0.0,0.0,0.0,1.3603,1.4104,1.5662,1.5148,1.5262,0.0,0.0,0.0,0.0,0.0,0.0,1.5074,1.5849,1.6005,1.5283,1.6041,1.6177,1.5571,1.627,1.6632,1.6645,1.7099,1.7353,1.7408,1.7609,1.7742,1.7836,1.7729,1.7582,1.7339,1.6565,1.5737,1.5004,1.5508,1.5229,1.4536,1.4536,1.4576,1.4678,1.4736,1.4785,1.4776,1.4865,1.4839,1.471,1.4474,0.0,0.0,0.0,0.0,1.6222,1.6967,1.7213,1.7022,1.6088,1.5727,1.5138,1.3509,1.2606,1.2126,1.1979,1.2307,1.243,1.1841,1.1861,0.0,1.2298,1.1818,1.1398,1.1287,1.0717,1.0392,1.0534,1.0649,1.0684,1.0684,1.0616,1.0548,1.0548,1.0272,1.0015,0.9788,0.9352,0.8892,0.8365,0.0,0.0,0.0,0.0,0.0,0.0,0.0,0.0,0.0,0.0,0.0,0.0,0.0,0.0,0.0,0.0,0.0,0.0,0.0,0.0,0.0,0.0,0.0,0.0,0.0,0.0,0.0,0.0,0.0,1.754,1.5921,0.0,0.0,0.0,0.0,1.6283,1.6569,1.6651,1.6329,1.6359,1.6335,1.6233,1.652,1.6829,1.7085,1.7381,1.7541,1.7541,1.7568,1.7716,1.7955,1.7969,1.8156,1.8424,1.8116,1.7955,1.7929,1.7366,1.6762,1.6203,1.6238,1.604,1.5715,1.5715,1.5925,1.623,1.6473,1.658,1.662,1.6926,1.6832,1.6567,1.6553,1.6779,0.0,0.0,1.7462,1.7969,1.8317,1.7394,1.6483,1.6983,1.5868,1.4293,1.3016,1.3612,1.3812,1.1747,1.0398,0.9968,1.1135,0.0,1.1409,1.162,1.173,1.1415,1.0486,1.0449,1.0541,1.069,1.0717,1.0684,1.0684,1.0677,1.0677,1.0677,1.0561,1.0399,1.0281,0.9944,0.9632,0.9349,0.8757,0.0,0.0,0.0,0.0,0.0,0.0,0.0,0.0,0.0,0.0,0.0,0.0,0.0,0.0,0.0,0.0,0.0,0.0,0.0,0.0,0.0,0.0,0.0,0.0,0.0,0.0,0.0,0.0,1.7452,1.6451,0.0,1.7796,1.7355,1.6905,1.6776,1.6586,1.6541,1.6597,1.6805,1.6977,1.7127,1.7408,1.7716,1.8036,1.8303,1.8544,1.8759,1.8918,1.9065,1.9156,1.9343,1.9477,1.957,1.9477,1.9316,1.913,1.8945,1.8197,1.714,1.714,1.7048,1.6954,1.6954,1.7154,1.7396,1.7489,1.7675,1.7876,1.801,1.797,1.7849,1.7849,1.7929,1.7833,1.6882,1.6923,1.7035,1.6207,1.5907,1.5556,1.4661,1.4079,1.3334,1.1738,1.1764,1.1897,1.1194,1.1064,1.0926,1.0428,1.0403,1.0482,1.0571,1.0803,1.0866,1.0599,1.0657,1.0839,1.0989,1.1002,1.1002,1.1002,1.1002,1.1002,1.1002,1.0989,1.0812,1.0575,1.0365,1.0066,0.9673,0.9266,0.8838,0.0,0.0,0.0,0.0,0.0,0.0,0.0,0.0,0.0,0.0,0.0,0.0,0.0,0.0,0.0,0.0,0.0,0.0,0.0,0.0,0.0,0.0,0.0,0.0,0.0,1.511,1.5735,1.7922,1.688,1.6617,1.8157,1.7546,1.707,1.707,1.6862,1.6913,1.7288,1.7528,1.7809,1.8197,1.8477,1.8703,1.8931,1.9196,1.9466,1.9666,1.9853,1.9947,1.9947,2.0117,2.0197,2.0197,2.0197,2.009,1.9947,1.9947,1.9372,1.8464,1.8291,1.821,1.821,1.821,1.8384,1.8539,1.8043,1.7998,1.8106,1.7518,1.7317,1.7317,1.7317,1.7317,1.7122,1.6134,1.6108,1.6128,1.5176,1.4848,1.4521,1.3362,1.2856,1.2286,1.1135,1.0867,1.09,1.0968,1.1344,1.1336,1.0422,1.0358,1.0393,1.0393,1.0595,1.0758,1.086,1.0962,1.1056,1.1186,1.12,1.12,1.12,1.12,1.12,1.12,1.12,1.1111,1.088,1.0772,1.0527,1.0103,0.9125,0.8159,0.7175,0.0,0.0,0.0,0.0,0.0,0.0,0.0,0.0,0.0,0.0,0.0,0.0,0.0,0.0,0.0,0.0,0.0,0.0,0.0,0.0,0.0,0.0,0.0,1.6186,1.6148,1.6724,1.8959,1.7223,1.6543,1.8307,1.773,1.7233,1.7246,1.7488,1.7889,1.8504,1.8531,1.8798,1.9401,1.9666,1.9813,1.9826,2.0077,2.0224,2.0224,2.0224,2.0224,2.0224,2.0224,2.0224,2.0224,2.0224,2.0224,2.0224,2.0224,2.0224,2.017,1.9655,1.9428,1.9428,1.9356,1.9485,1.9466,1.8045,1.7545,1.7268,1.5587,1.5027,1.5027,1.5027,1.5027,1.5027,1.4975,1.5187,1.5419,1.5397,1.4413,1.3419,1.3419,1.2304,1.12,1.12,1.12,1.12,1.1206,1.1063,1.0975,1.1172,1.12,1.12,1.12,1.12,0.0,1.1206,1.1206,1.1213,1.122,1.122,1.1227,1.1227,1.1158,1.1123,1.1123,1.1082,1.104,1.1034,1.1034,1.0859,1.0525,0.8211,0.6107,0.4208,0.0,0.0,0.0,0.0,0.0,0.0,0.0,0.0,0.0,0.0,0.0,0.0,0.0,0.0,0.0,0.0,0.0,0.0,0.0,0.0,0.0,1.4181,1.5089,1.5617,1.5763,1.6321,1.763,1.7207,1.7079,1.7779,1.7807,1.7889,1.813,1.8397,1.8811,1.9412,1.9439,1.9613,1.9987,2.0037,2.0214,2.0458,2.0521,2.0655,2.0837,2.0837,2.0837,2.0837,2.0837,2.0837,2.0837,2.0837,2.0837,2.0837,2.0837,2.0837,2.0784,2.0227,2.0,1.9837,1.8548,1.7506,1.666,1.6456,1.6371,1.6275,1.5795,1.5635,1.5635,1.5635,1.5635,1.5418,1.425,1.3969,1.3775,1.2681,1.2119,1.181,1.181,1.151,1.12,1.12,1.12,1.1234,1.1342,1.1382,1.1375,1.1227,1.12,1.12,1.12,1.12,1.124,1.1314,1.1423,1.1531,1.1633,1.1785,1.1853,1.1853,1.0444,0.9522,0.9522,0.8125,0.7251,0.7147,0.7146,0.6992,0.6635,0.5877,0.5188,0.0,0.0,0.0,0.0,0.0,0.0,0.0,0.0,0.0,0.0,0.0,0.0,0.0,0.0,0.0,0.0,0.0,0.0,0.0,0.0,0.0,0.0,1.5164,1.5899,1.6259,1.6353,1.666,1.7435,1.7528,1.7689,1.8103,1.8424,1.8718,1.9011,1.9276,1.9679,2.0147,2.0174,2.0294,2.0557,2.057,2.0681,2.0855,2.0855,2.0949,2.1109,2.1109,2.1109,2.1109,2.1109,2.1109,2.1109,2.1109,2.1109,2.1046,2.0291,2.0005,2.003,0.0,0.0,0.0,0.0,1.6382,1.5581,1.4999,1.4809,1.4688,1.397,1.3709,1.3726,1.378,1.3798,1.3642,1.2769,1.2546,1.2338,1.1448,1.1247,1.1295,1.1295,1.1342,1.1369,1.143,1.1443,1.1491,1.1676,1.1742,0.0,1.1608,1.1574,1.1574,1.1574,1.1574,1.1608,1.1696,1.1748,1.15,1.0687,1.0692,1.0398,0.9527,0.8323,0.0,0.0,0.0,0.5762,0.5679,0.5647,0.0,0.0,0.0,0.3566,0.2735,0.2645,0.0,0.0,0.2646,0.2926,0.0,0.0,0.0,0.0,0.0,0.0,0.0,0.0,0.0,0.0,0.0,0.0,0.0,0.0,0.0,0.0,1.6032,1.6752,1.7609,1.7568,1.7622,1.8103,1.8169,1.8396,1.8983,1.9305,1.9615,1.988,2.0104,2.0414,2.0739,2.0753,0.0,0.0,0.0,2.1109,2.1109,2.1109,2.1109,2.1109,2.1109,2.1109,2.1109,2.1109,2.0982,2.0811,2.0811,2.0684,2.0386,1.8832,1.8212,1.834,1.9909,1.9451,1.7731,1.6172,1.5492,1.5102,1.3545,0.0,0.0,1.1236,1.0725,1.0799,1.0901,1.0941,1.0968,1.1179,1.1227,1.1227,1.1247,1.1328,1.1443,1.1443,1.1558,1.1701,1.1793,1.182,1.1898,1.207,1.1925,1.1782,1.1782,1.1962,1.2098,1.2098,1.2098,1.2023,1.1762,1.1775,1.0952,0.8798,0.8582,0.0,0.6015,0.5638,0.5487,0.5487,0.5289,0.5133,0.5164,0.5035,0.4204,0.2588,0.2452,0.1605,0.0,0.0,0.0,0.0072,0.2752,0.3275,0.0,0.0,0.0,0.0,0.0,0.0,0.0,0.0,0.0,0.0,0.0,0.0,0.0,0.0,0.0,1.6353,1.6941,1.7649,1.8544,1.8853,1.9013,1.9134,1.9134,1.9345,1.989,1.9997,2.0187,2.0481,2.0561,2.0722,2.1002,2.1029,2.1056,2.1109,2.1109,2.1109,2.1109,2.1109,2.1109,2.1109,2.1109,0.0,2.1109,2.1109,2.0322,1.8992,1.8992,1.8212,1.6883,1.6528,1.6399,1.6431,1.6754,1.5848,1.4264,1.3938,1.2898,1.1663,1.1306,1.1259,1.1305,1.0968,1.0982,1.1118,1.1145,1.1159,0.0,1.1307,1.1348,1.1375,1.1497,1.164,1.1712,1.1712,1.1864,1.2023,1.205,1.2057,1.2064,1.2091,1.0825,0.9742,0.9742,1.107,1.2098,1.2098,1.2098,1.1457,0.9757,0.965,0.8944,0.6808,0.6715,0.6639,0.6249,0.4621,0.3613,0.3613,0.2042,0.1108,0.1136,0.1094,0.0937,0.0556,0.0517,0.0332,0.0,0.0,0.0,0.0,0.0606,0.0702,0.0,0.0,0.0,0.0,0.0,0.0,0.0,0.0,0.0,0.0,0.0,1.4923,1.5534,0.0,1.6687,1.7249,1.7876,1.8464,1.9065,1.9519,1.98,1.98,1.98,1.9973,2.0414,2.0454,2.0575,2.0869,2.0895,2.0962,2.1096,2.1109,2.1109,2.1109,2.1109,2.1109,2.1109,2.1109,2.1109,2.1077,2.0227,1.9813,1.9886,1.9003,1.8185,1.7434,1.7434,1.694,1.6082,1.5219,1.433,1.3562,1.3562,1.3478,1.3311,1.2541,1.1704,1.0941,1.0941,1.0995,1.1056,1.1056,1.1104,1.1213,1.1288,1.1308,1.1342,1.1463,1.1558,1.1626,1.1671,1.1837,1.1686,1.0601,1.0426,1.0228,0.9262,0.9046,0.9066,0.916,0.8405,0.7757,0.7769,0.8552,0.9198,0.918,0.9208,0.8827,0.7752,0.7679,0.6917,0.4771,0.4626,0.4261,0.323,0.2153,0.1556,0.1556,0.0556,0.0,0.0,0.0,0.0,0.0,0.0,0.0,0.0,0.0,0.0,0.0,0.0,0.0,0.0,0.0,0.0,0.0,0.0,0.0,0.0,1.3794,1.4173,1.475,1.5324,1.5899,1.6458,1.7033,1.7635,1.8183,1.8716,1.9212,1.9602,2.0027,2.0304,2.037,2.0317,2.0441,2.0766,2.0793,2.0855,2.1096,2.1109,2.1109,2.1109,2.1109,2.1109,2.1109,2.1109,2.1109,2.1109,2.0781,2.0635,2.0604,1.8899,1.8141,1.8203,1.6815,1.6041,1.5861,1.5532,1.5396,1.5295,1.3874,1.2486,1.12,1.1234,1.1983,1.2926,1.1674,1.12,1.12,1.12,1.122,1.124,1.124,1.1261,1.1239,1.0966,1.0876,1.0815,1.0534,1.0547,1.0645,1.0645,1.0785,1.0471,0.8732,0.837,0.7953,0.6382,0.6047,0.6109,0.6261,0.5965,0.5673,0.5661,0.5354,0.5337,0.6191,0.6298,0.6141,0.5748,0.5679,0.4875,0.272,0.2501,0.1827,0.0163,0.0,0.0,0.0,0.0,0.0,0.0,0.0,0.0,0.0,0.0,0.0,0.0,0.0,0.0,0.0,0.0,0.0,1.3106,1.326,1.3487,1.3774,1.4082,1.4402,0.0,1.519,1.5648,1.6005,1.6565,1.7073,1.7408,1.7956,1.8558,1.9147,1.9492,1.9893,2.0485,2.0619,2.0722,2.0975,2.0788,2.0735,2.1029,2.1069,2.1069,2.1109,2.1109,2.1109,2.1109,2.1109,2.1109,2.1109,2.1109,2.1109,2.1109,1.9697,1.8962,1.8962,1.7375,1.6644,1.6641,1.6473,1.5537,1.4011,1.2452,1.1772,1.1772,1.1572,1.1365,1.1213,1.1349,1.1495,1.1601,1.131,1.12,1.12,1.12,1.1288,1.1362,1.1362,1.1457,1.1243,0.9515,0.9008,0.8653,0.6937,0.6444,0.6466,0.6466,0.6562,0.6625,0.6396,0.6449,0.6544,0.6318,0.6283,0.6264,0.6303,0.4767,0.3472,0.3473,0.1945,0.1984,0.5727,0.6287,0.5604,0.3715,0.3476,0.2673,0.0568,0.0366,0.0244,0.0,0.0,0.0,0.0,0.0,0.0,0.0,0.0,0.0,0.0,0.0,0.0,0.0,0.0,0.0,0.0,0.0,0.0,1.425,1.4322,1.4482,1.4776,1.507,1.5381,1.5872,1.6299,1.6698,1.7006,1.7541,1.805,1.8303,1.8851,1.9386,1.98,2.012,2.0401,2.0672,2.0815,2.0975,2.1096,2.1002,2.0975,2.1096,2.1109,2.1109,2.1109,2.1109,2.1109,2.1109,2.0132,1.9578,1.9578,1.8685,1.8184,1.8184,1.7631,1.7341,1.7341,1.5687,1.4917,1.4956,1.394,1.3137,1.2474,1.1741,1.143,1.143,1.143,1.143,1.1436,1.1497,1.1525,1.1518,1.145,1.143,1.143,1.143,1.147,1.134,1.0185,0.9873,0.954,0.7596,0.6994,0.6839,0.6019,0.5848,0.5904,0.5904,0.6034,0.5858,0.4619,0.4364,0.4116,0.2884,0.2653,0.2622,0.2653,0.1894,0.1295,0.131,0.0575,0.0617,0.2358,0.2619,0.2313,0.1422,0.1308,0.0947,0.0083,0.0,0.0,0.0,0.0,0.0,0.0,0.0,0.0,0.0,0.0,0.0,0.0,0.0,0.0,0.0,0.0,0.0,0.0,0.0,0.0,1.5186,1.5227,1.5334,1.5789,1.6032,1.6353,1.6941,1.7235,1.7501,1.7796,1.8344,1.8798,1.9011,1.9586,2.0107,2.0321,2.0601,2.0802,2.0802,2.0975,2.1109,2.1109,2.1109,2.1109,2.1109,2.1109,2.1109,2.1109,2.0652,2.0386,2.0386,1.8775,1.7832,1.7832,1.6755,1.6172,1.6172,1.5885,1.5754,1.5719,1.4001,1.3242,1.3298,1.2044,1.1511,1.1584,1.1584,1.1584,1.1584,1.1584,1.1584,1.1584,1.1584,1.1611,1.1608,1.1017,1.1142,1.1518,1.1004,1.08,1.0474,0.853,0.7892,0.7545,0.558,0.4991,0.4888,0.4358,0.4283,0.4362,0.4362,0.4469,0.419,0.2595,0.2244,0.1818,0.032,0.0,0.0,0.0,0.0,0.0,0.0,0.0,0.0,0.0,0.0,0.0,0.0,0.0,0.0,0.0,0.0,0.0,0.0,0.0,0.0,0.0,0.0,0.0,0.0,0.0,0.0,0.0,0.0,0.0,0.0,0.0,0.0,0.0,0.0,0.0,1.5621,1.5781,1.6005,1.6924,1.7152,1.7287,1.7849,1.7969,1.8076,1.8397,1.896,1.9374,1.9388,2.0097,2.0686,2.0686,2.0909,2.1096,2.1096,2.1096,2.1109,2.1109,2.1109,2.1109,2.1109,2.1109,2.1109,2.1109,1.9546,1.8576,1.8576,1.7043,1.6181,1.6181,1.6315,1.6392,1.6392,1.4837,1.4083,1.4049,1.2443,1.1678,1.1685,1.1613,1.1613,1.1584,1.1584,1.1584,1.1584,1.1584,1.1584,1.1584,1.1584,1.1665,1.1567,0.9533,0.9977,1.1345,0.9458,0.8793,0.8477,0.6522,0.5869,0.5534,0.3583,0.2969,0.2577,0.0693,0.0194,0.0196,0.0196,0.0196,0.0157,0.012,0.008,0.008,0.0,0.0,0.0,0.0,0.0,0.0,0.0,0.0,0.0,0.0,0.0,0.0,0.0,0.0,0.0,0.0,0.0,0.0,0.0,0.0,0.0,0.0,0.0,0.0,0.0,0.0,0.0,0.0,0.0,0.0,0.0,0.0,0.0,0.0,0.0,0.0,1.6072,1.6406,1.6846,1.7341,1.7595,1.7876,1.8463,1.8596,1.8704,1.904,1.9415,1.9653,1.9653,2.0244,2.0712,2.0712,2.0922,2.1109,2.1109,2.1109,2.1109,2.1109,2.0068,1.9387,1.9387,1.9387,1.9387,1.9387,1.7845,1.69,1.69,1.5414,1.4551,1.4551,1.3589,1.3063,1.3063,1.2617,1.2422,1.2386,1.1879,1.1584,1.1584,1.1584,1.1584,1.159,1.1678,1.1726,1.1732,1.187,1.1911,1.1801,1.0349,0.9848,0.9622,0.7559,0.7203,0.7664,0.6988,0.6776,0.6444,0.4519,0.3871,0.3515,0.1569,0.0966,0.0858,0.0195,0.0,0.0,0.0,0.0,0.0,0.0,0.0,0.0,0.0,0.0,0.0,0.0,0.0,0.0,0.0,0.0,0.0,0.0,0.0,0.0,0.0,0.0,0.0,0.0,0.0,0.0,0.0,0.0,0.0,0.0,0.0,0.0,0.0,0.0,0.0,0.0,0.0,0.0,0.0,0.0,0.0,0.0,0.0,0.0,1.6685,1.7046,1.7448,1.7929,1.8183,1.8463,1.8971,1.8998,1.9011,1.9334,1.9548,1.9679,1.9786,2.0187,2.0548,2.0686,2.0828,2.0989,2.1096,2.0557,2.0164,2.0164,1.864,1.7604,1.7628,1.7077,1.6979,1.7607,1.6171,1.5266,1.5266,1.3772,1.295,1.295,1.198,1.147,1.147,1.1572,1.1584,1.1584,1.1584,1.1584,1.1584,1.1638,1.1658,1.1665,1.185,1.1911,1.1844,1.1232,1.0965,1.074,0.8628,0.782,0.7624,0.554,0.4793,0.4848,0.4788,0.4783,0.4444,0.2484,0.1848,0.1628,0.0388,0.0,0.0,0.0,0.0,0.0,0.0,0.0,0.0,0.0,0.0,0.0,0.0,0.0,0.0,0.0,0.0,0.0,0.0,0.0,0.0,0.0,0.0,0.0,0.0,0.0,0.0,0.0,0.0,0.0,0.0,0.0,0.0,0.0,0.0,0.0,0.0,0.0,0.0,0.0,0.0,0.0,0.0,0.0,0.0,0.0,0.0,0.0,1.7381,1.7635,1.7876,1.8676,1.8903,1.8983,1.9308,1.9132,1.8998,1.9294,1.9348,1.9441,1.9679,1.9884,2.0129,2.0451,2.0469,2.0557,2.0803,1.9419,1.8384,1.8384,1.6829,1.5819,1.5939,1.4423,1.4064,1.5756,1.4501,1.3686,1.3686,1.2251,1.1402,1.1402,1.1545,1.1584,1.1584,1.1584,1.1584,1.1584,1.1584,1.1584,1.1597,1.1732,1.1763,1.1667,1.1858,1.188,1.1619,0.9586,0.876,0.8567,0.6491,0.5742,0.5609,0.3502,0.2831,0.2931,0.2783,0.2734,0.2432,0.0586,0.0,0.0,0.0,0.0,0.0,0.0,0.0,0.0,0.0,0.0,0.0,0.0,0.0,0.0,0.0,0.0,0.0,0.0,0.0,0.0,0.0,0.0,0.0,0.0,0.0,0.0,0.0,0.0,0.0,0.0,0.0,0.0,0.0,0.0,0.0,0.0,0.0,0.0,0.0,0.0,0.0,0.0,0.0,0.0,0.0,0.0,0.0,0.0,0.0,0.0,1.7541,1.8076,1.8609,1.8836,1.9092,1.9212,1.9065,1.8956,1.885,1.8744,1.8746,1.8759,1.8811,1.8259,1.7881,1.8058,1.7464,1.7027,1.7204,1.6851,1.656,1.656,1.5115,1.411,1.4163,1.2806,1.2137,1.2546,1.2243,1.2021,1.2021,1.1725,1.1558,1.1558,1.1563,1.1584,1.1584,1.1584,1.1584,1.1584,1.1584,1.1638,1.1739,1.178,1.1001,0.9643,0.9834,0.9048,0.7528,0.7138,0.6972,0.6741,0.4611,0.3804,0.3583,0.1522,0.0744,0.0784,0.0743,0.0742,0.0665,0.0157,0.0,0.0,0.0,0.0,0.0,0.0,0.0,0.0,0.0,0.0,0.0,0.0,0.0,0.0,0.0,0.0,0.0,0.0,0.0,0.0,0.0,0.0,0.0,0.0,0.0,0.0,0.0,0.0,0.0,0.0,0.0,0.0,0.0,0.0,0.0,0.0,0.0,0.0,0.0,0.0,0.0,0.0,0.0,0.0,0.0,0.0,0.0,0.0,0.0,0.0,1.7903,1.8437,1.8958,1.9092,1.9145,1.9132,1.893,1.8596,1.833,1.8303,1.7615,1.7105,1.7306,1.6409,1.5745,1.6094,1.5707,1.5492,1.5785,1.5206,1.4782,1.4842,1.3378,1.2406,1.2551,1.188,1.1416,1.1484,1.1491,1.1491,1.1491,1.1572,1.1584,1.1584,1.1584,1.1584,1.1584,1.1584,1.1584,1.1584,1.1644,1.1719,1.1763,1.1027,1.0067,0.9003,0.8229,0.7234,0.6077,0.5226,0.4888,0.4693,0.2584,0.1724,0.1607,0.0432,0.0,0.0,0.0,0.0,0.0,0.0,0.0,0.0,0.0,0.0,0.0,0.0,0.0,0.0,0.0,0.0,0.0,0.0,0.0,0.0,0.0,0.0,0.0,0.0,0.0,-0.0349,-0.1409,-0.1594,-0.1914,-0.2952,-0.3134,-0.3134,-0.3134,-0.13,0.0,0.0,-0.0942,-0.1166,-0.009,-0.0987,-0.1121,-0.0045,0.0,0.0,0.0,0.0,0.0,0.0,0.0,0.0,0.0,0.0,0.0,0.0,0.0,0.0,1.8397,1.8758,1.9038,1.9281,1.9118,1.8806,1.8546,1.7885,1.7344,1.7314,1.6017,1.4998,1.5402,1.4423,1.3714,1.428,1.433,1.4461,1.494,1.382,1.2964,1.3119,1.182,1.1043,1.1335,1.1396,1.1477,1.157,1.1584,1.1584,1.1584,1.1584,1.1584,1.1584,1.1584,1.1584,1.1584,1.1584,1.159,1.1611,1.1477,1.1403,1.1376,0.9607,0.8636,0.8306,0.6615,0.5708,0.5321,0.3443,0.2701,0.2506,0.0706,0.0,0.0,0.0,0.0,0.0,0.0,0.0,0.0,0.0,0.0,0.0,0.0,0.0,0.0,0.0,0.0,0.0,0.0,0.0,0.0,0.0,0.0,0.0,0.0,0.0,-0.0085,-0.0428,-0.0479,-0.1236,-0.3663,-0.4047,-0.474,-0.6793,-0.7102,-0.7102,-0.7102,-0.349,-0.0942,-0.0942,-0.2821,-0.3224,-0.1121,-0.2866,-0.3179,-0.1076,-0.0942,-0.0942,-0.0942,-0.0942,-0.0807,-0.0494,-0.0494,-0.0314,0.0,0.0,0.0,0.0,0.0,0.0,1.8758,1.9065,1.9267,1.9052,1.893,1.8409,1.6577,1.6065,1.5514,1.3997,1.3442,1.323,1.3314,1.2389,1.1694,1.2029,1.1298,1.0863,1.1352,1.1156,1.104,1.1169,1.1145,1.1179,1.1234,1.143,1.1556,1.1619,1.1584,1.1584,1.1584,1.1584,1.1584,1.1584,1.1584,1.1584,1.1584,1.1584,1.1681,1.1759,1.0041,0.9377,0.9564,0.7502,0.5672,0.4133,0.379,0.2662,0.1059,0.0706,0.0549,0.051,0.0157,0.0,0.0,0.0,0.0,0.0,0.0,0.0,0.0,0.0,0.0,0.0,0.0,0.0,0.0,0.0,0.0,0.0,0.0,0.0,0.0,0.0,0.0,0.0,0.0,0.0,-0.0599,-0.2591,-0.2971,-0.371,-0.6098,-0.6471,-0.6611,-0.706,-0.7102,-0.7102,-0.7102,-0.6388,-0.5853,-0.5853,-0.6255,-0.6302,-0.5901,-0.6255,-0.6302,-0.5901,-0.5853,-0.5853,-0.5853,-0.5853,-0.4963,-0.3,-0.2955,-0.2016,0.0,0.0,0.0,0.0,0.0,0.0,1.881,1.9145,1.9321,1.897,1.8649,1.7933,1.6036,1.5248,1.4472,1.2907,1.1942,1.1366,1.1418,1.0448,0.9743,1.0085,0.9823,0.9747,1.0163,1.0392,1.0575,1.0779,1.0968,1.1111,1.1302,1.1416,1.1531,1.1577,1.1584,1.1584,1.1584,1.1584,1.1584,1.1584,1.1584,1.1584,1.1584,1.1584,1.1108,1.0162,0.9229,0.8365,0.7481,0.5408,0.3968,0.3052,0.1959,0.0902,0.0,0.0,0.0,0.0,0.0,0.0,0.0,0.0,0.0,0.0,0.0,0.0,0.0,0.0,0.0,0.0,0.0,0.0,0.0,0.0,0.0,0.0,0.0,0.0,0.0,0.0,0.0,-0.0295,-0.1471,-0.1789,-0.2544,-0.4889,-0.5397,-0.6175,-0.8566,-0.8975,-0.942,-1.0673,-1.0851,-1.0851,-1.0851,-1.0851,-0.9869,-0.7369,-0.8219,-0.8486,-0.7191,-0.8263,-0.8441,-0.7191,-0.7102,-0.7102,-0.7102,-0.7102,-0.657,-0.5454,-0.541,-0.4874,-0.3714,-0.3714,-0.3714,-0.3714,-0.3714,-0.3714,1.8731,1.8998,1.9034,1.8352,1.7825,1.6967,1.4941,1.3936,1.3048,1.1697,1.0404,0.9526,0.9663,0.8888,0.837,0.8791,0.9137,0.9503,0.9954,1.0245,1.0561,1.0833,1.0894,1.1016,1.1314,1.1369,1.1457,1.1606,1.1584,1.1584,1.1584,1.1584,1.1584,1.1584,1.1217,1.0995,1.0995,1.0563,0.9616,0.8127,0.7763,0.6834,0.532,0.335,0.2427,0.2349,0.0706,0.0,0.0,0.0,0.0,0.0,0.0,0.0,0.0,0.0,0.0,0.0,0.0,0.0,0.0,0.0,0.0,0.0,0.0,0.0,0.0,0.0,0.0,0.0,0.0,-0.0337,-0.0841,-0.1304,-0.1429,-0.1934,-0.3703,-0.4188,-0.4983,-0.7288,-0.7801,-0.8619,-1.1072,-1.1477,-1.2104,-1.4027,-1.4299,-1.4299,-1.4299,-1.4299,-1.2863,-0.9064,-1.0357,-1.0717,-0.8797,-1.0357,-1.0673,-0.8753,-0.8664,-0.8664,-0.8664,-0.8664,-0.8397,-0.7859,-0.7862,-0.764,-0.7102,-0.7102,-0.7102,-0.7102,-0.7102,-0.7102,1.837,1.8544,1.8147,1.6346,1.5853,1.4953,1.1639,1.0721,1.014,0.8556,0.7996,0.7868,0.799,0.8013,0.8182,0.8635,0.9009,0.941,0.9934,1.0195,1.0412,1.0704,1.0833,1.0975,1.12,1.1342,1.1457,1.1606,1.1584,1.1584,1.1584,1.1584,1.1584,1.1584,0.9903,0.8956,0.8956,0.7219,0.6319,0.6244,0.4336,0.3439,0.3281,0.1215,0.0275,0.0275,0.0079,0.0,0.0,0.0,0.0,0.0,0.0,0.0,0.0,0.0,0.0,0.0,0.0,0.0,0.0,0.0,0.0,0.0,0.0,0.0,0.0,0.0,0.0,0.0,0.0,-0.1471,-0.3524,-0.5574,-0.6076,-0.6176,-0.6486,-0.6564,-0.7331,-0.9855,-1.0366,-1.1117,-1.3533,-1.3982,-1.4033,-1.4255,-1.4299,-1.4299,-1.4299,-1.4299,-1.4122,-1.3673,-1.385,-1.3894,-1.3673,-1.385,-1.385,-1.3673,-1.3628,-1.3628,-1.3628,-1.3628,-1.2597,-1.0402,-1.0357,-0.9286,-0.7102,-0.7102,-0.7102,-0.7102,-0.7102,-0.7102,1.8063,1.809,1.7581,1.6002,1.5357,1.4276,1.1022,1.0098,0.95,0.7895,0.7525,0.7505,0.7559,0.7672,0.7864,0.8223,0.8635,0.9062,0.9578,0.99,1.0218,1.0548,1.0684,1.09,1.1172,1.1254,1.1355,1.1563,1.1584,1.1074,0.9903,1.0959,1.1074,0.9903,0.91,0.8121,0.6966,0.617,0.5223,0.4113,0.3285,0.2297,0.1215,0.0392,0.0,0.0,0.0,0.0,0.0,0.0,0.0,0.0,0.0,0.0,0.0,0.0,0.0,0.0,0.0,0.0,0.0,0.0,0.0,0.0,0.0,0.0,-0.0295,-0.1597,-0.2016,-0.2352,-0.3692,-0.4695,-0.5574,-0.6491,-0.67,-0.7097,-0.8619,-0.9009,-0.9803,-1.2283,-1.2815,-1.3179,-1.4122,-1.4299,-1.4299,-1.4299,-1.4299,-1.4299,-1.4299,-1.4299,-1.4299,-1.4299,-1.4299,-1.4299,-1.4299,-1.4299,-1.4299,-1.4299,-1.4299,-1.4299,-1.4299,-1.4299,-1.385,-1.2907,-1.2863,-1.237,-1.1433,-1.1433,-1.1433,-1.1433,-1.1433,-1.1433,1.7489,1.7488,1.6899,1.5106,1.4344,1.3228,1.0173,0.9228,0.8683,0.7551,0.7253,0.7219,0.7285,0.7428,0.7645,0.7959,0.8392,0.8866,0.9349,0.9737,1.013,1.046,1.0629,1.0819,1.1077,1.1213,1.1124,1.076,1.0743,0.9903,0.7941,0.9141,0.9249,0.7869,0.7291,0.6315,0.4939,0.4361,0.3388,0.2041,0.2041,0.1341,0.0,0.0,0.0,0.0,0.0,0.0,0.0,0.0,0.0,0.0,0.0,0.0,0.0,0.0,0.0,0.0,0.0,0.0,-0.0125,-0.0797,-0.0547,-0.0253,-0.1597,-0.1513,-0.1304,-0.2855,-0.3818,-0.4905,-0.7118,-0.7706,-0.7831,-0.854,-0.8665,-0.9161,-1.0959,-1.1399,-1.2029,-1.379,-1.4224,-1.4299,-1.4299,-1.4299,-1.4299,-1.4299,-1.4299,-1.4299,-1.4299,-1.4299,-1.4299,-1.4299,-1.4299,-1.4299,-1.4299,-1.4299,-1.4299,-1.4299,-1.4299,-1.4299,-1.4299,-1.4299,-1.4299,-1.4299,-1.4299,-1.4299,-1.4299,-1.4299,-1.4299,-1.4299,-1.4299,-1.4299,1.6647,1.6714,1.6034,1.3147,1.2344,1.1453,0.8495,0.7468,0.7121,0.7098,0.6891,0.6797,0.7045,0.7272,0.7539,0.7946,0.8392,0.8866,0.9349,0.9737,1.013,1.046,1.0629,1.0745,1.0901,1.1212,1.0657,0.8873,0.8739,0.7869,0.5917,0.5844,0.5844,0.5844,0.3959,0.2945,0.2945,0.102,0.0037,0.0038,0.0038,0.0038,0.0,0.0,0.0,0.0,0.0,0.0,0.0,0.0,0.0,0.0,0.0,0.0,0.0,0.0,0.0,0.0,0.0,0.0,-0.0379,-0.2645,-0.1849,-0.0842,-0.5282,-0.5072,-0.3273,-0.3273,-0.4905,-0.7205,-0.9462,-1.0003,-1.0549,-1.2768,-1.3321,-1.3395,-1.3691,-1.3752,-1.3889,-1.4238,-1.4299,-1.4299,-1.4299,-1.4299,-1.4299,-1.4299,-1.4299,-1.4299,-1.4299,-1.4299,-1.4299,-1.4299,-1.4299,-1.4299,-1.4299,-1.4299,-1.4299,-1.4299,-1.4299,-1.4299,-1.4299,-1.4299,-1.4299,-1.4299,-1.4299,-1.4299,-1.4299,-1.4299,-1.4299,-1.4299,-1.4299,-1.4299,1.4691,1.4119,1.2994,1.1323,1.0739,0.999,0.7818,0.72,0.7033,0.6749,0.6627,0.6627,0.6803,0.7019,0.731,0.7661,0.8201,0.8676,0.9,0.9521,0.9974,1.031,1.063,1.0386,0.9245,0.9293,0.8652,0.6853,0.6713,0.5881,0.3923,0.3814,0.3814,0.3814,0.3234,0.2256,0.0947,0.0292,0.0,0.0,0.0,0.0,0.0,0.0,0.0,0.0,0.0,0.0,0.0,0.0,0.0,0.0,0.0,0.0,0.0,0.0,0.0,-0.0203,-0.1787,-0.2308,-0.2687,-0.4947,-0.5156,-0.4863,-0.6285,-0.5114,-0.3944,-0.708,-0.9545,-1.1469,-1.2181,-1.2347,-1.2519,-1.3231,-1.3403,-1.3485,-1.3734,-1.3795,-1.3889,-1.4238,-1.4299,-1.4299,-1.4299,-1.4299,-1.4299,-1.4299,-1.4299,-1.4299,-1.4299,-1.4299,-1.4299,-1.4299,-1.4299,-1.4299,-1.4299,-1.4299,-1.4299,-1.4299,-1.4299,-1.4299,-1.4299,-1.4299,-1.4299,-1.4299,-1.4299,-1.4299,-1.4299,-1.4299,-1.4299,-1.4299,-1.4299,-1.4299,1.275,1.2376,1.1449,1.023,0.9729,0.9102,0.7471,0.6985,0.681,0.6552,0.647,0.6477,0.6661,0.6918,0.7215,0.755,0.8092,0.8587,0.8865,0.942,0.9693,0.9446,0.9082,0.8408,0.7382,0.734,0.665,0.486,0.4721,0.3853,0.1892,0.1819,0.1819,0.1819,0.1819,0.1239,0.0,0.0,0.0,0.0,0.0,0.0,0.0,0.0,0.0,0.0,0.0,0.0,0.0,0.0,0.0,0.0,0.0,0.0,0.0,0.0,-0.0558,-0.1503,-0.2921,-0.3952,-0.503,-0.7243,-0.854,-0.9082,-0.8207,-0.6951,-0.662,-1.0299,-1.2353,-1.3403,-1.3403,-1.3403,-1.3403,-1.3403,-1.3403,-1.3485,-1.3734,-1.3795,-1.3889,-1.4238,-1.4299,-1.4299,-1.4299,-1.4299,-1.4299,-1.4299,-1.4299,-1.4299,-1.4299,-1.4299,-1.4299,-1.4299,-1.4299,-1.4299,-1.4299,-1.4299,-1.4299,-1.4299,-1.4299,-1.4299,-1.4299,-1.4299,-1.4299,-1.4299,-1.4299,-1.4299,-1.4299,-1.4299,-1.4299,-1.4299,-1.4299,-1.4299,0.0,1.1179,1.0899,0.9665,0.9148,0.8653,0.7357,0.679,0.0,0.6484,0.6402,0.6402,0.6647,0.6931,0.7229,0.755,0.8092,0.8587,0.8865,0.9316,0.9274,0.831,0.6531,0.5454,0.556,0.5476,0.4656,0.2826,0.2689,0.1892,0.0109,0.0,0.0,0.0,0.0,0.0,0.0,0.0,0.0,0.0,0.0,0.0,0.0,0.0,0.0,0.0,0.0,0.0,0.0,0.0,0.0,0.0,0.0,-0.0079,-0.0236,-0.0236,-0.1671,-0.3649,-0.3811,-0.5223,-0.733,-0.9586,-1.1718,-1.2982,-1.0882,-1.0294,-1.0757,-1.281,-1.3403,-1.3403,-1.3403,-1.3403,-1.3403,-1.3403,-1.3403,-1.3485,-1.3734,-1.3795,-1.3889,-1.4238,-1.4299,-1.4299,-1.4299,-1.4299,-1.4299,-1.4299,-1.4299,-1.4299,-1.4299,-1.4299,-1.4299,-1.4299,-1.4299,-1.4299,-1.4299,-1.4299,-1.4299,-1.4299,-1.4299,-1.4299,-1.4299,-1.4299,-1.4299,-1.4299,-1.4299,-1.4299,-1.4299,-1.4299,-1.4299,-1.4299,-1.4299,-1.4299,0.7532,0.0,0.8284,0.7964,0.7837,0.7626,0.0,0.6722,0.66,0.6395,0.6409,0.6498,0.6668,0.7034,0.738,0.757,0.8092,0.8587,0.8865,0.8438,0.8593,0.9904,0.7303,0.54,0.5457,0.4202,0.2641,0.0825,0.0689,0.0474,0.0036,0.0,0.0,0.0,0.0,0.0,0.0,0.0,0.0,0.0,0.0,0.0,0.0,0.0,0.0,0.0,0.0,0.0,0.0,0.0,0.0,0.0,0.0,-0.0981,-0.2388,-0.2388,-0.3813,-0.6031,-0.7726,-0.8707,-0.9586,-1.189,-1.2982,-1.3314,-1.2768,-1.2602,-1.2727,-1.3231,-1.3403,-1.3403,-1.3403,-1.3403,-1.3403,-1.3403,-1.3403,-1.3485,-1.3734,-1.3795,-1.3889,-1.4238,-1.4299,-1.4299,-1.4299,-1.4299,-1.4299,-1.4299,-1.4299,-1.4299,-1.4299,-1.4299,-1.4299,-1.4299,-1.4299,-1.4299,-1.4299,-1.4299,-1.4299,-1.4299,-1.4299,-1.4299,-1.4299,-1.4299,-1.4299,-1.4299,-1.4299,-1.4299,-1.4299,-1.4299,-1.4299,-1.4299,-1.4299,-1.4299,0.6355,0.6729,0.7103,0.7149,0.7115,0.7021,0.6844,0.6749,0.6654,0.6512,0.6546,0.6647,0.6843,0.7156,0.7491,0.7729,0.7623,0.7384,0.7108,0.6704,0.6601,0.698,0.4593,0.2909,0.2934,0.2021,0.106,0.0072,0.0,0.0,0.0,0.0,0.0,0.0,0.0,0.0,0.0,0.0,0.0,0.0,0.0,0.0,0.0,0.0,0.0,0.0,0.0,0.0,0.0,0.0,0.0,-0.0079,-0.1059,-0.2115,-0.3208,-0.4224,-0.6029,-0.8169,-0.9381,-1.0549,-1.176,-1.2982,-1.3403,-1.3403,-1.3403,-1.3403,-1.3403,-1.3403,-1.3403,-1.3403,-1.3403,-1.3403,-1.3403,-1.3403,-1.3403,-1.3485,-1.3734,-1.3795,-1.3889,-1.4238,-1.4299,-1.4299,-1.4299,-1.4299,-1.4299,-1.4299,-1.4299,-1.4299,-1.4299,-1.4299,-1.4299,-1.4299,-1.4299,-1.4299,-1.4299,-1.4299,-1.4299,-1.4299,-1.4299,-1.4299,-1.4299,-1.4299,-1.4299,-1.4299,-1.4299,-1.4299,-1.4299,-1.4299,-1.4299,-1.4299,-1.4299,-1.4299,0.6171,0.6423,0.6681,0.6857,0.6809,0.677,0.6877,0.6809,0.6736,0.6736,0.6756,0.683,0.71,0.7319,0.757,0.7952,0.7069,0.6025,0.5026,0.4798,0.4322,0.3249,0.1277,0.0102,0.0383,0.0175,0.0,0.0,0.0,0.0,0.0,0.0,0.0,0.0,0.0,0.0,0.0,0.0,0.0,0.0,0.0,0.0,0.0,0.0,0.0,0.0,0.0,0.0,0.0,0.0,0.0,-0.0196,-0.2272,-0.3286,-0.3834,-0.5981,-0.8247,-1.0276,-1.0354,-1.1697,-1.3403,-1.3403,-1.3403,-1.3403,-1.3403,-1.3403,-1.3403,-1.3403,-1.3403,-1.3403,-1.3403,-1.3403,-1.3403,-1.3403,-1.3403,-1.3485,-1.3734,-1.3795,-1.3889,-1.4238,-1.4299,-1.4299,-1.4299,-1.4299,-1.4299,-1.4299,-1.4299,-1.4299,-1.4299,-1.4299,-1.4299,-1.4299,-1.4299,-1.4299,-1.4299,-1.4299,-1.4299,-1.4299,-1.4299,-1.4299,-1.4299,-1.4299,-1.4299,-1.4299,-1.4299,-1.4299,-1.4299,-1.4299,-1.4299,-1.4299,-1.4299,-1.4299,0.5867,0.611,0.6443,0.6809,0.6891,0.6877,0.6904,0.6891,0.687,0.687,0.6965,0.7107,0.7305,0.7556,0.7783,0.7986,0.723,0.623,0.5077,0.3737,0.3433,0.4821,0.2049,0.0609,0.2129,0.0905,0.0,0.0,0.0,0.0,0.0,0.0,0.0,0.0,0.0,0.0,0.0,0.0,0.0,0.0,0.0,0.0,0.0,0.0,0.0,0.0,0.0,0.0,0.0,0.0,0.0,-0.0196,-0.2272,-0.4224,-0.6059,-0.8167,-1.0431,-1.2547,-1.2783,-1.3108,-1.3403,-1.3403,-1.3403,-1.3403,-1.3403,-1.3403,-1.3403,-1.3403,-1.3403,-1.3403,-1.3403,-1.3403,-1.3403,-1.3403,-1.3403,-1.3485,-1.3734,-1.3795,-1.3889,-1.4238,-1.4299,-1.4299,-1.4299,-1.4299,-1.4299,-1.4299,-1.4299,-1.4299,-1.4299,-1.4299,-1.4299,-1.4299,-1.4299,-1.4299,-1.4299,-1.4299,-1.4299,-1.4299,-1.4299,-1.4299,-1.4299,-1.4299,-1.4299,-1.4299,-1.4299,-1.4299,-1.4299,-1.4299,-1.4299,-1.4299,-1.4299,-1.4299,0.58,0.6103,0.6484,0.6816,0.6843,0.685,0.7115,0.717,0.719,0.7249,0.7323,0.7201,0.6631,0.6639,0.6284,0.4982,0.5292,0.4902,0.2595,0.246,0.2567,0.2482,0.1009,0.0339,0.1143,0.0489,0.0,0.0,0.0,0.0,0.0,0.0,0.0,0.0,0.0,0.0,0.0,0.0,0.0,0.0,0.0,0.0,0.0,0.0,0.0,0.0,0.0,0.0,0.0,0.0,-0.0667,-0.188,-0.399,-0.6137,-0.8258,-1.0504,-1.2033,-1.3043,-1.3302,-1.3403,-1.3403,-1.3403,-1.3403,-1.3403,-1.3403,-1.3403,-1.3403,-1.3403,-1.3403,-1.3403,-1.3403,-1.3403,-1.3403,-1.3403,-1.3403,-1.3458,-1.3639,-1.3741,-1.3862,-1.4136,-1.4245,-1.4299,-1.4299,-1.4299,-1.4299,-1.4299,-1.4299,-1.4299,-1.4299,-1.4299,-1.4299,-1.4299,-1.4299,-1.4299,-1.4299,-1.4299,-1.4299,-1.4299,-1.4299,-1.4299,-1.4299,-1.4299,-1.4299,-1.4299,-1.4299,-1.4299,-1.4299,-1.4299,-1.4299,-1.4299,-1.4299,-1.4299,0.5888,0.6205,0.6573,0.687,0.687,0.6912,0.7355,0.7444,0.7491,0.7617,0.7678,0.7419,0.6556,0.6159,0.521,0.2967,0.3547,0.327,0.0393,0.1199,0.1545,0.0168,0.0,0.0,0.0,0.0,0.0,0.0,0.0,0.0,0.0,0.0,0.0,0.0,0.0,0.0,0.0,0.0,0.0,0.0,0.0,0.0,0.0,0.0,0.0,0.0,0.0,-0.0275,-0.0746,-0.0746,-0.1959,-0.4068,-0.6176,-0.8283,-1.0342,-1.2284,-1.3003,-1.3043,-1.3302,-1.3403,-1.3403,-1.3403,-1.3403,-1.3403,-1.3403,-1.3403,-1.3403,-1.3403,-1.3403,-1.3403,-1.3403,-1.3403,-1.3403,-1.3403,-1.3403,-1.3444,-1.3551,-1.37,-1.3842,-1.4041,-1.4197,-1.4299,-1.4299,-1.4299,-1.4299,-1.4299,-1.4299,-1.4299,-1.4299,-1.4299,-1.4299,-1.4299,-1.4299,-1.4299,-1.4299,-1.4299,-1.4299,-1.4299,-1.4299,-1.4299,-1.4299,-1.4299,-1.4299,-1.4299,-1.4299,-1.4299,-1.4299,-1.4299,-1.4299,-1.4299,-1.4299,-1.4299,0.619,0.6388,0.66,0.6992,0.7071,0.7168,0.7509,0.7584,0.7624,0.7767,0.7885,0.8008,0.8094,0.7192,0.598,0.4545,0.3235,0.1846,0.023,0.01,0.0135,0.0,0.0,0.0,0.0,0.0,0.0,0.0,0.0,0.0,0.0,0.0,0.0,0.0,0.0,0.0,0.0,0.0,0.0,0.0,0.0,0.0,0.0,0.0,0.0,0.0,0.0,-0.1098,-0.2897,-0.2897,-0.4146,-0.6293,-0.8361,-1.0469,-1.2341,-1.2807,-1.3003,-1.3043,-1.3302,-1.3403,-1.3403,-1.3403,-1.3403,-1.3403,-1.3403,-1.3403,-1.3403,-1.3403,-1.3403,-1.3403,-1.3403,-1.3403,-1.3403,-1.3403,-1.3403,-1.3444,-1.3551,-1.37,-1.3842,-1.4041,-1.4197,-1.4299,-1.4299,-1.4299,-1.4299,-1.4299,-1.4299,-1.4299,-1.4299,-1.4299,-1.4299,-1.4299,-1.4299,-1.4299,-1.4299,-1.4299,-1.4299,-1.4299,-1.4299,-1.4299,-1.4299,-1.4299,-1.4299,-1.4299,-1.4299,-1.4299,-1.4299,-1.4299,-1.4299,-1.4299,-1.4299,-1.4299,0.6238,0.6586,0.6953,0.7217,0.7472,0.7678,0.7824,0.7851,0.7918,0.818,0.7536,0.642,0.4689,0.3334,0.2279,0.1788,0.1207,0.0652,0.0067,0.0,0.0,0.0,0.0,0.0,0.0,0.0,0.0,0.0,0.0,0.0,0.0,0.0,0.0,0.0,0.0,0.0,0.0,0.0,0.0,0.0,0.0,0.0,0.0,0.0,0.0,-0.0079,-0.1372,-0.2388,-0.3208,-0.4537,-0.6332,-0.8439,-1.0507,-1.1798,-1.2542,-1.2887,-1.3003,-1.3043,-1.3302,-1.3403,-1.3403,-1.3403,-1.3403,-1.3403,-1.3403,-1.3403,-1.3403,-1.3403,-1.3403,-1.3403,-1.3403,-1.3403,-1.3403,-1.3403,-1.3403,-1.3417,-1.3471,-1.3632,-1.3815,-1.3919,-1.4129,-1.4299,-1.4299,-1.4299,-1.4299,-1.4299,-1.4299,-1.4299,-1.4299,-1.4299,-1.4299,-1.4299,-1.4299,-1.4299,-1.4299,-1.4299,-1.4299,-1.4299,-1.4299,-1.4299,-1.4299,-1.4299,-1.4299,-1.4299,-1.4299,-1.4299,-1.4299,-1.4299,-1.4299,-1.4299,-1.4299,-1.4299,0.639,0.6776,0.7175,0.7448,0.7756,0.8054,0.8196,0.8223,0.8155,0.7874,0.7105,0.5743,0.3294,0.2147,0.1374,0.0861,0.0358,0.0,0.0,0.0,0.0,0.0,0.0,0.0,0.0,0.0,0.0,0.0,0.0,0.0,0.0,0.0,0.0,0.0,0.0,0.0,0.0,0.0,0.0,0.0,-0.066,-0.0981,-0.0981,-0.0981,-0.1333,-0.2077,-0.3484,-0.4498,-0.5198,-0.6683,-0.8517,-1.0507,-1.1953,-1.2501,-1.2542,-1.2887,-1.3003,-1.3043,-1.3302,-1.3403,-1.3403,-1.3403,-1.3403,-1.3403,-1.3403,-1.3403,-1.3403,-1.3403,-1.3403,-1.3403,-1.3403,-1.3403,-1.3403,-1.3403,-1.3403,-1.3403,-1.3403,-1.3592,-1.3795,-1.3795,-1.4089,-1.4299,-1.4299,-1.4299,-1.4299,-1.4299,-1.4299,-1.4299,-1.4299,-1.4299,-1.4299,-1.4299,-1.4299,-1.4299,-1.4299,-1.4299,-1.4299,-1.4299,-1.4299,-1.4299,-1.4299,-1.4299,-1.4299,-1.4299,-1.4299,-1.4299,-1.4299,-1.4299,-1.4299,-1.4299,-1.4299,-1.4299,0.6742,0.6991,0.7206,0.7675,0.7905,0.811,0.8581,0.8683,0.8251,0.6618,0.6599,0.6391,0.4919,0.4757,0.4345,0.2746,0.1085,0.0,0.0,0.0,0.0,0.0,0.0,0.0,0.0,0.0,0.0,0.0,0.0,0.0,0.0,0.0,0.0,0.0,0.0,0.0,0.0,0.0,0.0,-0.0038,-0.209,-0.3091,-0.3091,-0.313,-0.4303,-0.6293,-0.6336,-0.7501,-0.9415,-0.9415,-1.0624,-1.2501,-1.2501,-1.2501,-1.2542,-1.2887,-1.3003,-1.3043,-1.3302,-1.3403,-1.3403,-1.3403,-1.3403,-1.3403,-1.3403,-1.3403,-1.3403,-1.3403,-1.3403,-1.3403,-1.3403,-1.3403,-1.3403,-1.3403,-1.3403,-1.3403,-1.3403,-1.3592,-1.3795,-1.3795,-1.4089,-1.4299,-1.4299,-1.4299,-1.4299,-1.4299,-1.4299,-1.4299,-1.4299,-1.4299,-1.4299,-1.4299,-1.4299,-1.4299,-1.4299,-1.4299,-1.4299,-1.4299,-1.4299,-1.4299,-1.4299,-1.4299,-1.4299,-1.4299,-1.4299,-1.4299,-1.4299,-1.4299,-1.4299,-1.4299,-1.4299,-1.4299,0.6776,0.7168,0.7519,0.7864,0.8135,0.8151,0.7329,0.8036,0.8146,0.5672,0.4321,0.3154,0.1675,0.1415,0.1302,0.0822,0.0332,0.0,0.0,0.0,0.0,0.0,0.0,0.0,0.0,0.0,0.0,0.0,0.0,0.0,0.0,0.0,0.0,0.0,0.0,0.0,0.0,0.0,0.0,-0.0038,-0.2091,-0.3091,-0.3169,-0.4654,-0.5708,-0.6371,-0.7855,-0.8828,-0.9532,-1.0973,-1.1953,-1.2501,-1.2501,-1.2501,-1.2542,-1.2887,-1.3003,-1.3043,-1.3302,-1.3403,-1.3403,-1.3403,-1.3403,-1.3403,-1.3403,-1.3403,-1.3403,-1.3403,-1.3403,-1.3403,-1.3403,-1.3403,-1.3403,-1.3403,-1.3403,-1.3403,-1.3403,-1.3592,-1.3795,-1.3795,-1.4089,-1.4299,-1.4299,-1.4299,-1.4299,-1.4299,-1.4299,-1.4299,-1.4299,-1.4299,-1.4299,-1.4299,-1.4299,-1.4299,-1.4299,-1.4299,-1.4299,-1.4299,-1.4299,-1.4299,-1.4299,-1.4299,-1.4299,-1.4299,-1.4299,-1.4299,-1.4299,-1.4299,-1.4299,-1.4299,-1.4299,-1.4299,0.6857,0.7276,0.7543,0.726,0.7413,0.7292,0.6058,0.6009,0.5789,0.4149,0.307,0.1908,0.0292,0.0592,0.083,0.0133,0.0,0.0,0.0,0.0,0.0,0.0,0.0,0.0,0.0,0.0,0.0,0.0,0.0,0.0,0.0,0.0,0.0,0.0,0.0,0.0,0.0,0.0,-0.0416,-0.1249,-0.3367,-0.481,-0.5666,-0.6956,-0.7972,-0.8828,-1.0075,-1.0624,-1.074,-1.1992,-1.2501,-1.2501,-1.2501,-1.2501,-1.2542,-1.2887,-1.3003,-1.3043,-1.3302,-1.3403,-1.3403,-1.3403,-1.3403,-1.3403,-1.3403,-1.3403,-1.3403,-1.3403,-1.3403,-1.3403,-1.3403,-1.3403,-1.3403,-1.3403,-1.3403,-1.3403,-1.3403,-1.3592,-1.3795,-1.3795,-1.4089,-1.4299,-1.4299,-1.4299,-1.4299,-1.4299,-1.4299,-1.4299,-1.4299,-1.4299,-1.4299,-1.4299,-1.4299,-1.4299,-1.4299,-1.4299,-1.4299,-1.4299,-1.4299,-1.4299,-1.4299,-1.4299,-1.4299,-1.4299,-1.4299,-1.4299,-1.4299,-1.4299,-1.4299,-1.4299,-1.4299,-1.4299,0.6807,0.7155,0.7151,0.6103,0.589,0.5682,0.4687,0.3204,0.211,0.2422,0.2483,0.194,0.0297,0.1333,0.1915,0.0269,0.0,0.0,0.0,0.0,0.0,0.0,0.0,0.0,0.0,0.0,0.0,0.0,0.0,0.0,0.0,0.0,0.0,0.0,0.0,0.0,0.0,-0.0187,-0.1248,-0.3136,-0.545,-0.7583,-0.9415,-0.9609,-1.0701,-1.2501,-1.2501,-1.2501,-1.2501,-1.2501,-1.2501,-1.2501,-1.2501,-1.2501,-1.2542,-1.2887,-1.3003,-1.3043,-1.3302,-1.3403,-1.3403,-1.3403,-1.3403,-1.3403,-1.3403,-1.3403,-1.3403,-1.3403,-1.3403,-1.3403,-1.3403,-1.3403,-1.3403,-1.3403,-1.3403,-1.3403,-1.3403,-1.3578,-1.3781,-1.3795,-1.4075,-1.4285,-1.4299,-1.4299,-1.4299,-1.4299,-1.4299,-1.4299,-1.4299,-1.4299,-1.4299,-1.4299,-1.4299,-1.4299,-1.4299,-1.4299,-1.4299,-1.4299,-1.4299,-1.4299,-1.4299,-1.4299,-1.4299,-1.4299,-1.4299,-1.4299,-1.4299,-1.4299,-1.4299,-1.4299,-1.4299,-1.4299,0.567,0.5773,0.5792,0.4822,0.384,0.3007,0.2792,0.1565,0.0863,0.2208,0.1462,0.0463,0.0067,0.0302,0.0437,0.0067,0.0,0.0,0.0,0.0,0.0,0.0,0.0,0.0,0.0,0.0,0.0,0.0,0.0,0.0,0.0,0.0,0.0,0.0,0.0,0.0,0.0,-0.1606,-0.2645,-0.3136,-0.6915,-0.8983,-0.9449,-1.1095,-1.2069,-1.2501,-1.2501,-1.2501,-1.2501,-1.2501,-1.2501,-1.2501,-1.2501,-1.2501,-1.2542,-1.2887,-1.3003,-1.3043,-1.3302,-1.3403,-1.3403,-1.3403,-1.3403,-1.3403,-1.3403,-1.3403,-1.3403,-1.3403,-1.3403,-1.3403,-1.3403,-1.3403,-1.3403,-1.3403,-1.3403,-1.3403,-1.3403,-1.3546,-1.3666,-1.3774,-1.3994,-1.4156,-1.4278,-1.4299,-1.4299,-1.4299,-1.4299,-1.4299,-1.4299,-1.4299,-1.4299,-1.4299,-1.4299,-1.4299,-1.4299,-1.4299,-1.4299,-1.4299,-1.4299,-1.4299,-1.4299,-1.4299,-1.4299,-1.4299,-1.4299,-1.4299,-1.4299,-1.4299,-1.4299,-1.4299,-1.4299,-1.4299,0.5204,0.5243,0.5136,0.3533,0.2151,0.1158,0.1143,0.054,0.0259,0.1137,0.0593,0.0,0.0,0.0,0.0,0.0,0.0,0.0,0.0,0.0,0.0,0.0,0.0,0.0,0.0,0.0,0.0,0.0,0.0,0.0,0.0,0.0,0.0,0.0,0.0,0.0,0.0,-0.2054,-0.3625,-0.4678,-0.7877,-0.992,-1.0934,-1.1992,-1.2501,-1.2501,-1.2501,-1.2501,-1.2501,-1.2501,-1.2501,-1.2501,-1.2501,-1.2501,-1.2542,-1.2887,-1.3003,-1.3043,-1.3302,-1.3403,-1.3403,-1.3403,-1.3403,-1.3403,-1.3403,-1.3403,-1.3403,-1.3403,-1.3403,-1.3403,-1.3403,-1.3403,-1.3403,-1.3403,-1.3403,-1.3403,-1.3403,-1.3519,-1.3632,-1.3768,-1.3966,-1.4122,-1.4272,-1.4299,-1.4299,-1.4299,-1.4299,-1.4299,-1.4299,-1.4299,-1.4299,-1.4299,-1.4299,-1.4299,-1.4299,-1.4299,-1.4299,-1.4299,-1.4299,-1.4299,-1.4299,-1.4299,-1.4299,-1.4299,-1.4299,-1.4299,-1.4299,-1.4299,-1.4299,-1.4299,-1.4299,-1.4299,0.5047,0.4828,0.4266,0.2171,0.083,0.0,0.0,0.0,0.0,0.0,0.0,0.0,0.0,0.0,0.0,0.0,0.0,0.0,0.0,0.0,0.0,0.0,0.0,0.0,0.0,0.0,0.0,0.0,0.0,0.0,0.0,0.0,0.0,0.0,0.0,-0.0146,-0.051,-0.2612,-0.4715,-0.6822,-0.8919,-1.0856,-1.2501,-1.2501,-1.2501,-1.2501,-1.2501,-1.2501,-1.2501,-1.2501,-1.2501,-1.2501,-1.2501,-1.2501,-1.2542,-1.2887,-1.3003,-1.3043,-1.3302,-1.3403,-1.3403,-1.3403,-1.3403,-1.3403,-1.3403,-1.3403,-1.3403,-1.3403,-1.3403,-1.3403,-1.3403,-1.3403,-1.3403,-1.3403,-1.3403,-1.3403,-1.3403,-1.3498,-1.3599,-1.3761,-1.3987,-1.415,-1.4278,-1.4299,-1.4299,-1.4299,-1.4299,-1.4299,-1.4299,-1.4299,-1.4299,-1.4299,-1.4299,-1.4299,-1.4299,-1.4299,-1.4299,-1.4299,-1.4299,-1.4299,-1.4299,-1.4299,-1.4299,-1.4299,-1.4299,-1.4299,-1.4299,-1.4299,-1.4299,-1.4299,-1.4299,-1.4299,0.492,0.352,0.1947,0.0594,0.0141,0.0,0.0,0.0,0.0,0.0,0.0,0.0,0.0,0.0,0.0,0.0,0.0,0.0,0.0,0.0,0.0,0.0,0.0,0.0,0.0,0.0,0.0,0.0,0.0,0.0,0.0,0.0,0.0,0.0,0.0,-0.0802,-0.2509,-0.4729,-0.6856,-0.8848,-1.1039,-1.2231,-1.2501,-1.2501,-1.2501,-1.2501,-1.2501,-1.2501,-1.2501,-1.2501,-1.2501,-1.2501,-1.2501,-1.2501,-1.2542,-1.2887,-1.3003,-1.3043,-1.3302,-1.3403,-1.3403,-1.3403,-1.3403,-1.3403,-1.3403,-1.3403,-1.3403,-1.3403,-1.3403,-1.3403,-1.3403,-1.3403,-1.3403,-1.3403,-1.3403,-1.3403,-1.3403,-1.3417,-1.3512,-1.3747,-1.4075,-1.4278,-1.4299,-1.4299,-1.4299,-1.4299,-1.4299,-1.4299,-1.4299,-1.4299,-1.4299,-1.4299,-1.4299,-1.4299,-1.4299,-1.4299,-1.4299,-1.4299,-1.4299,-1.4299,-1.4299,-1.4299,-1.4299,-1.4299,-1.4299,-1.4299,-1.4299,-1.4299,-1.4299,-1.4299,-1.4299,-1.4299,0.4,0.2261,0.0668,0.0131,0.0,0.0,0.0,0.0,0.0,0.0,0.0,0.0,0.0,0.0,0.0,0.0,0.0,0.0,0.0,0.0,0.0,0.0,0.0,0.0,0.0,0.0,0.0,0.0,0.0,0.0,0.0,0.0,0.0,0.0,0.0,-0.0947,-0.2872,-0.5175,-0.7889,-1.1073,-1.2049,-1.2501,-1.2501,-1.2501,-1.2501,-1.2501,-1.2501,-1.2501,-1.2501,-1.2501,-1.2501,-1.2501,-1.2501,-1.2501,-1.2542,-1.2887,-1.3003,-1.3043,-1.3302,-1.3403,-1.3403,-1.3403,-1.3403,-1.3403,-1.3403,-1.3403,-1.3403,-1.3403,-1.3403,-1.3403,-1.3403,-1.3403,-1.3403,-1.3403,-1.3403,-1.3403,-1.3403,-1.3403,-1.3492,-1.3741,-1.4089,-1.4299,-1.4299,-1.4299,-1.4299,-1.4299,-1.4299,-1.4299,-1.4299,-1.4299,-1.4299,-1.4299,-1.4299,-1.4299,-1.4299,-1.4299,-1.4299,-1.4299,-1.4299,-1.4299,-1.4299,-1.4299,-1.4299,-1.4299,-1.4299,-1.4299,-1.4299,-1.4299,-1.4299,-1.4299,-1.4299,-1.4299,0.2992,0.1533,0.0378,0.0076,0.0,0.0,0.0,0.0,0.0,0.0,0.0,0.0,0.0,0.0,0.0,0.0,0.0,0.0,0.0,0.0,0.0,0.0,0.0,0.0,0.0,0.0,0.0,0.0,0.0,0.0,0.0,0.0,0.0,0.0,0.0,-0.1166,-0.3597,-0.64,-0.938,-1.2501,-1.2501,-1.2501,-1.2501,-1.2501,-1.2501,-1.2501,-1.2501,-1.2501,-1.2501,-1.2501,-1.2501,-1.2501,-1.2501,-1.2501,-1.2542,-1.2887,-1.3003,-1.3043,-1.3302,-1.3403,-1.3403,-1.3403,-1.3403,-1.3403,-1.3403,-1.3403,-1.3403,-1.3403,-1.3403,-1.3403,-1.3403,-1.3403,-1.3403,-1.3403,-1.3403,-1.3403,-1.3403,-1.3458,-1.358,-1.3754,-1.4089,-1.4299,-1.4299,-1.4299,-1.4299,-1.4299,-1.4299,-1.4299,-1.4299,-1.4299,-1.4299,-1.4299,-1.4299,-1.4299,-1.4299,-1.4299,-1.4299,-1.4299,-1.4299,-1.4299,-1.4299,-1.4299,-1.4299,-1.4299,-1.4299,-1.4299,-1.4299,-1.4299,-1.4299,-1.4299,-1.4299,-1.4299,0.2137,0.1677,0.1423,0.029,0.0,0.0,0.0,0.0,0.0,0.0,0.0,0.0,0.0,0.0,0.0,0.0,0.0,0.0,0.0,0.0,0.0,0.0,0.0,0.0,0.0,0.0,0.0,0.0,0.0,0.0,0.0,0.0,0.0,0.0,0.0,-0.182,-0.5627,-0.9746,-1.2021,-1.2501,-1.2501,-1.2501,-1.2501,-1.2501,-1.2501,-1.2501,-1.2501,-1.2501,-1.2501,-1.2501,-1.2501,-1.2501,-1.2501,-1.2501,-1.2542,-1.2887,-1.3003,-1.3043,-1.3302,-1.3403,-1.3403,-1.3403,-1.3403,-1.3403,-1.3403,-1.3403,-1.3403,-1.3403,-1.3403,-1.3403,-1.3403,-1.3403,-1.3403,-1.3403,-1.3403,-1.3403,-1.3403,-1.362,-1.3781,-1.3795,-1.4089,-1.4299,-1.4299,-1.4299,-1.4299,-1.4299,-1.4299,-1.4299,-1.4299,-1.4299,-1.4299,-1.4299,-1.4299,-1.4299,-1.4299,-1.4299,-1.4299,-1.4299,-1.4299,-1.4299,-1.4299,-1.4299,-1.4299,-1.4299,-1.4299,-1.4299,-1.4299,-1.4299,-1.4299,-1.4299,-1.4299,-1.4299,0.1553,0.1041,0.054,0.0112,0.0,0.0,0.0,0.0,0.0,0.0,0.0,0.0,0.0,0.0,0.0,0.0,0.0,0.0,0.0,0.0,0.0,0.0,0.0,0.0,0.0,0.0,0.0,0.0,0.0,0.0,0.0,0.0,0.0,0.0,-0.1202,-0.3846,-0.7952,-1.0723,-1.2247,-1.2501,-1.2501,-1.2501,-1.2501,-1.2501,-1.2501,-1.2501,-1.2501,-1.2501,-1.2501,-1.2501,-1.2501,-1.2501,-1.2501,-1.2501,-1.2542,-1.2887,-1.3003,-1.3043,-1.3302,-1.3403,-1.3403,-1.3403,-1.3403,-1.3403,-1.3403,-1.3403,-1.3403,-1.3403,-1.3403,-1.3403,-1.3403,-1.3403,-1.3403,-1.3403,-1.3403,-1.3403,-1.3403,-1.3592,-1.3795,-1.3795,-1.4089,-1.4299,-1.4299,-1.4299,-1.4299,-1.4299,-1.4299,-1.4299,-1.4299,-1.4299,-1.4299,-1.4299,-1.4299,-1.4299,-1.4299,-1.4299,-1.4299,-1.4299,-1.4299,-1.4299,-1.4299,-1.4299,-1.4299,-1.4299,-1.4299,-1.4299,-1.4299,-1.4299,-1.4299,-1.4299,-1.4299,-1.4299,0.0901,0.0434,0.0,0.0,0.0,0.0,0.0,0.0,0.0,0.0,0.0,0.0,0.0,0.0,0.0,0.0,0.0,0.0,0.0,0.0,0.0,0.0,0.0,0.0,0.0,0.0,0.0,0.0,0.0,0.0,0.0,0.0,-0.0292,-0.0947,-0.2872,-0.5573,-0.9053,-1.1089,-1.2227,-1.2433,-1.2481,-1.2501,-1.2501,-1.2501,-1.2501,-1.2501,-1.2501,-1.2501,-1.2501,-1.2501,-1.2501,-1.2501,-1.2501,-1.2501,-1.2542,-1.2887,-1.3003,-1.3043,-1.3302,-1.3403,-1.3403,-1.3403,-1.3403,-1.3403,-1.3403,-1.3403,-1.3403,-1.3403,-1.3403,-1.3403,-1.3403,-1.3403,-1.3403,-1.3403,-1.3403,-1.3403,-1.3403,-1.3592,-1.3795,-1.3795,-1.4089,-1.4299,-1.4299,-1.4299,-1.4299,-1.4299,-1.4299,-1.4299,-1.4299,-1.4299,-1.4299,-1.4299,-1.4299,-1.4299,-1.4299,-1.4299,-1.4299,-1.4299,-1.4299,-1.4299,-1.4299,-1.4299,-1.4299,-1.4299,-1.4299,-1.4299,-1.4299,-1.4299,-1.4299,-1.4299,-1.4299,-1.4299,0.0,0.0,0.0,0.0,0.0,0.0,0.0,0.0,0.0,0.0,0.0,0.0,0.0,0.0,0.0,0.0,0.0,0.0,0.0,0.0,0.0,0.0,0.0,0.0,0.0,0.0,0.0,0.0,0.0,0.0,0.0,-0.0036,-0.0984,-0.2909,-0.4866,-0.6902,-0.8982,-1.1045,-1.2179,-1.2291,-1.2433,-1.2501,-1.2501,-1.2501,-1.2501,-1.2501,-1.2501,-1.2501,-1.2501,-1.2501,-1.2501,-1.2501,-1.2501,-1.2508,-1.2549,-1.2887,-1.3003,-1.305,-1.3302,-1.3403,-1.3403,-1.3403,-1.3403,-1.3403,-1.3403,-1.3403,-1.3403,-1.3403,-1.3403,-1.3403,-1.3403,-1.3403,-1.3403,-1.3403,-1.3403,-1.3403,-1.3403,-1.3592,-1.3795,-1.3795,-1.4089,-1.4299,-1.4299,-1.4299,-1.4299,-1.4299,-1.4299,-1.4299,-1.4299,-1.4299,-1.4299,-1.4299,-1.4299,-1.4299,-1.4299,-1.4299,-1.4299,-1.4299,-1.4299,-1.4299,-1.4299,-1.4299,-1.4299,-1.4299,-1.4299,-1.4299,-1.4299,-1.4299,-1.4299,-1.4299,-1.4299,-1.4299,0.006,0.0,0.0,0.0,0.0,0.0,0.0,0.0,0.0,0.0,0.0,0.0,0.0,0.0,0.0,0.0,0.0,0.0,0.0,0.0,0.0,0.0,0.0,0.0,0.0,0.0,0.0,0.0,0.0,0.0,0.0,-0.1347,-0.2981,-0.4939,-0.6894,-0.8905,-1.0981,-1.172,-1.2179,-1.2291,-1.2433,-1.2501,-1.2501,-1.2501,-1.2501,-1.2501,-1.2501,-1.2501,-1.2501,-1.2501,-1.2501,-1.2501,-1.2501,-1.2569,-1.2652,-1.2928,-1.3064,-1.318,-1.3336,-1.3403,-1.3403,-1.3403,-1.3403,-1.3403,-1.3403,-1.3403,-1.3403,-1.3403,-1.3403,-1.3403,-1.3403,-1.3403,-1.3403,-1.3403,-1.3403,-1.3403,-1.3403,-1.3592,-1.3795,-1.3795,-1.4089,-1.4299,-1.4299,-1.4299,-1.4299,-1.4299,-1.4299,-1.4299,-1.4299,-1.4299,-1.4299,-1.4299,-1.4299,-1.4299,-1.4299,-1.4299,-1.4299,-1.4299,-1.4299,-1.4299,-1.4299,-1.4299,-1.4299,-1.4299,-1.4299,-1.4299,-1.4299,-1.4299,-1.4299,-1.4299,-1.4299,-1.4299,0.0,0.0,0.0,0.0,0.0,0.0,0.0,0.0,0.0,0.0,0.0,0.0,0.0,0.0,0.0,0.0,0.0,0.0,0.0,0.0,0.0,0.0,0.0,0.0,0.0,0.0,0.0,0.0,0.0,0.0,0.0,-0.185,-0.3778,-0.5736,-0.7688,-0.968,-1.1705,-1.1959,-1.2145,-1.2234,-1.2406,-1.2501,-1.2501,-1.2501,-1.2501,-1.2501,-1.2501,-1.2501,-1.2501,-1.2501,-1.2501,-1.2501,-1.2501,-1.2596,-1.2713,-1.2941,-1.3091,-1.3234,-1.3349,-1.3403,-1.3403,-1.3403,-1.3403,-1.3403,-1.3403,-1.3403,-1.3403,-1.3403,-1.3403,-1.3403,-1.3403,-1.3403,-1.3403,-1.3403,-1.3403,-1.3417,-1.3485,-1.3632,-1.3795,-1.3795,-1.4089,-1.4299,-1.4299,-1.4299,-1.4299,-1.4299,-1.4299,-1.4299,-1.4299,-1.4299,-1.4299,-1.4299,-1.4299,-1.4299,-1.4299,-1.4299,-1.4299,-1.4299,-1.4299,-1.4299,-1.4299,-1.4299,-1.4299,-1.4299,-1.4299,-1.4299,-1.4299,-1.4299,-1.4299,-1.4299,-1.4299,-1.4299,0.0,0.0,0.0,0.0,0.0,0.0,0.0,0.0,0.0,0.0,0.0,0.0,0.0,0.0,0.0,0.0,0.0,0.0,0.0,0.0,0.0,0.0,0.0,0.0,0.0,0.0,0.0,0.0,0.0,0.0,0.0,-0.2057,-0.4025,-0.5736,-0.7905,-0.9867,-1.1584,-1.1911,-1.2098,-1.2104,-1.2359,-1.2501,-1.2501,-1.2501,-1.2501,-1.2501,-1.2501,-1.2501,-1.2501,-1.2501,-1.2501,-1.2501,-1.2501,-1.2603,-1.2733,-1.2948,-1.3105,-1.3261,-1.3356,-1.3403,-1.3403,-1.3403,-1.3403,-1.3403,-1.3403,-1.3403,-1.3403,-1.3403,-1.3403,-1.3403,-1.3403,-1.3403,-1.3403,-1.3403,-1.3403,-1.3444,-1.3551,-1.37,-1.3802,-1.3822,-1.4102,-1.4299,-1.4299,-1.4299,-1.4299,-1.4299,-1.4299,-1.4299,-1.4299,-1.4299,-1.4299,-1.4299,-1.4299,-1.4299,-1.4299,-1.4299,-1.4299,-1.4299,-1.4299,-1.4299,-1.4299,-1.4299,-1.4299,-1.4299,-1.4299,-1.4299,-1.4299,-1.4299,-1.4299,-1.4299,-1.4299,-1.4299,0.0,0.0,0.0,0.0,0.0,0.0,0.0,0.0,0.0,0.0,0.0,0.0,0.0,0.0,0.0,0.0,0.0,0.0,0.0,0.0,0.0,0.0,0.0,0.0,0.0,0.0,0.0,0.0,0.0,0.0,0.0,-0.3323,-0.5424,-0.5772,-0.9213,-1.1217,-1.1584,-1.1911,-1.2098,-1.2104,-1.2359,-1.2501,-1.2501,-1.2501,-1.2501,-1.2501,-1.2501,-1.2501,-1.2501,-1.2501,-1.2501,-1.2501,-1.2501,-1.2671,-1.2962,-1.2989,-1.3166,-1.3363,-1.339,-1.3403,-1.3403,-1.3403,-1.3403,-1.3403,-1.3403,-1.3403,-1.3403,-1.3403,-1.3403,-1.3403,-1.3403,-1.3403,-1.3403,-1.3403,-1.3403,-1.3444,-1.3551,-1.37,-1.3835,-1.4,-1.4177,-1.4299,-1.4299,-1.4299,-1.4299,-1.4299,-1.4299,-1.4299,-1.4299,-1.4299,-1.4299,-1.4299,-1.4299,-1.4299,-1.4299,-1.4299,-1.4299,-1.4299,-1.4299,-1.4299,-1.4299,-1.4299,-1.4299,-1.4299,-1.4299,-1.4299,-1.4299,-1.4299,-1.4299,-1.4299,-1.4299,-1.4299,0.0,0.0,0.0,0.0,0.0,0.0,0.0,0.0,0.0,0.0,0.0,0.0,0.0,0.0,0.0,0.0,0.0,0.0,0.0,0.0,0.0,0.0,0.0,0.0,0.0,0.0,0.0,0.0,0.0,-0.0383,-0.1295,-0.4175,-0.6211,-0.7111,-1.0054,-1.1584,-1.1584,-1.1911,-1.2098,-1.2104,-1.2359,-1.2501,-1.2501,-1.2501,-1.2501,-1.2501,-1.2501,-1.2501,-1.2501,-1.2501,-1.2501,-1.2501,-1.2501,-1.2691,-1.3003,-1.3003,-1.3186,-1.3403,-1.3403,-1.3403,-1.3403,-1.3403,-1.3403,-1.3403,-1.3403,-1.3403,-1.3403,-1.3403,-1.3403,-1.3403,-1.3403,-1.3403,-1.3403,-1.3403,-1.3403,-1.3464,-1.3646,-1.3747,-1.3869,-1.4143,-1.4245,-1.4299,-1.4299,-1.4299,-1.4299,-1.4299,-1.4299,-1.4299,-1.4299,-1.4299,-1.4299,-1.4299,-1.4299,-1.4299,-1.4299,-1.4299,-1.4299,-1.4299,-1.4299,-1.4299,-1.4299,-1.4299,-1.4299,-1.4299,-1.4299,-1.4299,-1.4299,-1.4299,-1.4299,-1.4299,-1.4299,-1.4299,0.0,0.0,0.0,0.0,0.0,0.0,0.0,0.0,0.0,0.0,0.0,0.0,0.0,0.0,0.0,0.0,0.0,0.0,0.0,0.0,0.0,0.0,0.0,0.0,0.0,0.0,0.0,0.0,0.0,-0.0787,-0.2605,-0.4657,-0.6634,-0.8459,-1.0525,-1.1584,-1.1584,-1.1911,-1.2098,-1.2104,-1.2359,-1.2501,-1.2501,-1.2501,-1.2501,-1.2501,-1.2501,-1.2501,-1.2501,-1.2501,-1.2501,-1.2501,-1.2501,-1.2691,-1.3003,-1.3003,-1.3186,-1.3403,-1.3403,-1.3403,-1.3403,-1.3403,-1.3403,-1.3403,-1.3403,-1.3403,-1.3403,-1.3403,-1.3403,-1.3403,-1.3403,-1.3403,-1.3403,-1.3403,-1.3403,-1.3485,-1.3734,-1.3795,-1.3889,-1.4238,-1.4299,-1.4299,-1.4299,-1.4299,-1.4299,-1.4299,-1.4299,-1.4299,-1.4299,-1.4299,-1.4299,-1.4299,-1.4299,-1.4299,-1.4299,-1.4299,-1.4299,-1.4299,-1.4299,-1.4299,-1.4299,-1.4299,-1.4299,-1.4299,-1.4299,-1.4299,-1.4299,-1.4299,-1.4299,-1.4299,-1.4299,-1.4299,0.0,0.0,0.0,0.0,0.0,0.0,0.0,0.0,0.0,0.0,0.0,0.0,0.0,0.0,0.0,0.0,0.0,0.0,0.0,0.0,0.0,0.0,0.0,0.0,0.0,0.0,0.0,0.0,0.0,-0.078,-0.2603,-0.4687,-0.6644,-0.8454,-1.0525,-1.1584,-1.1584,-1.1911,-1.2098,-1.2104,-1.2359,-1.2501,-1.2501,-1.2501,-1.2501,-1.2501,-1.2501,-1.2501,-1.2501,-1.2501,-1.2501,-1.2501,-1.2501,-1.2691,-1.3003,-1.3003,-1.3186,-1.3403,-1.3403,-1.3403,-1.3403,-1.3403,-1.3403,-1.3403,-1.3403,-1.3403,-1.3403,-1.3403,-1.3403,-1.3403,-1.3403,-1.3403,-1.3403,-1.3403,-1.3403,-1.3485,-1.3734,-1.3795,-1.3889,-1.4238,-1.4299,-1.4299,-1.4299,-1.4299,-1.4299,-1.4299,-1.4299,-1.4299,-1.4299,-1.4299,-1.4299,-1.4299,-1.4299,-1.4299,-1.4299,-1.4299,-1.4299,-1.4299,-1.4299,-1.4299,-1.4299,-1.4299,-1.4299,-1.4299,-1.4299,-1.4299,-1.4299,-1.4299,-1.4299,-1.4299,-1.4299,-1.4299,0.0,0.0,0.0,0.0,0.0,0.0,0.0,0.0,0.0,0.0,0.0,0.0,0.0,0.0,0.0,0.0,0.0,0.0,0.0,0.0,0.0,0.0,0.0,0.0,0.0,0.0,0.0,0.0,0.0,-0.1236,-0.4125,-0.5243,-0.7096,-0.998,-1.1057,-1.1584,-1.1584,-1.1823,-1.1972,-1.2098,-1.2277,-1.242,-1.2501,-1.2501,-1.2501,-1.2501,-1.2501,-1.2501,-1.2501,-1.2501,-1.2501,-1.2501,-1.2501,-1.2691,-1.3003,-1.3003,-1.3186,-1.3403,-1.3403,-1.3403,-1.3403,-1.3403,-1.3403,-1.3403,-1.3403,-1.3403,-1.3403,-1.3403,-1.3403,-1.3403,-1.3403,-1.3403,-1.3403,-1.3403,-1.3403,-1.3485,-1.3734,-1.3795,-1.3889,-1.4238,-1.4299,-1.4299,-1.4299,-1.4299,-1.4299,-1.4299,-1.4299,-1.4299,-1.4299,-1.4299,-1.4299,-1.4299,-1.4299,-1.4299,-1.4299,-1.4299,-1.4299,-1.4299,-1.4299,-1.4299,-1.4299,-1.4299,-1.4299,-1.4299,-1.4299,-1.4299,-1.4299,-1.4299,-1.4299,-1.4299,-1.4299,-1.4299,0.0,0.0,0.0,0.0,0.0,0.0,0.0,0.0,0.0,0.0,0.0,0.0,0.0,0.0,0.0,0.0,0.0,0.0,0.0,0.0,0.0,0.0,0.0,0.0,0.0,0.0,0.0,0.0,0.0,-0.158,-0.5195,-0.5663,-0.7465,-1.1089,-1.1457,-1.1584,-1.1584,-1.1726,-1.1911,-1.2098,-1.2254,-1.2366,-1.2501,-1.2501,-1.2501,-1.2501,-1.2501,-1.2501,-1.2501,-1.2501,-1.2501,-1.2501,-1.2501,-1.2691,-1.3003,-1.3003,-1.3186,-1.3403,-1.3403,-1.3403,-1.3403,-1.3403,-1.3403,-1.3403,-1.3403,-1.3403,-1.3403,-1.3403,-1.3403,-1.3403,-1.3403,-1.3403,-1.3403,-1.3403,-1.3403,-1.3485,-1.3734,-1.3795,-1.3889,-1.4238,-1.4299,-1.4299,-1.4299,-1.4299,-1.4299,-1.4299,-1.4299,-1.4299,-1.4299,-1.4299,-1.4299,-1.4299,-1.4299,-1.4299,-1.4299,-1.4299,-1.4299,-1.4299,-1.4299,-1.4299,-1.4299,-1.4299,-1.4299,-1.4299,-1.4299,-1.4299,-1.4299,-1.4299,-1.4299,-1.4299,-1.4299,-1.4299,0.0,0.0,0.0,0.0,0.0,0.0,0.0,0.0,0.0,0.0,0.0,0.0,0.0,0.0,0.0,0.0,0.0,0.0,0.0,0.0,0.0,0.0,0.0,0.0,0.0,0.0,0.0,0.0,0.0,-0.159,-0.5217,-0.5669,-0.7465,-1.1089,-1.1457,-1.1584,-1.1584,-1.1726,-1.1911,-1.2098,-1.2254,-1.2366,-1.2501,-1.2501,-1.2501,-1.2501,-1.2501,-1.2501,-1.2501,-1.2501,-1.2501,-1.2501,-1.2501,-1.2691,-1.3003,-1.3003,-1.3186,-1.3403,-1.3403,-1.3403,-1.3403,-1.3403,-1.3403,-1.3403,-1.3403,-1.3403,-1.3403,-1.3403,-1.3403,-1.3403,-1.3403,-1.3403,-1.3403,-1.3403,-1.3403,-1.3485,-1.3734,-1.3795,-1.3889,-1.4238,-1.4299,-1.4299,-1.4299,-1.4299,-1.4299,-1.4299,-1.4299,-1.4299,-1.4299,-1.4299,-1.4299,-1.4299,-1.4299,-1.4299,-1.4299,-1.4299,-1.4299,-1.4299,-1.4299,-1.4299,-1.4299,-1.4299,-1.4299,-1.4299,-1.4299,-1.4299,-1.4299,-1.4299,-1.4299,-1.4299,-1.4299,-1.4299,0.0,0.0,0.0,0.0,0.0,0.0,0.0,0.0,0.0,0.0,0.0,0.0,0.0,0.0,0.0,0.0,0.0,0.0,0.0,0.0,0.0,0.0,0.0,0.0,0.0,0.0,0.0,0.0,0.0,-0.1565,-0.52,-0.5571,-0.7358,-1.1082,-1.1362,-1.1518,-1.1619,-1.1631,-1.1762,-1.1911,-1.2067,-1.2254,-1.2366,-1.2461,-1.2501,-1.2501,-1.2501,-1.2501,-1.2501,-1.2501,-1.2501,-1.2501,-1.2501,-1.2691,-1.3003,-1.3003,-1.3186,-1.3403,-1.3403,-1.3403,-1.3403,-1.3403,-1.3403,-1.3403,-1.3403,-1.3403,-1.3403,-1.3403,-1.3403,-1.3403,-1.3403,-1.3403,-1.3403,-1.3403,-1.3403,-1.3485,-1.3734,-1.3795,-1.3889,-1.4238,-1.4299,-1.4299,-1.4299,-1.4299,-1.4299,-1.4299,-1.4299,-1.4299,-1.4299,-1.4299,-1.4299,-1.4299,-1.4299,-1.4299,-1.4299,-1.4299,-1.4299,-1.4299,-1.4299,-1.4299,-1.4299,-1.4299,-1.4299,-1.4299,-1.4299,-1.4299,-1.4299,-1.4299,-1.4299,-1.4299,-1.4299,-1.4299,0.0,0.0,0.0,0.0,0.0,0.0,0.0,0.0,0.0,0.0,0.0,0.0,0.0,0.0,0.0,0.0,0.0,0.0,0.0,0.0,0.0,0.0,0.0,0.0,0.0,0.0,0.0,0.0,0.0,0.0,-0.5277,-0.6083,-0.7877,-1.1008,-1.1287,-1.1436,-1.1538,-1.1592,-1.1651,-1.1793,-1.1986,-1.2179,-1.2298,-1.2433,-1.2501,-1.2501,-1.2501,-1.2501,-1.2501,-1.2501,-1.2501,-1.2501,-1.2501,-1.2691,-1.3003,-1.3003,-1.3186,-1.3403,-1.3403,-1.3403,-1.3403,-1.3403,-1.3403,-1.3403,-1.3403,-1.3403,-1.3403,-1.3403,-1.3403,-1.3403,-1.3403,-1.3403,-1.3403,-1.3403,-1.3403,-1.3485,-1.3734,-1.3795,-1.3889,-1.4238,-1.4299,-1.4299,-1.4299,-1.4299,-1.4299,-1.4299,-1.4299,-1.4299,-1.4299,-1.4299,-1.4299,-1.4299,-1.4299,-1.4299,-1.4299,-1.4299,-1.4299,-1.4299,-1.4299,-1.4299,-1.4299,-1.4299,-1.4299,-1.4299,-1.4299,-1.4299,-1.4299,-1.4299,-1.4299,-1.4299,-1.4299,-1.4299]},{"header":{"parameterUnit":"m.s-1","parameterCategory":1,"la1":30.6,"la2":29.2853,"lo1":-89.7004,"lo2":-87.6739,"dx":0.0162,"dy":0.0183,"nx":112,"ny":82,"refTime":"2022-11-28T18:00:00:Z","depth":0,"parameterNumber":3,"parameterNumberName":"V-component_of_WINDS"},"data":[0.0,0.0,0.0,0.0,0.0,0.0,0.0,0.0,0.0,0.0,0.0,0.0,0.0,0.0,0.0,0.0,0.0,0.0,0.0,0.0,0.0,0.0,0.0,0.0,0.0,0.0,0.0,0.0,0.0,0.0,0.0,0.0,0.0,0.0,0.0,0.0,0.0,0.0,0.0,0.0,0.0,0.0,0.0,0.0,0.0,0.0,0.0,0.0,0.0,0.0,0.0,0.0,0.0,0.0,0.0,0.0,0.0,0.0,0.0,0.0,0.0,0.0,0.0,0.0,0.0,0.0,0.0,0.0,0.0,0.0,0.0,0.0,0.0,0.0,0.0,0.0,0.0,0.0,0.0,0.0,0.0,0.0,0.0,0.0,0.0,0.0,0.0,0.0,0.0,0.0,3.3006,3.6633,3.9709,4.169,4.2249,4.04,3.8412,3.6469,0.0,0.0,0.0,0.0,0.0,0.0,0.0,0.0,0.0,0.0,0.0,0.0,0.0,0.0,0.0,0.0,0.0,0.0,0.0,0.0,0.0,0.0,0.0,0.0,0.0,0.0,0.0,0.0,0.0,0.0,0.0,0.0,0.0,0.0,0.0,0.0,0.0,0.0,0.0,0.0,0.0,0.0,0.0,0.0,0.0,0.0,0.0,0.0,0.0,0.0,0.0,0.0,0.0,0.0,0.0,0.0,0.0,0.0,0.0,0.0,0.0,0.0,0.0,0.0,0.0,0.0,0.0,0.0,0.0,0.0,0.0,0.0,0.0,0.0,0.0,0.0,0.0,0.0,0.0,0.0,0.0,0.0,0.0,0.0,0.0,0.0,0.0,0.0,0.0,0.0,0.0,0.0,0.0,0.0,0.0,0.0,0.0,0.0,0.0,0.0,0.0,0.0,0.0,0.0,3.4461,3.9819,4.2029,4.2919,4.2359,4.0735,3.887,3.67,0.0,0.0,0.0,0.0,0.0,0.0,0.0,0.0,0.0,0.0,0.0,0.0,0.0,0.0,0.0,0.0,0.0,0.0,0.0,0.0,0.0,0.0,0.0,0.0,0.0,0.0,0.0,0.0,0.0,0.0,0.0,0.0,0.0,0.0,0.0,0.0,0.0,0.0,0.0,0.0,0.0,0.0,0.0,0.0,0.0,0.0,0.0,0.0,0.0,0.0,0.0,0.0,0.0,0.0,0.0,0.0,0.0,0.0,0.0,0.0,0.0,0.0,0.0,0.0,0.0,0.0,0.0,0.0,0.0,0.0,0.0,0.0,0.0,0.0,0.0,0.0,0.0,0.0,0.0,0.0,0.0,0.0,0.0,0.0,0.0,0.0,0.0,0.0,0.0,0.0,0.0,0.0,0.0,0.0,0.0,0.0,0.0,0.0,0.0,0.0,0.0,0.0,0.0,3.4705,3.8347,4.2304,4.3565,4.414,4.4185,4.2411,4.037,3.8155,3.4485,0.0,0.0,0.0,0.0,0.0,0.0,0.0,0.0,0.0,0.0,0.0,0.0,0.0,0.0,0.0,0.0,0.0,0.0,0.0,0.0,0.0,0.0,0.0,0.0,0.0,0.0,0.0,0.0,0.0,0.0,0.0,0.0,0.0,0.0,0.0,0.0,0.0,0.0,0.0,0.0,0.0,0.0,0.0,0.0,0.0,0.0,0.0,0.0,0.0,0.0,0.0,0.0,0.0,0.0,0.0,0.0,0.0,0.0,0.0,0.0,0.0,0.0,0.0,0.0,0.0,0.0,0.0,0.0,0.0,0.0,0.0,0.0,0.0,0.0,0.0,0.0,0.0,0.0,0.0,0.0,0.0,0.0,0.0,0.0,0.0,0.0,0.0,0.0,0.0,0.0,0.0,0.0,0.0,0.0,0.0,0.0,0.0,0.0,0.0,0.0,0.0,0.0,3.8586,4.1683,4.3973,4.4811,4.5373,4.5788,4.3876,4.1684,3.9342,3.5919,0.0,0.0,0.0,0.0,0.0,0.0,0.0,0.0,0.0,0.0,0.0,0.0,0.0,0.0,0.0,0.0,0.0,0.0,0.0,0.0,0.0,0.0,0.0,0.0,0.0,0.0,0.0,0.0,0.0,0.0,0.0,0.0,0.0,0.0,0.0,0.0,0.0,0.0,0.0,0.0,0.0,0.0,0.0,0.0,0.0,0.0,0.0,0.0,0.0,0.0,0.0,0.0,0.0,0.0,0.0,0.0,0.0,0.0,0.0,0.0,0.0,0.0,0.0,0.0,0.0,0.0,0.0,0.0,0.0,0.0,0.0,0.0,0.0,0.0,0.0,0.0,0.0,0.0,0.0,0.0,0.0,0.0,0.0,0.0,0.0,0.0,0.0,0.0,0.0,0.0,0.0,0.0,0.0,0.0,0.0,0.0,0.0,0.0,0.0,0.0,0.0,0.0,3.977,4.2649,4.4398,4.5997,4.6601,4.5864,4.4228,4.2071,3.9366,3.6097,0.0,0.0,0.0,0.0,0.0,0.0,0.0,0.0,0.0,0.0,0.0,0.0,0.0,0.0,0.0,0.0,0.0,0.0,0.0,0.0,0.0,0.0,0.0,0.0,0.0,0.0,0.0,0.0,0.0,0.0,0.0,0.0,0.0,0.0,0.0,0.0,0.0,0.0,0.0,0.0,0.0,0.0,0.0,0.0,0.0,0.0,0.0,0.0,0.0,0.0,0.0,0.0,0.0,0.0,0.0,0.0,0.0,0.0,0.0,0.0,0.0,0.0,0.0,0.0,0.0,0.0,0.0,0.0,0.0,0.0,0.0,0.0,0.0,0.0,0.0,0.0,0.0,0.0,0.0,0.0,0.0,0.0,0.0,0.0,0.0,0.0,0.0,0.0,0.0,0.0,0.0,0.0,0.0,0.0,0.0,0.0,0.0,0.0,0.0,0.0,0.0,0.0,4.0852,4.4275,4.7008,4.7547,4.7799,4.8029,4.6002,4.3306,3.9954,0.0,0.0,0.0,0.0,0.0,0.0,0.0,0.0,0.0,0.0,0.0,0.0,0.0,0.0,0.0,0.0,0.0,0.0,0.0,0.0,0.0,0.0,0.0,0.0,0.0,0.0,0.0,0.0,0.0,0.0,0.0,0.0,0.0,0.0,0.0,0.0,0.0,0.0,0.0,0.0,0.0,0.0,0.0,0.0,0.0,0.0,0.0,0.0,0.0,0.0,0.0,0.0,0.0,0.0,0.0,0.0,0.0,0.0,0.0,0.0,0.0,0.0,0.0,0.0,0.0,0.0,0.0,0.0,0.0,0.0,0.0,0.0,0.0,0.0,0.0,0.0,0.0,0.0,0.0,0.0,0.0,0.0,0.0,0.0,0.0,0.0,0.0,0.0,0.0,0.0,0.0,0.0,0.0,0.0,0.0,0.0,0.0,0.0,0.0,0.0,0.0,0.0,3.8145,4.2232,4.5929,4.875,4.8989,4.9048,4.9356,4.7321,4.4429,4.0755,0.0,0.0,0.0,0.0,0.0,0.0,0.0,0.0,0.0,0.0,0.0,0.0,0.0,0.0,0.0,0.0,0.0,0.0,0.0,0.0,0.0,0.0,0.0,0.0,0.0,0.0,0.0,0.0,0.0,0.0,0.0,0.0,0.0,0.0,0.0,0.0,0.0,0.0,0.0,0.0,0.0,0.0,0.0,0.0,0.0,0.0,0.0,0.0,0.0,0.0,0.0,0.0,0.0,0.0,0.0,0.0,0.0,0.0,0.0,0.0,0.0,0.0,0.0,0.0,0.0,0.0,0.0,0.0,0.0,0.0,0.0,0.0,0.0,0.0,0.0,0.0,0.0,0.0,0.0,0.0,0.0,0.0,0.0,0.0,0.0,0.0,0.0,0.0,0.0,0.0,0.0,0.0,0.0,0.0,0.0,0.0,0.0,0.0,0.0,0.0,0.0,0.0,3.9385,4.3914,4.7543,4.924,5.0207,5.0361,4.951,4.7889,4.5346,0.0,0.0,0.0,0.0,0.0,0.0,0.0,0.0,0.0,0.0,0.0,0.0,0.0,0.0,0.0,0.0,0.0,0.0,0.0,0.0,0.0,0.0,0.0,0.0,0.0,0.0,0.0,0.0,0.0,0.0,0.0,0.0,0.0,0.0,0.0,0.0,0.0,0.0,0.0,0.0,0.0,0.0,0.0,0.0,0.0,0.0,0.0,0.0,0.0,0.0,0.0,0.0,0.0,0.0,0.0,0.0,0.0,0.0,0.0,0.0,0.0,0.0,0.0,0.0,0.0,0.0,0.0,0.0,0.0,0.0,0.0,0.0,0.0,0.0,0.0,0.0,0.0,0.0,0.0,0.0,0.0,0.0,0.0,0.0,0.0,0.0,0.0,0.0,0.0,0.0,0.0,0.0,0.0,0.0,0.0,0.0,0.0,0.0,0.0,0.0,0.0,0.0,0.0,4.0169,4.475,4.862,5.0928,5.1933,5.2356,5.2087,4.9971,4.7065,4.3349,0.0,0.0,0.0,0.0,0.0,0.0,0.0,0.0,0.0,0.0,0.0,0.0,0.0,0.0,0.0,0.0,0.0,0.0,0.0,0.0,0.0,0.0,0.0,0.0,0.0,0.0,0.0,0.0,0.0,0.0,0.0,0.0,0.0,0.0,0.0,0.0,0.0,0.0,0.0,0.0,0.0,0.0,0.0,0.0,0.0,0.0,0.0,0.0,0.0,0.0,0.0,0.0,0.0,0.0,0.0,0.0,0.0,0.0,0.0,0.0,0.0,0.0,0.0,0.0,0.0,0.0,0.0,0.0,0.0,0.0,0.0,0.0,0.0,0.0,0.0,0.0,0.0,0.0,0.0,0.0,0.0,0.0,0.0,0.0,0.0,0.0,0.0,0.0,0.0,0.0,0.0,0.0,0.0,0.0,0.0,0.0,0.0,0.0,0.0,0.0,0.0,0.0,4.1044,4.5635,4.9582,5.2159,5.289,5.3351,5.3703,5.1395,4.8524,4.525,0.0,0.0,0.0,0.0,0.0,0.0,0.0,0.0,0.0,0.0,0.0,0.0,0.0,0.0,0.0,0.0,0.0,0.0,0.0,0.0,0.0,0.0,0.0,0.0,0.0,0.0,0.0,0.0,0.0,0.0,0.0,0.0,0.0,0.0,0.0,0.0,0.0,0.0,0.0,0.0,0.0,0.0,0.0,0.0,0.0,0.0,0.0,0.0,0.0,0.0,0.0,0.0,0.0,0.0,0.0,0.0,0.0,0.0,0.0,0.0,0.0,0.0,0.0,0.0,0.0,0.0,0.0,0.0,0.0,0.0,0.0,0.0,0.0,0.0,0.0,0.0,0.0,0.0,0.0,0.0,0.0,0.0,0.0,0.0,0.0,0.0,0.0,0.0,0.0,0.0,0.0,0.0,0.0,0.0,0.0,0.0,0.0,0.0,0.0,0.0,0.0,0.0,4.2197,4.6673,5.0625,5.3164,5.3582,5.3972,5.4664,5.2477,4.9966,4.7357,0.0,0.0,0.0,0.0,0.0,0.0,0.0,0.0,0.0,0.0,0.0,0.0,0.0,0.0,0.0,0.0,0.0,0.0,0.0,0.0,0.0,0.0,0.0,0.0,0.0,0.0,0.0,0.0,0.0,0.0,0.0,0.0,0.0,0.0,0.0,0.0,0.0,0.0,0.0,0.0,0.0,0.0,0.0,0.0,0.0,0.0,0.0,0.0,0.0,0.0,0.0,0.0,0.0,0.0,0.0,0.0,0.0,0.0,0.0,0.0,2.7303,2.5106,0.0,0.0,0.0,0.0,0.0,0.0,0.0,0.0,0.0,0.0,0.0,0.0,0.0,0.0,0.0,0.0,0.0,0.0,0.0,0.0,0.0,0.0,0.0,0.0,0.0,0.0,0.0,0.0,0.0,0.0,0.0,0.0,0.0,0.0,0.0,0.0,0.0,0.0,0.0,0.0,4.4625,4.8755,5.2351,5.4895,5.6395,5.7011,5.6516,5.4747,5.2471,4.9602,4.6676,0.0,0.0,0.0,0.0,0.0,0.0,0.0,0.0,0.0,0.0,0.0,0.0,0.0,0.0,0.0,0.0,0.0,0.0,0.0,0.0,0.0,0.0,0.0,0.0,0.0,0.0,0.0,0.0,0.0,0.0,0.0,0.0,0.0,0.0,0.0,0.0,0.0,0.0,0.0,0.0,0.0,0.0,0.0,0.0,0.0,0.0,0.0,0.0,0.0,0.0,0.0,0.0,0.0,0.0,0.0,0.0,0.0,0.0,0.0,3.0954,2.8695,0.0,0.0,0.0,0.0,0.0,0.0,0.0,0.0,0.0,0.0,0.0,0.0,0.0,0.0,0.0,0.0,0.0,0.0,0.0,0.0,0.0,0.0,0.0,0.0,0.0,0.0,0.0,0.0,0.0,0.0,0.0,0.0,0.0,0.0,0.0,0.0,0.0,0.0,0.0,0.0,4.6056,5.0017,5.3505,5.6055,5.7511,5.828,5.8209,5.6285,5.4265,5.2324,4.9211,0.0,0.0,0.0,0.0,0.0,0.0,0.0,0.0,0.0,0.0,0.0,0.0,0.0,0.0,0.0,0.0,0.0,0.0,0.0,0.0,0.0,0.0,0.0,0.0,0.0,0.0,0.0,0.0,0.0,0.0,0.0,0.0,0.0,0.0,0.0,0.0,0.0,0.0,0.0,0.0,0.0,0.0,0.0,0.0,0.0,0.0,0.0,0.0,0.0,0.0,0.0,0.0,0.0,3.5809,3.6863,3.7149,3.7738,3.8304,3.8612,3.5019,3.2889,3.183,3.0498,0.0,0.0,0.0,0.0,0.0,0.0,0.0,0.0,0.0,0.0,0.0,0.0,0.0,0.0,0.0,0.0,0.0,0.0,0.0,0.0,0.0,0.0,3.6545,3.8513,3.9467,3.9703,3.8707,0.0,0.0,0.0,0.0,0.0,0.0,0.0,0.0,0.0,0.0,0.0,4.7699,5.1314,5.4626,5.717,5.8204,5.8929,5.9473,5.755,5.5934,5.5016,5.201,4.9168,0.0,0.0,0.0,0.0,0.0,0.0,0.0,0.0,0.0,0.0,0.0,0.0,0.0,0.0,0.0,0.0,0.0,0.0,0.0,0.0,0.0,0.0,0.0,0.0,0.0,0.0,0.0,0.0,0.0,0.0,0.0,0.0,2.3397,2.3058,0.0,0.0,0.0,0.0,0.0,0.0,0.0,0.0,0.0,0.0,0.0,0.0,0.0,3.3114,3.4965,3.5882,3.7022,3.8351,3.8615,3.9463,4.0817,4.088,4.1377,4.202,4.1254,0.0,3.6053,3.549,0.0,0.0,0.0,0.0,0.0,0.0,0.0,0.0,0.0,0.0,0.0,0.0,0.0,0.0,0.0,0.0,0.0,0.0,0.0,0.0,0.0,0.0,4.1067,4.4085,4.4856,4.5393,4.6991,4.2656,3.826,3.7596,3.7506,3.7551,0.0,0.0,0.0,0.0,0.0,0.0,5.1396,5.3962,5.6357,5.8896,5.9935,6.0204,5.955,5.9204,5.8319,5.6786,5.4862,5.2669,5.013,4.6749,0.0,0.0,0.0,0.0,0.0,0.0,0.0,0.0,0.0,0.0,0.0,0.0,0.0,0.0,0.0,0.0,0.0,0.0,0.0,0.0,0.0,0.0,0.0,0.0,0.0,0.0,0.0,0.0,0.0,2.4462,2.5494,2.6078,2.6952,2.7377,0.0,0.0,0.0,0.0,0.0,0.0,0.0,0.0,0.0,3.5063,3.6395,3.7677,3.8958,4.0518,4.1625,4.2302,4.3196,4.3989,4.4646,4.513,4.5494,4.5832,4.5728,4.4509,4.2392,3.9215,3.7583,3.6944,0.0,0.0,0.0,0.0,3.5495,3.5532,3.5892,3.5789,3.5569,3.5892,0.0,0.0,0.0,0.0,0.0,0.0,0.0,4.023,4.2662,4.4195,4.5671,4.7806,4.8692,4.9351,5.0557,4.8692,4.607,4.3591,4.2326,4.1812,4.2365,4.3124,0.0,0.0,0.0,5.0615,5.3067,5.5591,5.7742,5.9319,6.0281,6.0666,6.0242,5.9781,5.9204,5.8434,5.6824,5.4977,5.2938,5.0014,4.7052,0.0,0.0,0.0,0.0,0.0,0.0,0.0,0.0,0.0,0.0,0.0,0.0,0.0,0.0,0.0,0.0,0.0,0.0,0.0,0.0,0.0,0.0,0.0,0.0,0.0,0.0,0.0,0.0,2.6519,2.7755,2.8922,2.981,3.0321,0.0,0.0,0.0,0.0,0.0,0.0,3.472,3.6343,3.7764,3.886,4.0787,4.2075,4.2636,4.4626,4.5617,4.5654,4.6819,4.7516,4.7746,4.8379,4.8746,4.892,4.871,4.8306,4.7397,4.3014,4.1198,4.1014,4.0073,3.9803,3.9937,3.9937,4.0047,4.0259,4.0487,4.0553,4.0598,4.0773,4.07,4.0414,3.9835,0.0,0.0,0.0,0.0,4.4644,4.6617,4.8273,4.9788,5.1122,5.2051,5.2794,5.3436,5.3536,5.2525,4.9187,4.7373,4.6694,4.7491,4.813,0.0,4.9672,5.1834,5.3766,5.4866,5.7128,5.8934,5.9742,6.0396,6.0787,6.0787,6.0204,5.9819,5.9819,5.844,5.6978,5.5511,5.3208,5.0592,4.7591,0.0,0.0,0.0,0.0,0.0,0.0,0.0,0.0,0.0,0.0,0.0,0.0,0.0,0.0,0.0,0.0,0.0,0.0,0.0,0.0,0.0,0.0,0.0,0.0,0.0,0.0,0.0,0.0,0.0,3.0963,3.352,0.0,0.0,0.0,0.0,3.5936,3.6621,3.7953,3.9914,4.0112,4.1469,4.4224,4.5159,4.6003,4.6782,4.7672,4.8113,4.8113,4.8186,4.8673,4.95,4.9537,4.9968,5.0618,4.9858,4.95,4.9344,4.747,4.5819,4.4443,4.4389,4.392,4.3249,4.3249,4.3754,4.4516,4.5259,4.5553,4.5663,4.6425,4.6168,4.5516,4.548,4.6021,0.0,0.0,4.7976,4.9454,5.0325,5.1518,5.2881,5.4485,5.5226,5.5897,5.709,5.6428,5.5011,5.2851,5.2575,5.2659,5.2384,0.0,5.2685,5.3519,5.4454,5.5797,5.7807,5.8885,5.9781,6.0627,6.0781,6.0787,6.0787,6.0748,6.0748,6.0748,5.9896,5.8973,5.8121,5.6395,5.4626,5.2851,4.9505,0.0,0.0,0.0,0.0,0.0,0.0,0.0,0.0,0.0,0.0,0.0,0.0,0.0,0.0,0.0,0.0,0.0,0.0,0.0,0.0,0.0,0.0,0.0,0.0,0.0,0.0,0.0,0.0,3.5732,3.7059,0.0,3.7733,3.9094,3.9886,3.9643,4.1117,4.2605,4.388,4.4428,4.5407,4.6975,4.7829,4.8673,4.9471,5.0288,5.0949,5.1453,5.1977,5.238,5.2721,5.3235,5.3602,5.3859,5.3602,5.3162,5.2648,5.205,4.9911,4.7012,4.7012,4.6838,4.6581,4.6581,4.7131,4.7875,4.8132,4.8563,4.9114,4.9397,4.9287,4.904,4.904,4.926,4.9669,5.0454,5.151,5.2624,5.3742,5.5134,5.645,5.7335,5.8084,5.878,5.9518,5.9313,5.8968,5.8787,5.6425,5.4462,5.4599,5.5121,5.5543,5.5844,5.7072,5.8452,5.9731,6.0633,6.1473,6.232,6.2397,6.2397,6.2397,6.2397,6.2397,6.2397,6.2121,6.132,5.9973,5.8781,5.7088,5.4857,5.2549,5.0125,0.0,0.0,0.0,0.0,0.0,0.0,0.0,0.0,0.0,0.0,0.0,0.0,0.0,0.0,0.0,0.0,0.0,0.0,0.0,0.0,0.0,0.0,0.0,0.0,0.0,3.5598,3.7581,3.9439,4.0193,4.0809,4.1388,4.2623,4.3404,4.3404,4.4949,4.6388,4.7498,4.8076,4.8847,4.9911,5.0765,5.1473,5.2013,5.2831,5.3482,5.4032,5.4546,5.4803,5.4803,5.5365,5.5585,5.5585,5.5585,5.5291,5.4803,5.4803,5.3225,5.0729,5.0168,4.9948,4.9948,4.9948,5.0508,5.1283,5.1667,5.2178,5.2678,5.2835,5.2902,5.2902,5.2902,5.2902,5.3088,5.3927,5.4709,5.5558,5.6392,5.7932,5.9343,5.9655,6.0485,6.1241,6.1579,6.1627,6.182,6.2403,5.9753,5.7646,5.8175,5.8742,5.9132,5.9132,6.0089,6.1012,6.1589,6.2166,6.2704,6.3237,6.3314,6.3314,6.3314,6.3314,6.3314,6.3314,6.3314,6.2814,6.1704,6.1089,5.9704,5.7478,5.5267,5.3206,5.1258,0.0,0.0,0.0,0.0,0.0,0.0,0.0,0.0,0.0,0.0,0.0,0.0,0.0,0.0,0.0,0.0,0.0,0.0,0.0,0.0,0.0,0.0,0.0,3.6408,3.8043,4.0004,4.1843,4.2965,4.4026,4.5098,4.6416,4.7186,4.7223,4.7966,4.915,5.0839,5.0912,5.1646,5.3214,5.4032,5.4436,5.4473,5.5254,5.5658,5.5658,5.5658,5.5658,5.5658,5.5658,5.5658,5.5658,5.5658,5.5658,5.5658,5.5658,5.5658,5.5511,5.3911,5.3287,5.3287,5.3272,5.3807,5.4685,5.5951,5.6396,5.6482,5.6928,5.7078,5.7078,5.7078,5.7078,5.7078,5.7132,5.7683,5.8308,5.8354,5.9892,6.1482,6.1482,6.2392,6.3314,6.3314,6.3314,6.3314,6.3352,6.2743,6.2441,6.316,6.3314,6.3314,6.3314,6.3314,0.0,6.3352,6.3352,6.3391,6.3429,6.3429,6.3468,6.3468,6.348,6.3486,6.3486,6.3454,6.3421,6.3383,6.3383,6.258,6.0854,5.7739,5.576,5.4995,0.0,0.0,0.0,0.0,0.0,0.0,0.0,0.0,0.0,0.0,0.0,0.0,0.0,0.0,0.0,0.0,0.0,0.0,0.0,0.0,0.0,3.9027,4.0899,4.0617,4.1606,4.3149,4.5408,4.5946,4.6452,4.7317,4.8348,4.915,4.9728,5.0545,5.1683,5.3335,5.3408,5.3885,5.4913,5.5144,5.5537,5.6113,5.6381,5.6748,5.7347,5.7347,5.7347,5.7347,5.7347,5.7347,5.7347,5.7347,5.7347,5.7347,5.7347,5.7347,5.72,5.5574,5.495,5.4967,5.5333,5.6163,5.7274,5.8227,5.8535,5.8562,5.8693,5.8736,5.8736,5.8736,5.8736,5.8955,5.9931,6.0358,6.0723,6.1639,6.2349,6.2766,6.2766,6.306,6.3314,6.3314,6.3314,6.3506,6.4122,6.4551,6.4512,6.3468,6.3314,6.3314,6.3314,6.3314,6.3545,6.4166,6.4782,6.5397,6.5974,6.6622,6.7006,6.7006,6.7122,6.7219,6.7219,6.6773,6.6206,6.5588,6.492,6.3522,6.1204,5.9672,5.8207,0.0,0.0,0.0,0.0,0.0,0.0,0.0,0.0,0.0,0.0,0.0,0.0,0.0,0.0,0.0,0.0,0.0,0.0,0.0,0.0,0.0,0.0,4.1662,4.3681,4.4672,4.4929,4.5773,4.7902,4.8159,4.86,4.9738,5.0618,5.1426,5.2234,5.3052,5.4069,5.5354,5.5427,5.5757,5.6576,5.6613,5.6822,5.7299,5.7299,5.7556,5.7997,5.7997,5.7997,5.7997,5.7997,5.7997,5.7997,5.7997,5.7997,5.802,5.8205,5.8304,5.8171,0.0,0.0,0.0,0.0,5.8086,5.879,5.9466,5.9674,5.9744,5.9916,5.9977,6.0053,6.0441,6.0517,6.0753,6.19,6.2184,6.2385,6.3111,6.3583,6.3852,6.3852,6.4122,6.4474,6.482,6.4897,6.5166,6.6006,6.659,0.0,6.5622,6.5429,6.5429,6.5429,6.5429,6.5622,6.6122,6.6628,6.7147,6.7716,6.823,6.8552,6.8599,6.8716,0.0,0.0,0.0,6.7998,6.7457,6.6636,0.0,0.0,0.0,6.1615,6.0368,5.9824,0.0,0.0,5.5093,5.414,0.0,0.0,0.0,0.0,0.0,0.0,0.0,0.0,0.0,0.0,0.0,0.0,0.0,0.0,0.0,0.0,4.4048,4.5948,4.8379,4.8186,4.8333,4.9821,5.0004,5.0629,5.2244,5.3041,5.3801,5.462,5.5328,5.6088,5.6884,5.6921,0.0,0.0,0.0,5.7997,5.7997,5.7997,5.7997,5.7997,5.7997,5.7997,5.7997,5.7997,5.8042,5.8063,5.8063,5.8108,5.8172,5.8611,5.8766,5.8726,5.8337,5.845,5.8913,5.9319,5.9501,5.9601,6.0014,0.0,0.0,6.0806,6.1018,6.1243,6.2018,6.2249,6.2403,6.3198,6.3468,6.3468,6.3583,6.4243,6.4897,6.4897,6.5551,6.6359,6.7096,6.725,6.7475,6.8237,6.8501,6.8565,6.8565,6.8494,6.8391,6.8391,6.8391,6.8404,6.845,6.8527,6.8663,6.8854,6.896,0.0,6.9192,6.9224,6.9236,6.9236,6.9134,6.9067,6.8986,6.8252,6.7525,6.6786,6.6087,6.5371,6.4726,6.4726,6.5195,6.5898,6.0015,5.8228,0.0,0.0,0.0,0.0,0.0,0.0,0.0,0.0,0.0,0.0,0.0,0.0,0.0,0.0,0.0,4.4929,4.6544,4.8489,5.0949,5.1709,5.215,5.248,5.248,5.3151,5.474,5.5034,5.5464,5.6271,5.6492,5.6932,5.7703,5.7776,5.785,5.7997,5.7997,5.7997,5.7997,5.7997,5.7997,5.7997,5.7997,0.0,5.7997,5.7997,5.8194,5.856,5.856,5.8766,5.9121,5.9221,5.9257,5.9248,5.9158,5.9407,5.9847,5.9924,6.0196,6.0527,6.0634,6.112,6.1747,6.1808,6.2281,6.2852,6.3006,6.3083,0.0,6.4128,6.4359,6.4512,6.5205,6.6013,6.6635,6.6635,6.7282,6.7968,6.8122,6.816,6.8199,6.8353,6.9079,6.9595,6.9595,6.8921,6.8391,6.8391,6.8391,6.8462,6.8606,6.9213,6.9702,6.9903,7.054,7.0979,7.0975,7.11,7.1158,7.1158,7.0634,7.0069,6.9405,6.9171,6.8704,6.7927,6.7732,6.7577,6.7461,6.7461,6.7851,6.8594,6.531,6.4332,0.0,0.0,0.0,0.0,0.0,0.0,0.0,0.0,0.0,0.0,0.0,4.1001,4.2608,0.0,4.5847,4.7471,4.9114,5.0729,5.238,5.3628,5.4399,5.4399,5.4399,5.4876,5.6088,5.6198,5.6528,5.7336,5.7409,5.7593,5.796,5.7997,5.7997,5.7997,5.7997,5.7997,5.7997,5.7997,5.7997,5.8008,5.8227,5.8576,5.9005,5.9254,5.9714,6.0304,6.0304,6.0444,6.0678,6.09,6.1156,6.1331,6.1331,6.1109,6.0826,6.1468,6.1832,6.205,6.205,6.2358,6.2704,6.2704,6.2974,6.3391,6.3814,6.3929,6.4122,6.5013,6.5551,6.5936,6.6404,6.7128,6.7789,6.7888,6.8231,6.8696,6.9187,6.9295,6.945,6.9871,7.0359,7.0826,7.1297,7.0931,7.0457,7.0026,6.9943,6.9992,7.008,7.0835,7.1424,7.1599,7.2391,7.2922,7.3053,7.3093,7.3147,7.3147,7.2849,7.2461,7.207,7.2031,7.1601,7.0781,7.0742,7.0547,7.0117,7.0117,7.0547,7.1328,7.0039,6.9219,0.0,0.0,0.0,0.0,0.0,0.0,0.0,3.7962,3.9071,4.0524,4.2103,4.3681,4.514,4.6718,4.837,5.0041,5.151,5.2784,5.3765,5.5023,5.5879,5.6062,5.5915,5.6161,5.6957,5.7031,5.7299,5.796,5.7997,5.7997,5.7997,5.7997,5.7997,5.7997,5.7997,5.7997,5.7997,5.8281,5.8374,5.8385,5.9041,5.9687,6.0362,6.0763,6.1335,6.2027,6.2151,6.2185,6.221,6.2582,6.2953,6.3314,6.3506,6.2932,6.2146,6.299,6.3314,6.3314,6.3314,6.3429,6.3545,6.3545,6.366,6.3942,6.4663,6.4995,6.5282,6.604,6.6829,6.7446,6.7446,6.8096,6.8778,6.8941,6.9104,6.9468,7.0297,7.0444,7.0713,7.1562,7.1784,7.2082,7.2945,7.3124,7.2891,7.2117,7.199,7.2004,7.2036,7.2669,7.3158,7.3309,7.3942,7.4431,7.4609,7.4609,7.4609,7.4609,7.4609,7.4609,7.4609,7.4609,7.4258,7.3555,7.3711,7.3555,7.3008,7.3164,7.3711,7.4531,7.4531,7.3515,3.6009,3.6494,3.7118,3.7845,3.8689,3.957,0.0,4.1735,4.3065,4.3975,4.5434,4.6828,4.7746,4.9251,5.0902,5.2517,5.3555,5.4656,5.6187,5.6554,5.6932,5.7629,5.7116,5.6969,5.7776,5.7886,5.7886,5.7997,5.7997,5.7997,5.7997,5.7997,5.7997,5.7997,5.7997,5.7997,5.7997,5.9191,5.98,5.98,6.0971,6.1579,6.1701,6.1747,6.2029,6.2552,6.296,6.313,6.313,6.3207,6.3245,6.3391,6.416,6.4372,6.4155,6.3532,6.3314,6.3314,6.3314,6.3814,6.4436,6.4436,6.4974,6.5646,6.5879,6.6462,6.714,6.7417,6.8094,6.872,6.872,6.9338,7.0,7.0021,7.0604,7.1223,7.1322,7.1364,7.1601,7.25,7.2734,7.3121,7.3981,7.4271,7.4231,7.3801,7.3717,7.3772,7.3969,7.4059,7.421,7.4412,7.4491,7.457,7.4609,7.4609,7.4609,7.4609,7.4609,7.4609,7.4609,7.4609,7.4531,7.4453,7.5195,7.5937,7.6601,7.7383,7.8203,7.8984,7.8984,7.7656,3.9085,3.935,3.979,4.0598,4.1405,4.2331,4.3608,4.4782,4.5801,4.6645,4.8113,4.9507,5.0288,5.1793,5.3261,5.4399,5.528,5.6051,5.6701,5.7189,5.7629,5.796,5.7703,5.7629,5.796,5.7997,5.7997,5.7997,5.7997,5.7997,5.7997,5.826,5.8407,5.8407,5.915,5.9592,5.9592,6.0613,6.1103,6.1103,6.191,6.2583,6.3055,6.3368,6.3858,6.4548,6.4725,6.482,6.482,6.482,6.482,6.4859,6.5205,6.5359,6.532,6.4936,6.482,6.482,6.482,6.5051,6.5351,6.5462,6.6063,6.6822,6.6992,6.7608,6.8291,6.8368,6.901,6.9672,6.9672,7.0288,7.0969,7.1061,7.1351,7.1796,7.2403,7.2569,7.2804,7.3663,7.3882,7.4207,7.5067,7.531,7.5466,7.5823,7.4993,7.4378,7.4478,7.491,7.5463,7.6054,7.6094,7.6094,7.6094,7.6562,7.6875,7.6875,7.7305,7.7578,7.7578,7.7578,7.7578,7.7578,7.793,7.8281,7.8672,7.9023,7.9375,7.9687,7.9687,7.9414,4.1654,4.1764,4.2057,4.3305,4.4048,4.4929,4.6544,4.7352,4.8003,4.881,5.0315,5.1646,5.2234,5.3812,5.5244,5.5831,5.6602,5.7152,5.7152,5.7629,5.7997,5.7997,5.7997,5.7997,5.7997,5.7997,5.7997,5.7997,5.8119,5.8172,5.8172,5.8875,5.925,5.925,6.0415,6.1018,6.1018,6.1981,6.2458,6.2466,6.3154,6.3836,6.4463,6.4788,6.5282,6.5904,6.5904,6.5904,6.5904,6.5904,6.5904,6.5904,6.5904,6.6058,6.6256,6.6278,6.6138,6.5955,6.6201,6.6314,6.6366,6.6762,6.7312,6.7863,6.8053,6.8686,6.9359,6.9394,7.0025,7.0686,7.0686,7.1149,7.1713,7.2062,7.2152,7.2438,7.3437,7.3672,7.3906,7.4805,7.4961,7.5234,7.6094,7.625,7.6484,7.7109,7.6328,7.5586,7.5351,7.6094,7.6875,7.75,7.7773,7.789,7.789,7.8476,7.8828,7.8828,7.9375,7.9687,7.9687,7.9687,7.9687,7.9687,7.9922,8.0078,8.0078,8.0312,8.0429,8.0429,8.0429,8.0742,4.2992,4.3433,4.3975,4.6342,4.6966,4.7416,4.9123,4.9454,4.9664,5.0545,5.2003,5.3141,5.3177,5.5122,5.6737,5.6737,5.7446,5.796,5.796,5.796,5.7997,5.7997,5.7997,5.7997,5.7997,5.7997,5.7997,5.7997,5.8418,5.8693,5.8693,5.9928,6.0652,6.0652,6.1425,6.1849,6.1849,6.3164,6.3856,6.3864,6.515,6.5808,6.5846,6.5859,6.5859,6.5904,6.5904,6.5904,6.5904,6.5904,6.5904,6.5904,6.5904,6.6365,6.7096,6.7297,6.6758,6.6024,6.7031,6.7358,6.7517,6.8518,6.8813,6.8879,6.9087,6.9741,7.05,7.0621,7.1289,7.1953,7.1953,7.1953,7.2187,7.3047,7.3242,7.3476,7.4375,7.457,7.4805,7.5703,7.5859,7.6133,7.6992,7.7148,7.7187,7.7187,7.7851,7.8086,7.7226,7.789,7.8437,7.8476,7.914,7.9609,7.9609,7.9648,7.9648,7.9648,7.9687,7.9687,7.9687,7.9687,7.9687,7.9687,8.0547,8.0976,8.0976,8.1797,8.2226,8.2226,8.2226,8.2226,4.4158,4.5076,4.6205,4.7562,4.8343,4.9197,5.0812,5.1179,5.1389,5.2223,5.3251,5.3995,5.3995,5.5526,5.6811,5.6811,5.7483,5.7997,5.7997,5.7997,5.7997,5.7997,5.8282,5.8471,5.8471,5.8471,5.8471,5.8471,5.9409,6.005,6.005,6.1254,6.1947,6.1947,6.3084,6.3674,6.3674,6.4719,6.5234,6.5241,6.5692,6.5904,6.5904,6.5904,6.5904,6.5942,6.6442,6.6712,6.675,6.7321,6.7552,6.7571,6.7729,6.7922,6.8192,6.8333,6.8175,6.7928,6.8276,6.8415,6.8486,6.8953,6.9502,6.999,7.0139,7.0814,7.1518,7.1562,7.1758,7.2148,7.2695,7.2851,7.3086,7.3945,7.414,7.4414,7.5273,7.5469,7.5703,7.6601,7.6758,7.6875,7.7148,7.7695,7.8242,7.8789,7.8633,7.8594,7.8828,7.9101,7.9297,7.9297,7.9531,7.9687,7.9687,8.0234,8.0547,8.0547,8.1094,8.1445,8.1445,8.1445,8.1445,8.1445,8.1719,8.1875,8.1875,8.2148,8.2304,8.2304,8.2304,8.2304,4.5764,4.6755,4.7856,4.926,5.0041,5.0812,5.2123,5.2197,5.2234,5.3031,5.3618,5.4069,5.4363,5.5464,5.6455,5.6737,5.7226,5.7666,5.796,5.8153,5.8249,5.8249,5.8673,5.9073,5.9392,5.9553,5.9581,5.9439,6.0614,6.1372,6.1372,6.2605,6.3298,6.3298,6.4443,6.5051,6.5051,6.5628,6.5904,6.5904,6.5904,6.5904,6.5904,6.6211,6.6327,6.6365,6.7205,6.7552,6.7603,6.8262,6.8503,6.8538,6.8718,6.8972,6.9269,6.9428,6.964,6.9871,6.9562,6.9484,6.9545,7.0034,7.0562,7.1036,7.1132,7.1562,7.1992,7.1992,7.2226,7.2578,7.3164,7.3515,7.3984,7.4844,7.5078,7.5312,7.6172,7.6367,7.6523,7.7109,7.7187,7.7305,7.7617,7.8359,7.9219,8.0039,7.9726,7.9453,7.9687,7.9961,8.0156,8.0156,8.0429,8.0625,8.0625,8.1133,8.1445,8.1445,8.1992,8.2304,8.2304,8.2304,8.2304,8.2304,8.2304,8.2304,8.2304,8.2304,8.2304,8.2304,8.2304,8.2304,4.7672,4.837,4.903,5.14,5.2024,5.2244,5.2957,5.2564,5.2197,5.292,5.3067,5.3324,5.4069,5.4909,5.5776,5.6573,5.6816,5.7158,5.7941,5.8461,5.8753,5.8753,5.9177,5.9819,6.0676,6.1254,6.1378,6.0925,6.2039,6.2703,6.2703,6.3954,6.4666,6.4666,6.5474,6.5904,6.5904,6.5904,6.5904,6.5904,6.5904,6.5904,6.5981,6.675,6.7141,6.7237,6.8116,6.8469,6.8514,6.8749,6.8859,6.8844,6.8992,6.9568,7.0284,7.0499,7.1076,7.162,7.0844,7.0572,7.0739,7.1677,7.1992,7.1992,7.1992,7.2031,7.207,7.207,7.2695,7.3398,7.3437,7.4062,7.4883,7.5742,7.5976,7.6172,7.7031,7.7187,7.7187,7.7187,7.7226,7.7578,7.8476,7.9258,8.0078,8.0937,8.1054,8.0781,7.9922,8.0547,8.1054,8.1054,8.1797,8.2304,8.2304,8.2304,8.2304,8.2304,8.2304,8.2304,8.2304,8.2304,8.2304,8.2304,8.2304,8.2304,8.2304,8.2304,8.2304,8.2304,8.2304,8.2304,4.8113,4.9664,5.1216,5.184,5.2454,5.2784,5.238,5.2171,5.1877,5.1499,5.1416,5.1453,5.1683,5.3121,5.4526,5.5372,5.6789,5.8063,5.8906,5.913,5.9212,5.9212,6.0202,6.0966,6.1195,6.2769,6.3737,6.3618,6.3916,6.4077,6.4077,6.5045,6.5551,6.5551,6.5788,6.5904,6.5904,6.5904,6.5904,6.5904,6.5904,6.6211,6.6789,6.7019,6.7547,6.8346,6.9148,6.961,6.979,7.0499,7.079,7.0813,7.0944,7.1109,7.1355,7.1546,7.1754,7.1871,7.1676,7.1637,7.1676,7.1914,7.1992,7.1992,7.1992,7.2461,7.2969,7.2969,7.3594,7.4414,7.5078,7.539,7.5781,7.664,7.6875,7.6914,7.7148,7.7187,7.7187,7.7187,7.7734,7.8633,8.0117,8.0547,8.0976,8.1836,8.1953,8.1875,8.1679,8.1836,8.1953,8.1953,8.2187,8.2304,8.2304,8.2304,8.2304,8.2304,8.2304,8.2304,8.2304,8.2304,8.2304,8.2304,8.2304,8.2304,8.2304,8.2304,8.2304,8.2304,8.2304,8.2304,4.9187,5.0655,5.2087,5.2454,5.2601,5.2564,5.2097,5.1179,5.0362,5.0288,4.983,4.9677,5.0351,5.1553,5.2943,5.455,5.6044,5.744,5.8655,5.9332,5.9842,6.0229,6.1131,6.2013,6.2741,6.3905,6.4743,6.5128,6.5166,6.5166,6.5166,6.5628,6.5904,6.5904,6.5904,6.5904,6.5904,6.5904,6.5904,6.5904,6.625,6.6673,6.7141,6.7939,6.8641,6.9261,7.0183,7.0685,7.0794,7.1371,7.1591,7.1604,7.175,7.1815,7.1857,7.1952,7.1992,7.1992,7.1992,7.1992,7.1992,7.1992,7.1992,7.207,7.2461,7.289,7.3398,7.375,7.4492,7.5273,7.5781,7.6172,7.6601,7.707,7.7187,7.7187,7.7187,7.7187,7.7305,7.7695,7.875,7.9882,8.073,8.1195,8.1579,8.1978,8.2049,8.2049,8.2049,8.2177,8.2304,8.2304,8.2221,8.2218,8.2304,8.222,8.2219,8.2304,8.2304,8.2304,8.2304,8.2304,8.2304,8.2304,8.2304,8.2304,8.2304,8.2304,8.2304,8.2304,8.2304,8.2304,5.0545,5.1536,5.2307,5.2884,5.2527,5.1934,5.1654,4.9899,4.8558,4.9149,4.8395,4.8025,4.9413,5.0195,5.1405,5.3761,5.504,5.6297,5.8029,5.9269,6.0342,6.1227,6.1889,6.2826,6.4282,6.4628,6.5089,6.5827,6.5904,6.5904,6.5904,6.5904,6.5904,6.5904,6.5904,6.5904,6.5904,6.5904,6.5942,6.6058,6.6794,6.7243,6.7525,6.918,7.0016,7.0174,7.1138,7.153,7.1599,7.1675,7.1746,7.1753,7.191,7.1992,7.1992,7.1992,7.1992,7.1992,7.1992,7.207,7.2187,7.2187,7.2187,7.2344,7.3203,7.3555,7.3789,7.457,7.539,7.6055,7.6055,7.664,7.7187,7.7187,7.7187,7.7187,7.7187,7.7305,7.7617,7.8475,7.9881,8.0928,8.0854,8.1462,8.1894,8.1749,8.1684,8.1684,8.1684,8.1996,8.2221,8.2221,8.2061,8.2046,8.2219,8.2059,8.2048,8.2219,8.2221,8.2221,8.2221,8.2221,8.2222,8.2264,8.2264,8.2265,8.2304,8.2304,8.2304,8.2304,8.2304,8.2304,5.1536,5.238,5.2847,5.2344,5.2097,5.1537,4.9814,4.9078,4.8558,4.7634,4.7266,4.7204,4.7505,4.9005,5.078,5.2627,5.4465,5.6544,5.8916,5.947,5.9929,6.0819,6.2213,6.3198,6.3506,6.482,6.575,6.5897,6.5904,6.5904,6.5904,6.5904,6.5904,6.5904,6.5904,6.5904,6.5904,6.5904,6.6244,6.6904,6.7183,6.8068,6.9422,6.9911,7.0593,7.1404,7.1579,7.1747,7.1906,7.1949,7.1951,7.1951,7.1992,7.1992,7.1992,7.1992,7.1992,7.1992,7.1992,7.2461,7.3086,7.3086,7.3086,7.3242,7.4101,7.4883,7.5469,7.5625,7.6289,7.6953,7.6953,7.7109,7.7187,7.7187,7.7187,7.7187,7.7187,7.7773,7.8474,7.9137,8.0062,8.093,8.1452,8.1658,8.1725,8.1727,8.1684,8.1684,8.1684,8.1743,8.1783,8.1783,8.1753,8.1789,8.1819,8.1753,8.1789,8.1819,8.1783,8.1783,8.1783,8.1783,8.1881,8.2054,8.2056,8.2124,8.2304,8.2304,8.2304,8.2304,8.2304,8.2304,5.1767,5.2601,5.2994,5.2207,5.1326,5.038,4.917,4.7905,4.6879,4.6443,4.6176,4.612,4.655,4.7617,4.9121,5.1283,5.3162,5.528,5.7824,5.8934,5.9973,6.1325,6.2204,6.3012,6.3891,6.4743,6.5397,6.5865,6.5904,6.5904,6.5904,6.5904,6.5904,6.5904,6.5904,6.5904,6.5904,6.5904,6.6381,6.7244,6.7812,6.8751,7.007,7.0692,7.1257,7.1693,7.1809,7.1908,7.1992,7.1992,7.1992,7.1992,7.1992,7.1992,7.1992,7.1992,7.1992,7.207,7.2539,7.2969,7.3437,7.4375,7.4336,7.414,7.5,7.5586,7.5976,7.6445,7.6875,7.7187,7.7187,7.7187,7.7187,7.7187,7.7187,7.7187,7.7056,7.8065,7.9021,7.9224,8.0327,8.1289,8.1504,8.1539,8.1488,8.1413,8.1389,8.1389,8.1389,8.1389,8.1475,8.166,8.1618,8.1591,8.1676,8.1614,8.1596,8.1676,8.1684,8.1684,8.1684,8.1684,8.1768,8.185,8.1852,8.1886,8.1986,8.1986,8.1986,8.1986,8.1986,8.1986,5.1463,5.2197,5.2475,5.1557,5.0335,4.9187,4.8492,4.6675,4.5225,4.5432,4.5065,4.4939,4.5708,4.6263,4.7471,5.0014,5.1818,5.3895,5.6632,5.8286,5.9896,6.1633,6.1979,6.2672,6.4166,6.4474,6.4974,6.582,6.5904,6.5904,6.5904,6.5904,6.5904,6.5904,6.5927,6.5925,6.5925,6.5996,6.6575,6.7717,6.8467,6.9391,7.0542,7.1367,7.1756,7.1758,7.191,7.1992,7.1992,7.1992,7.1992,7.1992,7.1992,7.1992,7.1992,7.1992,7.2109,7.2383,7.3047,7.3555,7.4062,7.5469,7.543,7.5039,7.5898,7.6172,7.6328,7.6992,7.7187,7.7187,7.7187,7.7187,7.7105,7.7098,7.7057,7.7085,7.7098,7.8286,7.9336,7.9314,8.056,8.1577,8.1359,8.1343,8.1291,8.11,8.1093,8.1093,8.1093,8.1093,8.1214,8.1529,8.1414,8.1407,8.1558,8.1414,8.1413,8.1563,8.1572,8.1572,8.1572,8.1572,8.16,8.1615,8.1653,8.1675,8.1684,8.1684,8.1684,8.1684,8.1684,8.1684,5.0472,5.0949,5.0718,4.9479,4.9065,4.853,4.6898,4.5753,4.4925,4.4537,4.3807,4.3513,4.4325,4.5154,4.6552,4.913,5.0928,5.3197,5.6516,5.7819,5.905,6.0704,6.1633,6.2441,6.3314,6.4122,6.4974,6.582,6.5904,6.5904,6.5904,6.5904,6.5904,6.5904,6.6019,6.6075,6.6075,6.6248,6.7164,6.8779,6.9043,6.9994,7.1565,7.1865,7.1952,7.1952,7.1992,7.1992,7.1992,7.1992,7.1992,7.1992,7.1992,7.1992,7.1992,7.1992,7.25,7.3203,7.3281,7.4336,7.5703,7.5859,7.5859,7.5937,7.6836,7.707,7.7109,7.7187,7.7187,7.7187,7.7187,7.7056,7.6872,7.6712,7.6673,7.6861,7.7542,7.8476,7.931,7.9902,8.0783,8.1353,8.1145,8.1108,8.1139,8.11,8.1093,8.1093,8.1093,8.1093,8.1124,8.1161,8.1131,8.1123,8.1161,8.1131,8.1131,8.1161,8.1168,8.1168,8.1168,8.1168,8.1256,8.1408,8.1414,8.1504,8.1684,8.1684,8.1684,8.1684,8.1684,8.1684,4.9627,4.9701,4.922,4.8975,4.8157,4.7062,4.5802,4.4854,4.3986,4.2992,4.2543,4.2427,4.2735,4.3508,4.4744,4.6783,4.8971,5.1395,5.4318,5.6324,5.8132,5.9819,6.0787,6.182,6.316,6.3622,6.4397,6.5788,6.5904,6.5952,6.6019,6.5931,6.5952,6.6019,6.6056,6.6144,6.6275,6.6354,6.7298,6.9096,6.918,7.0158,7.1865,7.1952,7.1992,7.1992,7.1992,7.1992,7.1992,7.1992,7.1992,7.1992,7.1992,7.1992,7.1992,7.1992,7.2539,7.3398,7.3906,7.4883,7.5976,7.6523,7.668,7.6758,7.7109,7.7187,7.7187,7.7054,7.7005,7.6995,7.6864,7.677,7.6712,7.66,7.6582,7.6782,7.753,7.8311,7.9121,7.9802,8.0628,8.1203,8.1124,8.1093,8.1093,8.1093,8.1093,8.1093,8.1093,8.1093,8.1093,8.1093,8.1093,8.1093,8.1093,8.1093,8.1093,8.1093,8.1093,8.1093,8.1093,8.1093,8.1131,8.1207,8.1214,8.1251,8.1349,8.1349,8.1349,8.1349,8.1349,8.1349,4.8132,4.8049,4.7638,4.7909,4.6919,4.5661,4.4957,4.3764,4.2561,4.1625,4.1004,4.0812,4.1316,4.2124,4.3355,4.5282,4.7745,5.0279,5.2851,5.5401,5.7632,5.9319,6.0281,6.1358,6.282,6.3391,6.4318,6.5845,6.5967,6.6019,6.6166,6.6089,6.6074,6.6174,6.624,6.6341,6.6457,6.6537,6.7454,6.9267,6.9267,7.0221,7.1992,7.1992,7.1992,7.1992,7.1992,7.1992,7.1992,7.1992,7.1992,7.1992,7.1992,7.1992,7.1992,7.1992,7.2695,7.3789,7.4375,7.5351,7.6367,7.6949,7.7146,7.7187,7.7054,7.7055,7.7098,7.6939,7.6858,7.6757,7.6545,7.6527,7.6514,7.6438,7.6424,7.6681,7.7668,7.8315,7.9011,7.9992,8.0669,8.1093,8.1093,8.1093,8.1093,8.1093,8.1093,8.1093,8.1093,8.1093,8.1093,8.1093,8.1093,8.1093,8.1093,8.1093,8.1093,8.1093,8.1093,8.1093,8.1093,8.1093,8.1093,8.1093,8.1093,8.1093,8.1093,8.1093,8.1093,8.1093,8.1093,8.1093,4.5736,4.592,4.5914,4.5848,4.518,4.4487,4.435,4.2354,4.0512,4.0516,3.9204,3.8546,4.0208,4.1239,4.262,4.5205,4.7745,5.0279,5.2851,5.5401,5.7632,5.9319,6.0281,6.1133,6.2018,6.3589,6.4991,6.6008,6.6104,6.6174,6.6377,6.6384,6.6384,6.6384,6.6523,6.6614,6.6614,6.6789,6.7734,6.9414,6.9414,7.0312,7.1992,7.1992,7.1992,7.1992,7.1992,7.1992,7.1992,7.1992,7.1992,7.1992,7.1992,7.1992,7.1992,7.1992,7.3086,7.4609,7.4609,7.5742,7.7147,7.6947,7.7048,7.7144,7.6732,7.6746,7.6883,7.6883,7.6757,7.6576,7.6369,7.63,7.6266,7.6045,7.6029,7.6452,7.8145,7.8492,7.9023,8.0746,8.1093,8.1093,8.1093,8.1093,8.1093,8.1093,8.1093,8.1093,8.1093,8.1093,8.1093,8.1093,8.1093,8.1093,8.1093,8.1093,8.1093,8.1093,8.1093,8.1093,8.1093,8.1093,8.1093,8.1093,8.1093,8.1093,8.1093,8.1093,8.1093,8.1093,8.1093,8.1093,4.439,4.478,4.5038,4.5205,4.4624,4.3597,4.2053,4.1093,4.0012,3.8277,3.7465,3.7465,3.8584,3.9935,4.1589,4.359,4.6509,4.9202,5.1207,5.417,5.6747,5.8473,6.0479,6.2066,6.3036,6.4095,6.517,6.6248,6.6302,6.6381,6.6525,6.6531,6.6531,6.6531,6.6562,6.668,6.679,6.6874,6.7734,6.9414,6.9414,7.0312,7.1992,7.1992,7.1992,7.1992,7.1992,7.1992,7.1992,7.1992,7.1992,7.1992,7.1992,7.1992,7.1992,7.1992,7.3086,7.457,7.4432,7.5551,7.6945,7.6755,7.6741,7.676,7.6657,7.6744,7.6852,7.6587,7.6359,7.6172,7.6101,7.6075,7.6086,7.6005,7.6015,7.6476,7.8138,7.8484,7.9023,8.0746,8.1093,8.1093,8.1093,8.1093,8.1093,8.1093,8.1093,8.1093,8.1093,8.1093,8.1093,8.1093,8.1093,8.1093,8.1093,8.1093,8.1093,8.1093,8.1093,8.1093,8.1093,8.1093,8.1093,8.1093,8.1093,8.1093,8.1093,8.1093,8.1093,8.1093,8.1093,8.1093,4.2871,4.3427,4.3681,4.3982,4.3215,4.2033,4.0806,3.9742,3.8623,3.7042,3.6462,3.6619,3.7777,3.9358,4.105,4.2816,4.5893,4.8702,5.0438,5.3592,5.6598,5.9014,6.077,6.2287,6.3557,6.4112,6.4973,6.6385,6.6473,6.6568,6.6692,6.6694,6.6694,6.6694,6.6694,6.6785,6.6914,6.7226,6.8086,6.9414,6.9726,7.0625,7.1992,7.1992,7.1992,7.1992,7.1992,7.1992,0.0,7.1992,7.1992,7.1992,7.1992,7.1992,7.1992,7.1992,7.3045,7.4477,7.4357,7.5404,7.6749,7.6533,7.6438,7.6376,7.6475,7.656,7.6628,7.63,7.6113,7.6015,7.6015,7.6015,7.6015,7.6015,7.6015,7.6476,7.8138,7.8484,7.9023,8.0746,8.1093,8.1093,8.1093,8.1093,8.1093,8.1093,8.1093,8.1093,8.1093,8.1093,8.1093,8.1093,8.1093,8.1093,8.1093,8.1093,8.1093,8.1093,8.1093,8.1093,8.1093,8.1093,8.1093,8.1093,8.1093,8.1093,8.1093,8.1093,8.1093,8.1093,8.1093,8.1093,0.0,4.1812,4.2048,4.2389,4.1264,4.0172,4.0311,3.8507,0.0,3.6657,3.6077,3.6077,3.77,3.9434,4.1127,4.2816,4.5893,4.8702,5.0438,5.369,5.7143,6.0565,6.1176,6.1948,6.3546,6.3789,6.4559,6.6385,6.6586,6.6692,6.6875,6.6914,6.6914,6.6914,6.6914,6.6914,6.6914,6.7773,6.8594,6.9414,7.0273,7.1172,7.1992,7.1992,7.1992,7.1992,7.1992,7.1992,7.1992,7.1992,7.1992,7.1992,7.1992,7.1992,7.1992,7.1992,7.2949,7.4285,7.4277,7.5288,7.6564,7.6353,7.6135,7.6048,7.6219,7.6261,7.6237,7.6038,7.6015,7.6015,7.6015,7.6015,7.6015,7.6015,7.6015,7.6476,7.8138,7.8484,7.9023,8.0746,8.1093,8.1093,8.1093,8.1093,8.1093,8.1093,8.1093,8.1093,8.1093,8.1093,8.1093,8.1093,8.1093,8.1093,8.1093,8.1093,8.1093,8.1093,8.1093,8.1093,8.1093,8.1093,8.1093,8.1093,8.1093,8.1093,8.1093,8.1093,8.1093,8.1093,8.1093,8.1093,3.7652,0.0,4.1884,4.1946,4.1652,4.0897,0.0,3.8123,3.7311,3.6038,3.6115,3.6734,3.7815,3.9892,4.1854,4.2931,4.5893,4.8702,5.0438,5.4823,5.8592,6.0602,6.1128,6.1717,6.2771,6.3572,6.4516,6.5737,6.6442,6.6834,6.6914,6.6914,6.6914,6.6914,6.6914,6.6914,6.6914,6.7773,6.8594,6.9414,7.0273,7.1172,7.1992,7.1992,7.1992,7.1992,7.1992,7.1992,7.1992,7.1992,7.1992,7.1992,7.1992,7.1907,7.1757,7.1757,7.2752,7.4051,7.3894,7.4965,7.6353,7.6147,7.6048,7.5991,7.6045,7.6072,7.6052,7.6005,7.6015,7.6015,7.6015,7.6015,7.6015,7.6015,7.6015,7.6476,7.8138,7.8484,7.9023,8.0746,8.1093,8.1093,8.1093,8.1093,8.1093,8.1093,8.1093,8.1093,8.1093,8.1093,8.1093,8.1093,8.1093,8.1093,8.1093,8.1093,8.1093,8.1093,8.1093,8.1093,8.1093,8.1093,8.1093,8.1093,8.1093,8.1093,8.1093,8.1093,8.1093,8.1093,8.1093,8.1093,3.5927,3.8042,4.0158,4.0546,4.0354,3.9815,3.8815,3.8277,3.7738,3.6811,3.7004,3.77,3.8934,4.0585,4.235,4.3974,4.6805,4.9965,5.3317,5.6911,5.9675,6.0969,6.1352,6.1963,6.3252,6.3874,6.4757,6.6094,6.664,6.6914,6.6914,6.6914,6.6914,6.6914,6.6914,6.6914,6.6914,6.8125,6.8984,6.9414,7.0703,7.1523,7.1992,7.1992,7.1992,7.1992,7.1992,7.1992,7.1992,7.1992,7.1992,7.1992,7.1906,7.1805,7.1686,7.1633,7.2562,7.3846,7.3741,7.4767,7.6128,7.6048,7.6015,7.6015,7.6015,7.6015,7.6015,7.6015,7.6015,7.6015,7.6015,7.6015,7.6015,7.6015,7.6015,7.6476,7.8138,7.8484,7.9023,8.0746,8.1093,8.1093,8.1093,8.1093,8.1093,8.1093,8.1093,8.1093,8.1093,8.1093,8.1093,8.1093,8.1093,8.1093,8.1093,8.1093,8.1093,8.1093,8.1093,8.1093,8.1093,8.1093,8.1093,8.1093,8.1093,8.1093,8.1093,8.1093,8.1093,8.1093,8.1093,8.1093,3.4888,3.6311,3.7892,3.9011,3.8742,3.8392,3.9127,3.8742,3.82,3.82,3.8315,3.8857,4.0396,4.1508,4.2931,4.5244,4.8195,5.1878,5.6731,5.8906,6.0392,6.1359,6.1627,6.2304,6.3905,6.4218,6.4961,6.6562,6.6836,6.6914,6.6914,6.6914,6.6914,6.6914,6.6914,6.6914,6.6914,6.8555,6.9414,6.9414,7.1172,7.1992,7.1992,7.1992,7.1992,7.1992,7.1992,7.1992,7.1992,7.1992,7.1992,7.1992,7.18,7.1682,7.1655,7.1508,7.2383,7.3701,7.3966,7.4912,7.6015,7.6015,7.6015,7.6015,7.6015,7.6015,7.6015,7.6015,7.6015,7.6015,7.6015,7.6015,7.6015,7.6015,7.6015,7.6476,7.8138,7.8484,7.9023,8.0746,8.1093,8.1093,8.1093,8.1093,8.1093,8.1093,8.1093,8.1093,8.1093,8.1093,8.1093,8.1093,8.1093,8.1093,8.1093,8.1093,8.1093,8.1093,8.1093,8.1093,8.1093,8.1093,8.1093,8.1093,8.1093,8.1093,8.1093,8.1093,8.1093,8.1093,8.1093,8.1093,3.3276,3.4542,3.6427,3.8742,3.9204,3.9127,3.9281,3.9204,3.9088,3.9088,3.9627,4.0435,4.1431,4.2854,4.4282,4.5436,4.9672,5.3899,5.6962,5.8983,6.0449,6.1256,6.1567,6.2067,6.2933,6.3783,6.4726,6.5703,6.6484,6.6914,6.6914,6.6914,6.6914,6.6914,6.6914,6.6914,6.6914,6.8555,6.9414,6.9414,7.1172,7.1992,7.1992,7.1992,7.1992,7.1992,7.1992,7.1992,7.1992,7.1992,7.1992,7.1992,7.18,7.1633,7.1501,7.1331,7.2219,7.3745,7.5131,7.5789,7.6015,7.6015,7.6015,7.6015,7.6015,7.6015,7.6015,7.6015,7.6015,7.6015,7.6015,7.6015,7.6015,7.6015,7.6015,7.6476,7.8138,7.8484,7.9023,8.0746,8.1093,8.1093,8.1093,8.1093,8.1093,8.1093,8.1093,8.1093,8.1093,8.1093,8.1093,8.1093,8.1093,8.1093,8.1093,8.1093,8.1093,8.1093,8.1093,8.1093,8.1093,8.1093,8.1093,8.1093,8.1093,8.1093,8.1093,8.1093,8.1093,8.1093,8.1093,8.1093,3.2891,3.4503,3.6657,3.878,3.8934,3.8973,4.0354,4.0662,4.0777,4.1243,4.1666,4.2321,4.3719,4.4587,4.6176,4.9476,5.3135,5.6389,5.8693,6.0106,6.1079,6.1473,6.1632,6.2186,6.3505,6.4021,6.4844,6.6211,6.668,6.6914,6.6914,6.6914,6.6914,6.6914,6.6914,6.6914,6.6914,6.8555,6.9414,6.9414,7.1172,7.1992,7.1992,7.1992,7.1992,7.1992,7.1992,7.1992,7.1992,7.1992,7.195,7.1811,7.1647,7.1495,7.1438,7.2169,7.288,7.3738,7.5438,7.6015,7.6015,7.6015,7.6015,7.6015,7.6015,7.6015,7.6015,7.6015,7.6015,7.6015,7.6015,7.6015,7.6015,7.6015,7.6015,7.6322,7.7599,7.8176,7.8869,8.0169,8.0785,8.1093,8.1093,8.1093,8.1093,8.1093,8.1093,8.1093,8.1093,8.1093,8.1093,8.1093,8.1093,8.1093,8.1093,8.1093,8.1093,8.1093,8.1093,8.1093,8.1093,8.1093,8.1093,8.1093,8.1093,8.1093,8.1093,8.1093,8.1093,8.1093,8.1093,8.1093,3.3391,3.508,3.7157,3.9088,3.9088,3.92,4.1581,4.2081,4.235,4.3201,4.3547,4.4186,4.5743,4.6587,4.8549,5.3277,5.5981,5.815,6.0116,6.1043,6.1582,6.1679,6.1719,6.2383,6.414,6.4297,6.5039,6.6758,6.6914,6.6914,6.6914,6.6914,6.6914,6.6914,6.6914,6.6914,6.6914,6.8594,6.9414,6.9414,7.1172,7.1992,7.1992,7.1992,7.1992,7.1992,7.1992,7.1952,7.1949,7.1949,7.1809,7.1642,7.1491,7.1317,7.1324,7.2918,7.3507,7.3738,7.5438,7.6015,7.6015,7.6015,7.6015,7.6015,7.6015,7.6015,7.6015,7.6015,7.6015,7.6015,7.6015,7.6015,7.6015,7.6015,7.6015,7.6245,7.7099,7.7946,7.8754,7.9631,8.0516,8.1093,8.1093,8.1093,8.1093,8.1093,8.1093,8.1093,8.1093,8.1093,8.1093,8.1093,8.1093,8.1093,8.1093,8.1093,8.1093,8.1093,8.1093,8.1093,8.1093,8.1093,8.1093,8.1093,8.1093,8.1093,8.1093,8.1093,8.1093,8.1093,8.1093,8.1093,3.4885,3.6,3.7311,3.9781,4.0362,4.0781,4.2585,4.3008,4.3239,4.4047,4.4859,4.571,4.6647,4.8848,5.149,5.4341,5.6431,5.833,6.0156,6.1133,6.1679,6.1719,6.1719,6.2383,6.414,6.4297,6.5039,6.6758,6.6914,6.6914,6.6914,6.6914,6.6914,6.6914,6.6914,6.6914,6.6914,6.8633,6.9453,6.9414,7.1172,7.1992,7.1992,7.1992,7.1992,7.1992,7.1992,7.1906,7.1738,7.1738,7.1638,7.1481,7.1308,7.1108,7.1125,7.2867,7.3507,7.3738,7.5438,7.6015,7.6015,7.6015,7.6015,7.6015,7.6015,7.6015,7.6015,7.6015,7.6015,7.6015,7.6015,7.6015,7.6015,7.6015,7.6015,7.6245,7.7099,7.7946,7.8754,7.9631,8.0516,8.1093,8.1093,8.1093,8.1093,8.1093,8.1093,8.1093,8.1093,8.1093,8.1093,8.1093,8.1093,8.1093,8.1093,8.1093,8.1093,8.1093,8.1093,8.1093,8.1093,8.1093,8.1093,8.1093,8.1093,8.1093,8.1093,8.1093,8.1093,8.1093,8.1093,8.1093,3.5154,3.7234,3.9431,4.0931,4.2512,4.3825,4.4513,4.4667,4.5051,4.6394,4.7413,4.8562,5.0133,5.2629,5.4953,5.6495,5.823,5.9801,6.1055,6.1484,6.1719,6.1719,6.1719,6.2383,6.414,6.4297,6.5039,6.6758,6.6914,6.6914,6.6914,6.6914,6.6914,6.6914,6.6914,6.6914,6.6914,6.8594,6.9453,6.9492,7.1172,7.1992,7.1992,7.1992,7.1992,7.1992,7.1862,7.1757,7.1686,7.1614,7.1478,7.1299,7.1103,7.0979,7.1129,7.2853,7.3507,7.3738,7.5438,7.6015,7.6015,7.6015,7.6015,7.6015,7.6015,7.6015,7.6015,7.6015,7.6015,7.6015,7.6015,7.6015,7.6015,7.6015,7.6015,7.6092,7.6399,7.7561,7.86,7.8938,8.0131,8.1093,8.1093,8.1093,8.1093,8.1093,8.1093,8.1093,8.1093,8.1093,8.1093,8.1093,8.1093,8.1093,8.1093,8.1093,8.1093,8.1093,8.1093,8.1093,8.1093,8.1093,8.1093,8.1093,8.1093,8.1093,8.1093,8.1093,8.1093,8.1093,8.1093,8.1093,3.6238,3.855,4.0819,4.2239,4.4128,4.5821,4.6629,4.6783,4.7151,4.8347,4.9769,5.1399,5.3375,5.5427,5.7249,5.8431,5.9608,6.0703,6.1562,6.1719,6.1719,6.1719,6.1719,6.2265,6.375,6.414,6.4922,6.6367,6.6758,6.6914,6.6914,6.6914,6.6914,6.6914,6.6914,6.6914,6.6914,6.8594,6.9453,6.9492,7.113,7.1907,7.1907,7.1907,7.1862,7.1845,7.1712,7.1617,7.153,7.1446,7.129,7.1103,7.0953,7.0898,7.1129,7.2853,7.3507,7.3738,7.5438,7.6015,7.6015,7.6015,7.6015,7.6015,7.6015,7.6015,7.6015,7.6015,7.6015,7.6015,7.6015,7.6015,7.6015,7.6015,7.6015,7.6015,7.6015,7.733,7.8484,7.8484,7.99,8.1093,8.1093,8.1093,8.1093,8.1093,8.1093,8.1093,8.1093,8.1093,8.1093,8.1093,8.1093,8.1093,8.1093,8.1093,8.1093,8.1093,8.1093,8.1093,8.1093,8.1093,8.1093,8.1093,8.1093,8.1093,8.1093,8.1093,8.1093,8.1093,8.1093,8.1093,3.8357,3.99,4.1131,4.3666,4.4975,4.6287,4.8822,4.9399,4.9473,4.9639,5.165,5.3998,5.5877,5.6872,5.8041,5.9898,6.0303,6.0703,6.1562,6.1719,6.1719,6.1719,6.1719,6.2031,6.293,6.3789,6.4648,6.5547,6.6406,6.6914,6.6914,6.6914,6.6914,6.6914,6.6914,6.6914,6.6914,6.8633,6.9453,6.9414,7.0946,7.1691,7.1691,7.1689,7.1629,7.1481,7.1517,7.1365,7.1216,7.1216,7.1085,7.0898,7.0898,7.0898,7.1129,7.2853,7.3507,7.3738,7.5438,7.6015,7.6015,7.6015,7.6015,7.6015,7.6015,7.6015,7.6015,7.6015,7.6015,7.6015,7.6015,7.6015,7.6015,7.6015,7.6015,7.6015,7.6015,7.733,7.8484,7.8484,7.99,8.1093,8.1093,8.1093,8.1093,8.1093,8.1093,8.1093,8.1093,8.1093,8.1093,8.1093,8.1093,8.1093,8.1093,8.1093,8.1093,8.1093,8.1093,8.1093,8.1093,8.1093,8.1093,8.1093,8.1093,8.1093,8.1093,8.1093,8.1093,8.1093,8.1093,8.1093,3.855,4.0781,4.2782,4.4744,4.6283,4.7905,4.9973,5.0379,5.1073,5.3685,5.4908,5.6083,5.7944,5.8967,5.9673,6.0268,6.0897,6.1406,6.164,6.1719,6.1719,6.1719,6.1719,6.2031,6.293,6.3789,6.4648,6.5547,6.6406,6.6914,6.6914,6.6914,6.6914,6.6914,6.6914,6.6914,6.6914,6.8594,6.9453,6.9492,7.0985,7.1691,7.1688,7.1607,7.153,7.1474,7.1366,7.1252,7.1201,7.1032,7.0953,7.0898,7.0898,7.0898,7.1129,7.2853,7.3507,7.3738,7.5438,7.6015,7.6015,7.6015,7.6015,7.6015,7.6015,7.6015,7.6015,7.6015,7.6015,7.6015,7.6015,7.6015,7.6015,7.6015,7.6015,7.6015,7.6015,7.733,7.8484,7.8484,7.99,8.1093,8.1093,8.1093,8.1093,8.1093,8.1093,8.1093,8.1093,8.1093,8.1093,8.1093,8.1093,8.1093,8.1093,8.1093,8.1093,8.1093,8.1093,8.1093,8.1093,8.1093,8.1093,8.1093,8.1093,8.1093,8.1093,8.1093,8.1093,8.1093,8.1093,8.1093,3.9011,4.1397,4.361,4.5677,4.7472,4.9347,5.1913,5.2745,5.3673,5.6253,5.7379,5.8289,5.9452,6.0309,6.0854,6.0898,6.1367,6.1719,6.1719,6.1719,6.1719,6.1719,6.1719,6.1914,6.2422,6.3594,6.4531,6.5039,6.6211,6.6914,6.6914,6.6914,6.6914,6.6914,6.6914,6.6914,6.6914,6.8555,6.9374,6.9403,7.0897,7.1596,7.1494,7.142,7.1353,7.1252,7.1126,7.1085,7.1068,7.0947,7.0898,7.0898,7.0898,7.0898,7.1129,7.2853,7.3507,7.3738,7.5438,7.6015,7.6015,7.6015,7.6015,7.6015,7.6015,7.6015,7.6015,7.6015,7.6015,7.6015,7.6015,7.6015,7.6015,7.6015,7.6015,7.6015,7.6015,7.733,7.8484,7.8484,7.99,8.1093,8.1093,8.1093,8.1093,8.1093,8.1093,8.1093,8.1093,8.1093,8.1093,8.1093,8.1093,8.1093,8.1093,8.1093,8.1093,8.1093,8.1093,8.1093,8.1093,8.1093,8.1093,8.1093,8.1093,8.1093,8.1093,8.1093,8.1093,8.1093,8.1093,8.1093,3.9615,4.1774,4.3755,4.6555,4.8629,5.0855,5.4251,5.5885,5.6875,5.7644,5.9088,6.0281,6.0468,6.1079,6.1572,6.1679,6.1719,6.1719,6.1719,6.1719,6.1719,6.1719,6.1719,6.1719,6.1719,6.3281,6.4297,6.4297,6.5898,6.6914,6.6914,6.6914,6.6914,6.6914,6.6914,6.6914,6.6914,6.8554,6.9325,6.9226,7.0728,7.1395,7.1216,7.119,7.1074,7.0898,7.0898,7.0898,7.0898,7.0898,7.0898,7.0898,7.0898,7.0898,7.1129,7.2853,7.3507,7.3738,7.5438,7.6015,7.6015,7.6015,7.6015,7.6015,7.6015,7.6015,7.6015,7.6015,7.6015,7.6015,7.6015,7.6015,7.6015,7.6015,7.6015,7.6015,7.6015,7.7253,7.8407,7.8484,7.9823,8.1016,8.1093,8.1093,8.1093,8.1093,8.1093,8.1093,8.1093,8.1093,8.1093,8.1093,8.1093,8.1093,8.1093,8.1093,8.1093,8.1093,8.1093,8.1093,8.1093,8.1093,8.1093,8.1093,8.1093,8.1093,8.1093,8.1093,8.1093,8.1093,8.1093,8.1093,3.9714,4.1909,4.3995,4.7372,5.0557,5.347,5.5594,5.7361,5.8626,5.863,5.9552,6.0584,6.1289,6.1562,6.1678,6.1719,6.1719,6.1719,6.1719,6.1719,6.1719,6.1719,6.1719,6.1719,6.1719,6.3281,6.4297,6.4297,6.5898,6.6914,6.6914,6.6914,6.6914,6.6914,6.6914,6.6914,6.6914,6.8458,6.9246,6.9226,7.06,7.1233,7.1172,7.1053,7.0934,7.0898,7.0898,7.0898,7.0898,7.0898,7.0898,7.0898,7.0898,7.0898,7.1129,7.2853,7.3507,7.3738,7.5438,7.6015,7.6015,7.6015,7.6015,7.6015,7.6015,7.6015,7.6015,7.6015,7.6015,7.6015,7.6015,7.6015,7.6015,7.6015,7.6015,7.6015,7.6015,7.6823,7.7753,7.8369,7.9361,8.0285,8.0977,8.1093,8.1093,8.1093,8.1093,8.1093,8.1093,8.1093,8.1093,8.1093,8.1093,8.1093,8.1093,8.1093,8.1093,8.1093,8.1093,8.1093,8.1093,8.1093,8.1093,8.1093,8.1093,8.1093,8.1093,8.1093,8.1093,8.1093,8.1093,8.1093,3.8556,4.1034,4.3801,4.8622,5.1869,5.4441,5.6629,5.82,5.9296,5.9559,6.0388,6.1172,6.1601,6.1719,6.1719,6.1719,6.1719,6.1719,6.1719,6.1719,6.1719,6.1719,6.1719,6.1719,6.1719,6.3281,6.4297,6.4297,6.5898,6.6914,6.6914,6.6914,6.6914,6.6914,6.6914,6.6914,6.6914,6.8446,6.9163,6.906,7.0499,7.1148,7.1038,7.0947,7.0898,7.0898,7.0898,7.0898,7.0898,7.0898,7.0898,7.0898,7.0898,7.0898,7.1129,7.2853,7.3507,7.3738,7.5438,7.6015,7.6015,7.6015,7.6015,7.6015,7.6015,7.6015,7.6015,7.6015,7.6015,7.6015,7.6015,7.6015,7.6015,7.6015,7.6015,7.6015,7.6015,7.6669,7.7561,7.833,7.9208,8.0092,8.0939,8.1093,8.1093,8.1093,8.1093,8.1093,8.1093,8.1093,8.1093,8.1093,8.1093,8.1093,8.1093,8.1093,8.1093,8.1093,8.1093,8.1093,8.1093,8.1093,8.1093,8.1093,8.1093,8.1093,8.1093,8.1093,8.1093,8.1093,8.1093,8.1093,3.7238,4.0416,4.4052,4.9718,5.2454,5.4453,5.707,5.8476,5.9414,6.0234,6.1094,6.1719,6.1719,6.1719,6.1719,6.1719,6.1719,6.1719,6.1719,6.1719,6.1719,6.1719,6.1719,6.1719,6.1719,6.3281,6.4297,6.4297,6.5898,6.6914,6.6914,6.6914,6.6914,6.6914,6.6914,6.6875,6.6834,6.8387,6.9058,6.8882,7.0414,7.105,7.0898,7.0898,7.0898,7.0898,7.0898,7.0898,7.0898,7.0898,7.0898,7.0898,7.0898,7.0898,7.1129,7.2853,7.3507,7.3738,7.5438,7.6015,7.6015,7.6015,7.6015,7.6015,7.6015,7.6015,7.6015,7.6015,7.6015,7.6015,7.6015,7.6015,7.6015,7.6015,7.6015,7.6015,7.6015,7.6553,7.7369,7.8292,7.9323,8.0246,8.0977,8.1093,8.1093,8.1093,8.1093,8.1093,8.1093,8.1093,8.1093,8.1093,8.1093,8.1093,8.1093,8.1093,8.1093,8.1093,8.1093,8.1093,8.1093,8.1093,8.1093,8.1093,8.1093,8.1093,8.1093,8.1093,8.1093,8.1093,8.1093,8.1093,3.7215,4.1805,4.6326,4.9528,5.1601,5.3555,5.6172,5.8047,5.9414,6.0234,6.1094,6.1719,6.1719,6.1719,6.1719,6.1719,6.1719,6.1719,6.1719,6.1719,6.1719,6.1719,6.1719,6.1719,6.1719,6.3281,6.4297,6.4297,6.5898,6.6914,6.6914,6.6914,6.6914,6.6914,6.6914,6.6831,6.6632,6.8156,6.8839,6.8651,7.0192,7.0946,7.0898,7.0898,7.0898,7.0898,7.0898,7.0898,7.0898,7.0898,7.0898,7.0898,7.0898,7.0898,7.1129,7.2853,7.3507,7.3738,7.5438,7.6015,7.6015,7.6015,7.6015,7.6015,7.6015,7.6015,7.6015,7.6015,7.6015,7.6015,7.6015,7.6015,7.6015,7.6015,7.6015,7.6015,7.6015,7.6092,7.663,7.8215,7.9823,8.0977,8.1093,8.1093,8.1093,8.1093,8.1093,8.1093,8.1093,8.1093,8.1093,8.1093,8.1093,8.1093,8.1093,8.1093,8.1093,8.1093,8.1093,8.1093,8.1093,8.1093,8.1093,8.1093,8.1093,8.1093,8.1093,8.1093,8.1093,8.1093,8.1093,8.1093,3.6893,4.1423,4.5386,4.8086,5.0351,5.2656,5.5273,5.7226,5.8828,6.0117,6.1094,6.1719,6.1719,6.1719,6.1719,6.1719,6.1719,6.1719,6.1719,6.1719,6.1719,6.1719,6.1719,6.1719,6.1719,6.3281,6.4297,6.4297,6.5898,6.6914,6.6914,6.6914,6.6914,6.6914,6.6914,6.679,6.6618,6.8124,6.9239,6.991,7.058,7.0898,7.0898,7.0898,7.0898,7.0898,7.0898,7.0898,7.0898,7.0898,7.0898,7.0898,7.0898,7.0898,7.1129,7.2853,7.3507,7.3738,7.5438,7.6015,7.6015,7.6015,7.6015,7.6015,7.6015,7.6015,7.6015,7.6015,7.6015,7.6015,7.6015,7.6015,7.6015,7.6015,7.6015,7.6015,7.6015,7.6015,7.6515,7.8176,7.99,8.1093,8.1093,8.1093,8.1093,8.1093,8.1093,8.1093,8.1093,8.1093,8.1093,8.1093,8.1093,8.1093,8.1093,8.1093,8.1093,8.1093,8.1093,8.1093,8.1093,8.1093,8.1093,8.1093,8.1093,8.1093,8.1093,8.1093,8.1093,8.1093,8.1093,8.1093,3.6244,4.0127,4.3358,4.6211,4.8711,5.1094,5.3711,5.582,5.7656,5.914,6.0469,6.1367,6.1367,6.1562,6.1719,6.1719,6.1719,6.1719,6.1719,6.1719,6.1719,6.1719,6.1719,6.1719,6.1719,6.3281,6.4297,6.4297,6.5898,6.6914,6.6914,6.6914,6.6914,6.6914,6.6914,6.6787,6.6543,6.802,6.9487,7.0898,7.0898,7.0898,7.0898,7.0898,7.0898,7.0898,7.0898,7.0898,7.0898,7.0898,7.0898,7.0898,7.0898,7.0898,7.1129,7.2853,7.3507,7.3738,7.5438,7.6015,7.6015,7.6015,7.6015,7.6015,7.6015,7.6015,7.6015,7.6015,7.6015,7.6015,7.6015,7.6015,7.6015,7.6015,7.6015,7.6015,7.6015,7.6322,7.7015,7.8253,7.99,8.1093,8.1093,8.1093,8.1093,8.1093,8.1093,8.1093,8.1093,8.1093,8.1093,8.1093,8.1093,8.1093,8.1093,8.1093,8.1093,8.1093,8.1093,8.1093,8.1093,8.1093,8.1093,8.1093,8.1093,8.1093,8.1093,8.1093,8.1093,8.1093,8.1093,8.1093,3.5248,3.7932,4.0756,4.4257,4.6484,4.8476,5.1016,5.3594,5.5703,5.6601,5.875,6.0469,6.0469,6.1133,6.1719,6.1719,6.1719,6.1719,6.1719,6.1719,6.1719,6.1719,6.1719,6.1719,6.1719,6.3281,6.4297,6.4297,6.5898,6.6914,6.6914,6.6914,6.6914,6.6914,6.6914,6.6733,6.6402,6.774,6.9277,7.0898,7.0898,7.0898,7.0898,7.0898,7.0898,7.0898,7.0898,7.0898,7.0898,7.0898,7.0898,7.0898,7.0898,7.0898,7.1129,7.2853,7.3507,7.3738,7.5438,7.6015,7.6015,7.6015,7.6015,7.6015,7.6015,7.6015,7.6015,7.6015,7.6015,7.6015,7.6015,7.6015,7.6015,7.6015,7.6015,7.6015,7.6015,7.7246,7.8407,7.8484,7.99,8.1093,8.1093,8.1093,8.1093,8.1093,8.1093,8.1093,8.1093,8.1093,8.1093,8.1093,8.1093,8.1093,8.1093,8.1093,8.1093,8.1093,8.1093,8.1093,8.1093,8.1093,8.1093,8.1093,8.1093,8.1093,8.1093,8.1093,8.1093,8.1093,8.1093,8.1093,3.2697,3.5336,3.8043,4.0976,4.3867,4.6601,4.9219,5.2226,5.4883,5.6289,5.8633,6.039,6.039,6.1094,6.1719,6.1719,6.1719,6.1719,6.1719,6.1719,6.1719,6.1719,6.1719,6.1719,6.1719,6.2773,6.3711,6.4258,6.539,6.6328,6.6875,6.6914,6.6914,6.6914,6.6786,6.7077,6.7817,6.8185,6.9237,7.0898,7.0898,7.0898,7.0898,7.0898,7.0898,7.0898,7.0898,7.0898,7.0898,7.0898,7.0898,7.0898,7.0898,7.0898,7.1129,7.2853,7.3507,7.3738,7.5438,7.6015,7.6015,7.6015,7.6015,7.6015,7.6015,7.6015,7.6015,7.6015,7.6015,7.6015,7.6015,7.6015,7.6015,7.6015,7.6015,7.6015,7.6015,7.733,7.8484,7.8484,7.99,8.1093,8.1093,8.1093,8.1093,8.1093,8.1093,8.1093,8.1093,8.1093,8.1093,8.1093,8.1093,8.1093,8.1093,8.1093,8.1093,8.1093,8.1093,8.1093,8.1093,8.1093,8.1093,8.1093,8.1093,8.1093,8.1093,8.1093,8.1093,8.1093,8.1093,8.1093,3.0573,3.3122,3.582,3.875,4.1797,4.4805,4.7422,5.0234,5.2773,5.4492,5.6914,5.8789,5.9062,6.0312,6.1367,6.164,6.1719,6.1719,6.1719,6.1719,6.1719,6.1719,6.1719,6.1719,6.1719,6.25,6.3359,6.4219,6.5117,6.5976,6.6836,6.6914,6.6874,6.679,6.6618,6.7073,6.8191,6.8325,6.9122,7.0514,7.0783,7.0898,7.0898,7.0898,7.0898,7.0898,7.0898,7.0898,7.0898,7.0898,7.0898,7.0898,7.0898,7.0898,7.1129,7.2853,7.3507,7.3738,7.5438,7.6015,7.6015,7.6015,7.6015,7.6015,7.6015,7.6015,7.6015,7.6015,7.6015,7.6015,7.6015,7.6015,7.6015,7.6015,7.6015,7.6015,7.6015,7.733,7.8484,7.8484,7.99,8.1093,8.1093,8.1093,8.1093,8.1093,8.1093,8.1093,8.1093,8.1093,8.1093,8.1093,8.1093,8.1093,8.1093,8.1093,8.1093,8.1093,8.1093,8.1093,8.1093,8.1093,8.1093,8.1093,8.1093,8.1093,8.1093,8.1093,8.1093,8.1093,8.1093,8.1093,0.0,0.0,0.0,3.7578,4.0391,4.2969,4.5586,4.7578,4.9336,5.0976,5.3398,5.5508,5.6367,5.8594,6.0586,6.1445,6.164,6.1719,6.1719,6.1719,6.1719,6.1719,6.1719,6.1719,6.1719,6.2461,6.332,6.4219,6.5078,6.5937,6.6836,6.6875,6.6789,6.6616,6.6463,6.6714,6.7373,6.8055,6.8853,6.9706,7.0514,7.0898,7.0898,7.0898,7.0898,7.0898,7.0898,7.0898,7.0898,7.0898,7.0898,7.0898,7.0898,7.0937,7.1168,7.2853,7.3507,7.3776,7.5438,7.6015,7.6015,7.6015,7.6015,7.6015,7.6015,7.6015,7.6015,7.6015,7.6015,7.6015,7.6015,7.6015,7.6015,7.6015,7.6015,7.6015,7.6015,7.733,7.8484,7.8484,7.99,8.1093,8.1093,8.1093,8.1093,8.1093,8.1093,8.1093,8.1093,8.1093,8.1093,8.1093,8.1093,8.1093,8.1093,8.1093,8.1093,8.1093,8.1093,8.1093,8.1093,8.1093,8.1093,8.1093,8.1093,8.1093,8.1093,8.1093,8.1093,8.1093,8.1093,8.1093,2.7422,0.0,0.0,0.0,0.0,0.0,4.2891,4.5781,4.8281,4.9375,5.1641,5.3672,5.457,5.6328,5.793,5.8828,6.0508,6.1719,6.1719,6.1719,6.1719,6.1719,6.1719,6.1719,6.1719,6.1914,6.2695,6.418,6.4531,6.5312,6.6836,6.6744,6.6613,6.6457,6.6283,6.6516,6.7194,6.7981,6.8853,6.9706,7.0514,7.0898,7.0898,7.0898,7.0898,7.0898,7.0898,7.0898,7.0898,7.0898,7.0898,7.0898,7.0898,7.1283,7.1982,7.3084,7.3853,7.4507,7.563,7.6015,7.6015,7.6015,7.6015,7.6015,7.6015,7.6015,7.6015,7.6015,7.6015,7.6015,7.6015,7.6015,7.6015,7.6015,7.6015,7.6015,7.6015,7.733,7.8484,7.8484,7.99,8.1093,8.1093,8.1093,8.1093,8.1093,8.1093,8.1093,8.1093,8.1093,8.1093,8.1093,8.1093,8.1093,8.1093,8.1093,8.1093,8.1093,8.1093,8.1093,8.1093,8.1093,8.1093,8.1093,8.1093,8.1093,8.1093,8.1093,8.1093,8.1093,8.1093,8.1093,2.7305,2.8555,3.0195,3.2773,0.0,0.0,4.0391,4.3203,4.5781,4.7031,4.9023,5.0937,5.2187,5.3828,5.5273,5.6133,5.7812,5.9531,6.0976,6.1172,6.1289,6.164,6.1719,6.1719,6.1719,6.1719,6.2265,6.3633,6.375,6.4531,6.625,6.6498,6.6533,6.6393,6.6195,6.625,6.6596,6.7821,6.866,6.9161,7.036,7.0898,7.0898,7.0898,7.0898,7.0898,7.0898,7.0898,7.0898,7.0898,7.0898,7.0898,7.0898,7.1437,7.2329,7.3161,7.4007,7.4815,7.5707,7.6015,7.6015,7.6015,7.6015,7.6015,7.6015,7.6015,7.6015,7.6015,7.6015,7.6015,7.6015,7.6015,7.6015,7.6015,7.6015,7.6092,7.6476,7.7561,7.8484,7.8484,7.99,8.1093,8.1093,8.1093,8.1093,8.1093,8.1093,8.1093,8.1093,8.1093,8.1093,8.1093,8.1093,8.1093,8.1093,8.1093,8.1093,8.1093,8.1093,8.1093,8.1093,8.1093,8.1093,8.1093,8.1093,8.1093,8.1093,8.1093,8.1093,8.1093,8.1093,8.1093,2.8125,2.8945,3.0156,3.2539,3.5,0.0,3.8086,4.0195,4.2461,4.4101,4.582,4.7539,4.918,5.0937,5.2422,5.3281,5.4258,5.6094,5.9648,6.0117,6.0469,6.1445,6.1562,6.1601,6.168,6.1719,6.207,6.293,6.3086,6.3867,6.5508,6.614,6.6401,6.6393,6.617,6.6024,6.5904,6.7552,6.8391,6.843,7.009,7.0898,7.0898,7.0898,7.0898,7.0898,7.0898,7.0898,7.0898,7.0898,7.0898,7.0898,7.0898,7.1475,7.2444,7.3199,7.4084,7.4969,7.5745,7.6015,7.6015,7.6015,7.6015,7.6015,7.6015,7.6015,7.6015,7.6015,7.6015,7.6015,7.6015,7.6015,7.6015,7.6015,7.6015,7.6245,7.7099,7.7946,7.8523,7.8638,7.9977,8.1093,8.1093,8.1093,8.1093,8.1093,8.1093,8.1093,8.1093,8.1093,8.1093,8.1093,8.1093,8.1093,8.1093,8.1093,8.1093,8.1093,8.1093,8.1093,8.1093,8.1093,8.1093,8.1093,8.1093,8.1093,8.1093,8.1093,8.1093,8.1093,8.1093,8.1093,2.8437,2.8945,2.9883,3.1094,3.2773,0.0,3.6133,3.7969,3.9648,4.0664,4.2226,4.3711,4.4766,4.6953,4.8867,4.9766,5.1172,5.3633,5.7812,5.8398,5.8945,6.0469,6.0664,6.0937,6.164,6.1719,6.207,6.293,6.3633,6.4492,6.5547,6.5462,6.5714,6.639,6.6079,6.5927,6.5904,6.7552,6.8391,6.843,7.009,7.0898,7.0898,7.0898,7.0898,7.0898,7.0898,7.0898,7.0898,7.0898,7.0898,7.0898,7.0898,7.186,7.3276,7.343,7.443,7.5784,7.5938,7.6015,7.6015,7.6015,7.6015,7.6015,7.6015,7.6015,7.6015,7.6015,7.6015,7.6015,7.6015,7.6015,7.6015,7.6015,7.6015,7.6245,7.7099,7.7946,7.8715,7.94,8.04,8.1093,8.1093,8.1093,8.1093,8.1093,8.1093,8.1093,8.1093,8.1093,8.1093,8.1093,8.1093,8.1093,8.1093,8.1093,8.1093,8.1093,8.1093,8.1093,8.1093,8.1093,8.1093,8.1093,8.1093,8.1093,8.1093,8.1093,8.1093,8.1093,8.1093,8.1093,3.0469,3.0234,3.0351,3.0781,3.1875,0.0,0.0,3.543,3.6914,3.7773,3.9297,4.0781,4.1641,4.3555,4.5273,4.6172,4.7383,4.9414,5.293,5.4883,5.6445,5.7695,5.8242,5.8867,5.9726,6.0195,6.0976,6.2265,6.3164,6.3827,6.4166,6.4787,6.5252,6.5592,6.5799,6.5904,6.5904,6.7552,6.8391,6.843,7.009,7.0898,7.0898,7.0898,7.0898,7.0898,7.0898,7.0898,7.0898,7.0898,7.0898,7.0898,7.0898,7.1975,7.3507,7.3507,7.4546,7.6015,7.6015,7.6015,7.6015,7.6015,7.6015,7.6015,7.6015,7.6015,7.6015,7.6015,7.6015,7.6015,7.6015,7.6015,7.6015,7.6015,7.6015,7.6361,7.7638,7.8215,7.8907,8.0208,8.0785,8.1093,8.1093,8.1093,8.1093,8.1093,8.1093,8.1093,8.1093,8.1093,8.1093,8.1093,8.1093,8.1093,8.1093,8.1093,8.1093,8.1093,8.1093,8.1093,8.1093,8.1093,8.1093,8.1093,8.1093,8.1093,8.1093,8.1093,8.1093,8.1093,8.1093,8.1093,3.3398,3.2422,3.1641,3.1641,3.1914,3.2226,0.0,0.0,0.0,3.5312,3.6758,3.8125,3.8984,4.0547,4.1797,4.2148,4.3359,4.4844,4.6445,4.9766,5.2695,5.457,5.543,5.625,5.7305,5.8476,5.9844,6.1328,6.2265,6.2768,6.2797,6.4089,6.4817,6.4802,6.5527,6.5904,6.5904,6.7552,6.8391,6.843,7.009,7.0898,7.0898,7.0898,7.0898,7.0898,7.0898,7.0898,7.0898,7.0898,7.0898,7.0898,7.0898,7.1975,7.3507,7.3507,7.4546,7.6015,7.6015,7.6015,7.6015,7.6015,7.6015,7.6015,7.6015,7.6015,7.6015,7.6015,7.6015,7.6015,7.6015,7.6015,7.6015,7.6015,7.6015,7.6476,7.8138,7.8484,7.9023,8.0746,8.1093,8.1093,8.1093,8.1093,8.1093,8.1093,8.1093,8.1093,8.1093,8.1093,8.1093,8.1093,8.1093,8.1093,8.1093,8.1093,8.1093,8.1093,8.1093,8.1093,8.1093,8.1093,8.1093,8.1093,8.1093,8.1093,8.1093,8.1093,8.1093,8.1093,8.1093,8.1093,3.6953,3.5508,3.4258,3.4258,3.3242,3.2383,3.3086,0.0,3.2695,3.3516,0.0,3.5391,3.6289,0.0,0.0,3.7109,3.9531,4.0937,3.8906,4.2226,4.6875,5.2344,5.3086,5.3789,5.543,5.7773,5.957,6.0469,6.1367,6.2143,6.2758,6.3538,6.4227,6.4763,6.5527,6.5904,6.5904,6.7552,6.8391,6.843,7.009,7.0898,7.0898,7.0898,7.0898,7.0898,7.0898,7.0898,7.0898,7.0898,7.0898,7.0898,7.0898,7.1975,7.3507,7.3507,7.4546,7.6015,7.6015,7.6015,7.6015,7.6015,7.6015,7.6015,7.6015,7.6015,7.6015,7.6015,7.6015,7.6015,7.6015,7.6015,7.6015,7.6015,7.6015,7.6476,7.8138,7.8484,7.9023,8.0746,8.1093,8.1093,8.1093,8.1093,8.1093,8.1093,8.1093,8.1093,8.1093,8.1093,8.1093,8.1093,8.1093,8.1093,8.1093,8.1093,8.1093,8.1093,8.1093,8.1093,8.1093,8.1093,8.1093,8.1093,8.1093,8.1093,8.1093,8.1093,8.1093,8.1093,8.1093,8.1093,3.9922,3.8281,3.6719,3.5703,3.4531,3.3476,3.2851,3.2422,3.1992,3.1328,0.0,0.0,0.0,0.0,0.0,0.0,3.6914,3.7969,3.7383,3.8867,4.2031,4.7578,4.9101,5.082,5.3516,5.5703,5.7695,5.957,6.0469,6.1237,6.1894,6.3103,6.3825,6.3913,6.5202,6.5904,6.5904,6.7051,6.7898,6.8391,6.9629,7.0437,7.0898,7.0898,7.0898,7.0898,7.0898,7.0898,7.0898,7.0898,7.0898,7.0898,7.0898,7.1975,7.3507,7.3507,7.4546,7.6015,7.6015,7.6015,7.6015,7.6015,7.6015,7.6015,7.6015,7.6015,7.6015,7.6015,7.6015,7.6015,7.6015,7.6015,7.6015,7.6015,7.6015,7.6476,7.8138,7.8484,7.9023,8.0746,8.1093,8.1093,8.1093,8.1093,8.1093,8.1093,8.1093,8.1093,8.1093,8.1093,8.1093,8.1093,8.1093,8.1093,8.1093,8.1093,8.1093,8.1093,8.1093,8.1093,8.1093,8.1093,8.1093,8.1093,8.1093,8.1093,8.1093,8.1093,8.1093,8.1093,8.1093,8.1093,4.3008,4.1328,3.957,3.7851,3.6601,3.5312,3.3633,3.3047,3.2383,3.0664,3.082,0.0,0.0,0.0,0.0,0.0,0.0,3.457,3.4492,3.5312,3.7812,4.3008,4.5547,4.7969,5.0664,5.3164,5.5586,5.7969,5.9336,6.0331,6.0912,6.2753,6.3665,6.3294,6.4974,6.5904,6.5904,6.6712,6.7552,6.8391,6.9276,7.0129,7.0898,7.0898,7.0898,7.0898,7.0898,7.0898,7.0898,7.0898,7.0898,7.0898,7.0898,7.1975,7.3507,7.3507,7.4546,7.6015,7.6015,7.6015,7.6015,7.6015,7.6015,7.6015,7.6015,7.6015,7.6015,7.6015,7.6015,7.6015,7.6015,7.6015,7.6015,7.6015,7.6015,7.6476,7.8138,7.8484,7.9023,8.0746,8.1093,8.1093,8.1093,8.1093,8.1093,8.1093,8.1093,8.1093,8.1093,8.1093,8.1093,8.1093,8.1093,8.1093,8.1093,8.1093,8.1093,8.1093,8.1093,8.1093,8.1093,8.1093,8.1093,8.1093,8.1093,8.1093,8.1093,8.1093,8.1093,8.1093,8.1093,8.1093,4.6367,4.4844,4.3125,4.1445,3.9726,3.8008,3.6289,3.5234,3.4141,3.2461,3.2148,3.2148,3.2148,0.0,0.0,0.0,0.0,0.0,0.0,0.0,3.4297,3.9453,4.3047,0.0,0.0,5.0312,5.3516,5.5273,5.7773,5.9471,6.0008,6.2438,6.3665,6.3294,6.4974,6.5904,6.5904,6.6712,6.7552,6.8391,6.9276,7.0129,7.0898,7.0898,7.0898,7.0898,7.0898,7.0898,7.0898,7.0898,7.0898,7.0898,7.0898,7.1975,7.3507,7.3507,7.4546,7.6015,7.6015,7.6015,7.6015,7.6015,7.6015,7.6015,7.6015,7.6015,7.6015,7.6015,7.6015,7.6015,7.6015,7.6015,7.6015,7.6015,7.6015,7.6476,7.8138,7.8484,7.9023,8.0746,8.1093,8.1093,8.1093,8.1093,8.1093,8.1093,8.1093,8.1093,8.1093,8.1093,8.1093,8.1093,8.1093,8.1093,8.1093,8.1093,8.1093,8.1093,8.1093,8.1093,8.1093,8.1093,8.1093,8.1093,8.1093,8.1093,8.1093,8.1093,8.1093,8.1093,8.1093,8.1093,4.9258,4.7617,4.5859,4.4141,4.2383,4.0664,3.8984,3.7891,3.6641,3.4336,3.3398,3.2656,3.1523,0.0,0.0,0.0,0.0,0.0,0.0,0.0,3.1328,0.0,0.0,0.0,0.0,0.0,0.0,0.0,5.5469,5.7361,5.9068,6.0996,6.2459,6.3255,6.4436,6.532,6.5897,6.6173,6.6705,6.7552,6.8436,6.9276,7.0129,7.0667,7.0898,7.0898,7.0898,7.0898,7.0898,7.0898,7.0898,7.0898,7.0898,7.1975,7.3507,7.3507,7.4546,7.6015,7.6015,7.6015,7.6015,7.6015,7.6015,7.6015,7.6015,7.6015,7.6015,7.6015,7.6015,7.6015,7.6015,7.6015,7.6015,7.6015,7.6015,7.6476,7.8138,7.8484,7.9023,8.0746,8.1093,8.1093,8.1093,8.1093,8.1093,8.1093,8.1093,8.1093,8.1093,8.1093,8.1093,8.1093,8.1093,8.1093,8.1093,8.1093,8.1093,8.1093,8.1093,8.1093,8.1093,8.1093,8.1093,8.1093,8.1093,8.1093,8.1093,8.1093,8.1093,8.1093,8.1093,8.1093,5.1914,5.0273,4.8555,4.6836,4.5078,4.3359,4.1641,4.0586,3.9297,3.7031,3.5859,3.4805,3.3437,0.0,0.0,0.0,0.0,0.0,0.0,2.8125,0.0,0.0,0.0,0.0,0.0,0.0,0.0,0.0,0.0,0.0,5.812,6.0083,6.1647,6.2832,6.4012,6.4859,6.5436,6.5743,6.6288,6.7096,6.7975,6.8853,6.9744,7.0514,7.0898,7.0898,7.0898,7.0898,7.0898,7.0898,7.0898,7.0898,7.0898,7.1975,7.3507,7.3507,7.4546,7.6015,7.6015,7.6015,7.6015,7.6015,7.6015,7.6015,7.6015,7.6015,7.6015,7.6015,7.6015,7.6015,7.6015,7.6015,7.6015,7.6015,7.6015,7.6476,7.8138,7.8484,7.9023,8.0746,8.1093,8.1093,8.1093,8.1093,8.1093,8.1093,8.1093,8.1093,8.1093,8.1093,8.1093,8.1093,8.1093,8.1093,8.1093,8.1093,8.1093,8.1093,8.1093,8.1093,8.1093,8.1093,8.1093,8.1093,8.1093,8.1093,8.1093,8.1093,8.1093,8.1093,8.1093,8.1093]}]]